<?xml version="1.0" encoding="UTF-8" standalone="no" ?>
<gpx xmlns="http://www.topografix.com/GPX/1/1" xmlns:xsi="http://www.w3.org/2001/XMLSchema-instance" xsi:schemaLocation="http://www.topografix.com/GPX/1/1 http://www.topografix.com/GPX/1/1/gpx.xsd" version="1.1" creator="VisuGPX - https://www.visugpx.com">
  <metadata>
    <name>Transfrontalier</name>
  </metadata>
  <trk>
    <name><![CDATA[Transfrontalier]]></name>
    <trkseg>
      <trkpt lat="42.46622" lon="2.65007">
        <ele>257.2</ele>
        <time>2019-12-25T16:40:07Z</time>
      </trkpt>
      <trkpt lat="42.46608" lon="2.64957">
        <ele>257.6</ele>
        <time>2019-12-25T16:40:14Z</time>
      </trkpt>
      <trkpt lat="42.46518" lon="2.64761">
        <ele>260.9</ele>
        <time>2019-12-25T16:40:45Z</time>
      </trkpt>
      <trkpt lat="42.46466" lon="2.64641">
        <ele>266.5</ele>
        <time>2019-12-25T16:41:03Z</time>
      </trkpt>
      <trkpt lat="42.46439" lon="2.64611">
        <ele>267.3</ele>
        <time>2019-12-25T16:41:09Z</time>
      </trkpt>
      <trkpt lat="42.46405" lon="2.64587">
        <ele>275.4</ele>
        <time>2019-12-25T16:41:16Z</time>
      </trkpt>
      <trkpt lat="42.46389" lon="2.64568">
        <ele>269.1</ele>
        <time>2019-12-25T16:41:20Z</time>
      </trkpt>
      <trkpt lat="42.46383" lon="2.64544">
        <ele>267.8</ele>
        <time>2019-12-25T16:41:23Z</time>
      </trkpt>
      <trkpt lat="42.46395" lon="2.64434">
        <ele>259.2</ele>
        <time>2019-12-25T16:41:38Z</time>
      </trkpt>
      <trkpt lat="42.46394" lon="2.64409">
        <ele>263.8</ele>
        <time>2019-12-25T16:41:41Z</time>
      </trkpt>
      <trkpt lat="42.46377" lon="2.64355">
        <ele>266.6</ele>
        <time>2019-12-25T16:41:49Z</time>
      </trkpt>
      <trkpt lat="42.46373" lon="2.64323">
        <ele>272.5</ele>
        <time>2019-12-25T16:41:53Z</time>
      </trkpt>
      <trkpt lat="42.46372" lon="2.643">
        <ele>273</ele>
        <time>2019-12-25T16:41:56Z</time>
      </trkpt>
      <trkpt lat="42.46376" lon="2.64272">
        <ele>274.5</ele>
        <time>2019-12-25T16:42:00Z</time>
      </trkpt>
      <trkpt lat="42.46397" lon="2.64209">
        <ele>278.8</ele>
        <time>2019-12-25T16:42:09Z</time>
      </trkpt>
      <trkpt lat="42.46399" lon="2.64185">
        <ele>279.7</ele>
        <time>2019-12-25T16:42:12Z</time>
      </trkpt>
      <trkpt lat="42.46396" lon="2.64163">
        <ele>280</ele>
        <time>2019-12-25T16:42:15Z</time>
      </trkpt>
      <trkpt lat="42.46349" lon="2.63993">
        <ele>273.7</ele>
        <time>2019-12-25T16:42:39Z</time>
      </trkpt>
      <trkpt lat="42.46338" lon="2.63953">
        <ele>275.4</ele>
        <time>2019-12-25T16:42:44Z</time>
      </trkpt>
      <trkpt lat="42.46327" lon="2.63929">
        <ele>268.5</ele>
        <time>2019-12-25T16:42:48Z</time>
      </trkpt>
      <trkpt lat="42.46313" lon="2.63903">
        <ele>268.4</ele>
        <time>2019-12-25T16:42:52Z</time>
      </trkpt>
      <trkpt lat="42.46297" lon="2.63879">
        <ele>267.8</ele>
        <time>2019-12-25T16:42:56Z</time>
      </trkpt>
      <trkpt lat="42.46254" lon="2.63828">
        <ele>269.4</ele>
        <time>2019-12-25T16:43:07Z</time>
      </trkpt>
      <trkpt lat="42.4622" lon="2.6379">
        <ele>272.7</ele>
        <time>2019-12-25T16:43:14Z</time>
      </trkpt>
      <trkpt lat="42.46179" lon="2.63751">
        <ele>272.4</ele>
        <time>2019-12-25T16:43:23Z</time>
      </trkpt>
      <trkpt lat="42.46127" lon="2.63693">
        <ele>278.3</ele>
        <time>2019-12-25T16:43:35Z</time>
      </trkpt>
      <trkpt lat="42.4611" lon="2.63684">
        <ele>277.8</ele>
        <time>2019-12-25T16:43:39Z</time>
      </trkpt>
      <trkpt lat="42.46107" lon="2.63674">
        <ele>278</ele>
        <time>2019-12-25T16:43:40Z</time>
      </trkpt>
      <trkpt lat="42.46088" lon="2.63659">
        <ele>283.4</ele>
        <time>2019-12-25T16:43:44Z</time>
      </trkpt>
      <trkpt lat="42.46034" lon="2.63624">
        <ele>284.7</ele>
        <time>2019-12-25T16:43:55Z</time>
      </trkpt>
      <trkpt lat="42.45998" lon="2.63607">
        <ele>281.9</ele>
        <time>2019-12-25T16:44:01Z</time>
      </trkpt>
      <trkpt lat="42.45883" lon="2.6356">
        <ele>283</ele>
        <time>2019-12-25T16:44:23Z</time>
      </trkpt>
      <trkpt lat="42.45868" lon="2.6355">
        <ele>283.2</ele>
        <time>2019-12-25T16:44:26Z</time>
      </trkpt>
      <trkpt lat="42.45851" lon="2.63534">
        <ele>283.6</ele>
        <time>2019-12-25T16:44:29Z</time>
      </trkpt>
      <trkpt lat="42.45819" lon="2.63515">
        <ele>282.3</ele>
        <time>2019-12-25T16:44:36Z</time>
      </trkpt>
      <trkpt lat="42.45801" lon="2.63499">
        <ele>286</ele>
        <time>2019-12-25T16:44:39Z</time>
      </trkpt>
      <trkpt lat="42.45767" lon="2.63487">
        <ele>285.8</ele>
        <time>2019-12-25T16:44:46Z</time>
      </trkpt>
      <trkpt lat="42.45762" lon="2.63481">
        <ele>286</ele>
        <time>2019-12-25T16:44:47Z</time>
      </trkpt>
      <trkpt lat="42.45762" lon="2.6345">
        <ele>287.6</ele>
        <time>2019-12-25T16:44:51Z</time>
      </trkpt>
      <trkpt lat="42.45757" lon="2.63423">
        <ele>289.2</ele>
        <time>2019-12-25T16:44:55Z</time>
      </trkpt>
      <trkpt lat="42.45737" lon="2.63385">
        <ele>291.8</ele>
        <time>2019-12-25T16:45:01Z</time>
      </trkpt>
      <trkpt lat="42.45726" lon="2.63367">
        <ele>292.4</ele>
        <time>2019-12-25T16:45:04Z</time>
      </trkpt>
      <trkpt lat="42.45706" lon="2.63354">
        <ele>292.7</ele>
        <time>2019-12-25T16:45:08Z</time>
      </trkpt>
      <trkpt lat="42.45644" lon="2.6333">
        <ele>294.4</ele>
        <time>2019-12-25T16:45:19Z</time>
      </trkpt>
      <trkpt lat="42.45637" lon="2.63315">
        <ele>294.6</ele>
        <time>2019-12-25T16:45:22Z</time>
      </trkpt>
      <trkpt lat="42.45614" lon="2.63215">
        <ele>294.9</ele>
        <time>2019-12-25T16:45:35Z</time>
      </trkpt>
      <trkpt lat="42.45592" lon="2.63139">
        <ele>294.1</ele>
        <time>2019-12-25T16:45:46Z</time>
      </trkpt>
      <trkpt lat="42.45524" lon="2.62981">
        <ele>292.1</ele>
        <time>2019-12-25T16:46:10Z</time>
      </trkpt>
      <trkpt lat="42.45466" lon="2.62859">
        <ele>293.9</ele>
        <time>2019-12-25T16:46:29Z</time>
      </trkpt>
      <trkpt lat="42.45445" lon="2.62778">
        <ele>296.5</ele>
        <time>2019-12-25T16:46:40Z</time>
      </trkpt>
      <trkpt lat="42.45441" lon="2.62704">
        <ele>297.3</ele>
        <time>2019-12-25T16:46:50Z</time>
      </trkpt>
      <trkpt lat="42.45448" lon="2.62544">
        <ele>298.4</ele>
        <time>2019-12-25T16:47:11Z</time>
      </trkpt>
      <trkpt lat="42.45448" lon="2.62519">
        <ele>298.5</ele>
        <time>2019-12-25T16:47:14Z</time>
      </trkpt>
      <trkpt lat="42.45447" lon="2.62495">
        <ele>300.2</ele>
        <time>2019-12-25T16:47:18Z</time>
      </trkpt>
      <trkpt lat="42.45391" lon="2.62287">
        <ele>299.3</ele>
        <time>2019-12-25T16:47:47Z</time>
      </trkpt>
      <trkpt lat="42.45367" lon="2.62248">
        <ele>299.9</ele>
        <time>2019-12-25T16:47:53Z</time>
      </trkpt>
      <trkpt lat="42.45327" lon="2.62207">
        <ele>296.2</ele>
        <time>2019-12-25T16:48:02Z</time>
      </trkpt>
      <trkpt lat="42.45279" lon="2.62131">
        <ele>299.5</ele>
        <time>2019-12-25T16:48:15Z</time>
      </trkpt>
      <trkpt lat="42.45262" lon="2.62105">
        <ele>300</ele>
        <time>2019-12-25T16:48:20Z</time>
      </trkpt>
      <trkpt lat="42.45164" lon="2.62009">
        <ele>298.2</ele>
        <time>2019-12-25T16:48:41Z</time>
      </trkpt>
      <trkpt lat="42.44962" lon="2.61814">
        <ele>312.3</ele>
        <time>2019-12-25T16:49:26Z</time>
      </trkpt>
      <trkpt lat="42.44884" lon="2.61736">
        <ele>305.3</ele>
        <time>2019-12-25T16:49:43Z</time>
      </trkpt>
      <trkpt lat="42.44877" lon="2.61706">
        <ele>305.4</ele>
        <time>2019-12-25T16:49:47Z</time>
      </trkpt>
      <trkpt lat="42.44884" lon="2.61673">
        <ele>306.6</ele>
        <time>2019-12-25T16:49:51Z</time>
      </trkpt>
      <trkpt lat="42.44899" lon="2.6164">
        <ele>306.5</ele>
        <time>2019-12-25T16:49:57Z</time>
      </trkpt>
      <trkpt lat="42.44961" lon="2.61555">
        <ele>311.1</ele>
        <time>2019-12-25T16:50:12Z</time>
      </trkpt>
      <trkpt lat="42.44989" lon="2.61524">
        <ele>309</ele>
        <time>2019-12-25T16:50:19Z</time>
      </trkpt>
      <trkpt lat="42.4501" lon="2.61515">
        <ele>313.6</ele>
        <time>2019-12-25T16:50:23Z</time>
      </trkpt>
      <trkpt lat="42.45052" lon="2.6152">
        <ele>319.9</ele>
        <time>2019-12-25T16:50:30Z</time>
      </trkpt>
      <trkpt lat="42.45119" lon="2.61521">
        <ele>331.4</ele>
        <time>2019-12-25T16:50:42Z</time>
      </trkpt>
      <trkpt lat="42.45145" lon="2.61514">
        <ele>330.7</ele>
        <time>2019-12-25T16:50:47Z</time>
      </trkpt>
      <trkpt lat="42.45183" lon="2.61495">
        <ele>320.1</ele>
        <time>2019-12-25T16:50:54Z</time>
      </trkpt>
      <trkpt lat="42.45223" lon="2.61481">
        <ele>322.5</ele>
        <time>2019-12-25T16:51:01Z</time>
      </trkpt>
      <trkpt lat="42.45247" lon="2.61469">
        <ele>322.6</ele>
        <time>2019-12-25T16:51:06Z</time>
      </trkpt>
      <trkpt lat="42.45271" lon="2.61442">
        <ele>332.9</ele>
        <time>2019-12-25T16:51:11Z</time>
      </trkpt>
      <trkpt lat="42.45293" lon="2.61409">
        <ele>324.3</ele>
        <time>2019-12-25T16:51:17Z</time>
      </trkpt>
      <trkpt lat="42.45314" lon="2.61359">
        <ele>323.5</ele>
        <time>2019-12-25T16:51:25Z</time>
      </trkpt>
      <trkpt lat="42.45321" lon="2.61302">
        <ele>317.6</ele>
        <time>2019-12-25T16:51:32Z</time>
      </trkpt>
      <trkpt lat="42.45326" lon="2.61247">
        <ele>317.4</ele>
        <time>2019-12-25T16:51:40Z</time>
      </trkpt>
      <trkpt lat="42.45334" lon="2.61227">
        <ele>323.1</ele>
        <time>2019-12-25T16:51:43Z</time>
      </trkpt>
      <trkpt lat="42.45358" lon="2.61187">
        <ele>323.6</ele>
        <time>2019-12-25T16:51:49Z</time>
      </trkpt>
      <trkpt lat="42.45361" lon="2.6117">
        <ele>323</ele>
        <time>2019-12-25T16:51:52Z</time>
      </trkpt>
      <trkpt lat="42.45361" lon="2.61141">
        <ele>328.2</ele>
        <time>2019-12-25T16:51:56Z</time>
      </trkpt>
      <trkpt lat="42.45357" lon="2.61122">
        <ele>330.3</ele>
        <time>2019-12-25T16:51:58Z</time>
      </trkpt>
      <trkpt lat="42.45342" lon="2.61105">
        <ele>331.2</ele>
        <time>2019-12-25T16:52:02Z</time>
      </trkpt>
      <trkpt lat="42.45269" lon="2.61067">
        <ele>329.4</ele>
        <time>2019-12-25T16:52:16Z</time>
      </trkpt>
      <trkpt lat="42.45244" lon="2.61045">
        <ele>323.4</ele>
        <time>2019-12-25T16:52:21Z</time>
      </trkpt>
      <trkpt lat="42.45223" lon="2.61033">
        <ele>324.2</ele>
        <time>2019-12-25T16:52:25Z</time>
      </trkpt>
      <trkpt lat="42.45194" lon="2.61029">
        <ele>323.4</ele>
        <time>2019-12-25T16:52:30Z</time>
      </trkpt>
      <trkpt lat="42.45147" lon="2.61007">
        <ele>322.6</ele>
        <time>2019-12-25T16:52:39Z</time>
      </trkpt>
      <trkpt lat="42.45104" lon="2.61001">
        <ele>321.3</ele>
        <time>2019-12-25T16:52:47Z</time>
      </trkpt>
      <trkpt lat="42.45093" lon="2.60999">
        <ele>327.9</ele>
        <time>2019-12-25T16:52:49Z</time>
      </trkpt>
      <trkpt lat="42.45065" lon="2.60987">
        <ele>331.8</ele>
        <time>2019-12-25T16:52:54Z</time>
      </trkpt>
      <trkpt lat="42.45044" lon="2.60985">
        <ele>334.3</ele>
        <time>2019-12-25T16:52:58Z</time>
      </trkpt>
      <trkpt lat="42.44998" lon="2.60993">
        <ele>329.4</ele>
        <time>2019-12-25T16:53:06Z</time>
      </trkpt>
      <trkpt lat="42.44959" lon="2.6099">
        <ele>328.1</ele>
        <time>2019-12-25T16:53:13Z</time>
      </trkpt>
      <trkpt lat="42.44944" lon="2.60984">
        <ele>326.8</ele>
        <time>2019-12-25T16:53:16Z</time>
      </trkpt>
      <trkpt lat="42.44935" lon="2.60971">
        <ele>326.9</ele>
        <time>2019-12-25T16:53:18Z</time>
      </trkpt>
      <trkpt lat="42.44933" lon="2.60952">
        <ele>327.7</ele>
        <time>2019-12-25T16:53:20Z</time>
      </trkpt>
      <trkpt lat="42.4494" lon="2.60928">
        <ele>328.3</ele>
        <time>2019-12-25T16:53:24Z</time>
      </trkpt>
      <trkpt lat="42.4497" lon="2.60872">
        <ele>334.8</ele>
        <time>2019-12-25T16:53:33Z</time>
      </trkpt>
      <trkpt lat="42.44978" lon="2.60843">
        <ele>335.8</ele>
        <time>2019-12-25T16:53:37Z</time>
      </trkpt>
      <trkpt lat="42.44993" lon="2.6081">
        <ele>334.1</ele>
        <time>2019-12-25T16:53:42Z</time>
      </trkpt>
      <trkpt lat="42.45007" lon="2.60787">
        <ele>348.8</ele>
        <time>2019-12-25T16:53:46Z</time>
      </trkpt>
      <trkpt lat="42.45011" lon="2.60771">
        <ele>346.9</ele>
        <time>2019-12-25T16:53:48Z</time>
      </trkpt>
      <trkpt lat="42.45012" lon="2.60704">
        <ele>346.4</ele>
        <time>2019-12-25T16:53:57Z</time>
      </trkpt>
      <trkpt lat="42.45018" lon="2.60674">
        <ele>342.7</ele>
        <time>2019-12-25T16:54:01Z</time>
      </trkpt>
      <trkpt lat="42.45041" lon="2.60625">
        <ele>348.6</ele>
        <time>2019-12-25T16:54:09Z</time>
      </trkpt>
      <trkpt lat="42.45048" lon="2.60593">
        <ele>349.8</ele>
        <time>2019-12-25T16:54:13Z</time>
      </trkpt>
      <trkpt lat="42.45048" lon="2.60559">
        <ele>350.4</ele>
        <time>2019-12-25T16:54:17Z</time>
      </trkpt>
      <trkpt lat="42.45041" lon="2.60528">
        <ele>349.8</ele>
        <time>2019-12-25T16:54:22Z</time>
      </trkpt>
      <trkpt lat="42.45021" lon="2.60494">
        <ele>349.6</ele>
        <time>2019-12-25T16:54:27Z</time>
      </trkpt>
      <trkpt lat="42.45001" lon="2.60471">
        <ele>350.5</ele>
        <time>2019-12-25T16:54:32Z</time>
      </trkpt>
      <trkpt lat="42.44976" lon="2.60449">
        <ele>338.8</ele>
        <time>2019-12-25T16:54:37Z</time>
      </trkpt>
      <trkpt lat="42.44948" lon="2.60432">
        <ele>338.5</ele>
        <time>2019-12-25T16:54:43Z</time>
      </trkpt>
      <trkpt lat="42.44931" lon="2.60424">
        <ele>338.7</ele>
        <time>2019-12-25T16:54:46Z</time>
      </trkpt>
      <trkpt lat="42.44861" lon="2.60403">
        <ele>352.2</ele>
        <time>2019-12-25T16:54:59Z</time>
      </trkpt>
      <trkpt lat="42.44841" lon="2.60404">
        <ele>349.6</ele>
        <time>2019-12-25T16:55:02Z</time>
      </trkpt>
      <trkpt lat="42.44821" lon="2.60413">
        <ele>351.9</ele>
        <time>2019-12-25T16:55:06Z</time>
      </trkpt>
      <trkpt lat="42.44756" lon="2.60422">
        <ele>348.7</ele>
        <time>2019-12-25T16:55:18Z</time>
      </trkpt>
      <trkpt lat="42.44723" lon="2.60421">
        <ele>347.9</ele>
        <time>2019-12-25T16:55:24Z</time>
      </trkpt>
      <trkpt lat="42.44677" lon="2.60417">
        <ele>354.5</ele>
        <time>2019-12-25T16:55:32Z</time>
      </trkpt>
      <trkpt lat="42.44654" lon="2.60418">
        <ele>357.1</ele>
        <time>2019-12-25T16:55:36Z</time>
      </trkpt>
      <trkpt lat="42.44621" lon="2.60428">
        <ele>356.9</ele>
        <time>2019-12-25T16:55:42Z</time>
      </trkpt>
      <trkpt lat="42.44586" lon="2.60441">
        <ele>359.5</ele>
        <time>2019-12-25T16:55:48Z</time>
      </trkpt>
      <trkpt lat="42.44572" lon="2.60455">
        <ele>363.2</ele>
        <time>2019-12-25T16:55:52Z</time>
      </trkpt>
      <trkpt lat="42.44561" lon="2.6047">
        <ele>360.2</ele>
        <time>2019-12-25T16:55:54Z</time>
      </trkpt>
      <trkpt lat="42.44536" lon="2.60515">
        <ele>345.5</ele>
        <time>2019-12-25T16:56:02Z</time>
      </trkpt>
      <trkpt lat="42.4452" lon="2.60529">
        <ele>346</ele>
        <time>2019-12-25T16:56:05Z</time>
      </trkpt>
      <trkpt lat="42.44503" lon="2.60539">
        <ele>345.6</ele>
        <time>2019-12-25T16:56:08Z</time>
      </trkpt>
      <trkpt lat="42.44487" lon="2.60542">
        <ele>346</ele>
        <time>2019-12-25T16:56:11Z</time>
      </trkpt>
      <trkpt lat="42.44468" lon="2.6054">
        <ele>345.2</ele>
        <time>2019-12-25T16:56:15Z</time>
      </trkpt>
      <trkpt lat="42.44456" lon="2.60535">
        <ele>344.8</ele>
        <time>2019-12-25T16:56:17Z</time>
      </trkpt>
      <trkpt lat="42.4444" lon="2.60521">
        <ele>344.5</ele>
        <time>2019-12-25T16:56:20Z</time>
      </trkpt>
      <trkpt lat="42.44421" lon="2.60498">
        <ele>346.3</ele>
        <time>2019-12-25T16:56:25Z</time>
      </trkpt>
      <trkpt lat="42.444" lon="2.60459">
        <ele>347</ele>
        <time>2019-12-25T16:56:31Z</time>
      </trkpt>
      <trkpt lat="42.44387" lon="2.60428">
        <ele>349</ele>
        <time>2019-12-25T16:56:36Z</time>
      </trkpt>
      <trkpt lat="42.44372" lon="2.6038">
        <ele>357.2</ele>
        <time>2019-12-25T16:56:43Z</time>
      </trkpt>
      <trkpt lat="42.44356" lon="2.60336">
        <ele>354.3</ele>
        <time>2019-12-25T16:56:49Z</time>
      </trkpt>
      <trkpt lat="42.44339" lon="2.60307">
        <ele>366</ele>
        <time>2019-12-25T16:56:54Z</time>
      </trkpt>
      <trkpt lat="42.4432" lon="2.60287">
        <ele>349.8</ele>
        <time>2019-12-25T16:56:58Z</time>
      </trkpt>
      <trkpt lat="42.44269" lon="2.60251">
        <ele>344.5</ele>
        <time>2019-12-25T16:57:08Z</time>
      </trkpt>
      <trkpt lat="42.44237" lon="2.60223">
        <ele>341.1</ele>
        <time>2019-12-25T16:57:15Z</time>
      </trkpt>
      <trkpt lat="42.44195" lon="2.60178">
        <ele>340.6</ele>
        <time>2019-12-25T16:57:25Z</time>
      </trkpt>
      <trkpt lat="42.44163" lon="2.60134">
        <ele>340.2</ele>
        <time>2019-12-25T16:57:33Z</time>
      </trkpt>
      <trkpt lat="42.4413" lon="2.6008">
        <ele>341.7</ele>
        <time>2019-12-25T16:57:42Z</time>
      </trkpt>
      <trkpt lat="42.4401" lon="2.59759">
        <ele>350.2</ele>
        <time>2019-12-25T16:58:29Z</time>
      </trkpt>
      <trkpt lat="42.43997" lon="2.59717">
        <ele>347.4</ele>
        <time>2019-12-25T16:58:35Z</time>
      </trkpt>
      <trkpt lat="42.43982" lon="2.59626">
        <ele>349.1</ele>
        <time>2019-12-25T16:58:48Z</time>
      </trkpt>
      <trkpt lat="42.43938" lon="2.59472">
        <ele>355.3</ele>
        <time>2019-12-25T17:00:30Z</time>
      </trkpt>
      <trkpt lat="42.43927" lon="2.59401">
        <ele>362.5</ele>
        <time>2019-12-25T17:00:39Z</time>
      </trkpt>
      <trkpt lat="42.43917" lon="2.59374">
        <ele>367.5</ele>
        <time>2019-12-25T17:00:43Z</time>
      </trkpt>
      <trkpt lat="42.43902" lon="2.59354">
        <ele>361.3</ele>
        <time>2019-12-25T17:00:47Z</time>
      </trkpt>
      <trkpt lat="42.43878" lon="2.59336">
        <ele>359.8</ele>
        <time>2019-12-25T17:00:52Z</time>
      </trkpt>
      <trkpt lat="42.43855" lon="2.59329">
        <ele>365.7</ele>
        <time>2019-12-25T17:00:56Z</time>
      </trkpt>
      <trkpt lat="42.43769" lon="2.59318">
        <ele>362.6</ele>
        <time>2019-12-25T17:01:11Z</time>
      </trkpt>
      <trkpt lat="42.43743" lon="2.59326">
        <ele>362.1</ele>
        <time>2019-12-25T17:01:16Z</time>
      </trkpt>
      <trkpt lat="42.4357" lon="2.59413">
        <ele>371</ele>
        <time>2019-12-25T17:01:49Z</time>
      </trkpt>
      <trkpt lat="42.43574" lon="2.59422">
        <ele>364.9</ele>
        <time>2019-12-25T17:01:50Z</time>
      </trkpt>
      <trkpt lat="42.43574" lon="2.59435">
        <ele>365.1</ele>
        <time>2019-12-25T17:01:52Z</time>
      </trkpt>
      <trkpt lat="42.43546" lon="2.59466">
        <ele>365.4</ele>
        <time>2019-12-25T17:01:58Z</time>
      </trkpt>
      <trkpt lat="42.43509" lon="2.59501">
        <ele>363.5</ele>
        <time>2019-12-25T17:02:06Z</time>
      </trkpt>
      <trkpt lat="42.43476" lon="2.59542">
        <ele>361.4</ele>
        <time>2019-12-25T17:02:14Z</time>
      </trkpt>
      <trkpt lat="42.43474" lon="2.59552">
        <ele>360.7</ele>
        <time>2019-12-25T17:02:16Z</time>
      </trkpt>
      <trkpt lat="42.43481" lon="2.59629">
        <ele>366</ele>
        <time>2019-12-25T17:02:26Z</time>
      </trkpt>
      <trkpt lat="42.43485" lon="2.59638">
        <ele>367.2</ele>
        <time>2019-12-25T17:02:27Z</time>
      </trkpt>
      <trkpt lat="42.43492" lon="2.59642">
        <ele>367.9</ele>
        <time>2019-12-25T17:02:29Z</time>
      </trkpt>
      <trkpt lat="42.43505" lon="2.59639">
        <ele>366.3</ele>
        <time>2019-12-25T17:02:31Z</time>
      </trkpt>
      <trkpt lat="42.4352" lon="2.59631">
        <ele>364.9</ele>
        <time>2019-12-25T17:02:34Z</time>
      </trkpt>
      <trkpt lat="42.43564" lon="2.59625">
        <ele>363.9</ele>
        <time>2019-12-25T17:02:42Z</time>
      </trkpt>
      <trkpt lat="42.43579" lon="2.59616">
        <ele>362.6</ele>
        <time>2019-12-25T17:02:45Z</time>
      </trkpt>
      <trkpt lat="42.43602" lon="2.596">
        <ele>359.9</ele>
        <time>2019-12-25T17:02:49Z</time>
      </trkpt>
      <trkpt lat="42.43612" lon="2.59596">
        <ele>360</ele>
        <time>2019-12-25T17:02:51Z</time>
      </trkpt>
      <trkpt lat="42.43621" lon="2.59598">
        <ele>360.2</ele>
        <time>2019-12-25T17:02:53Z</time>
      </trkpt>
      <trkpt lat="42.43627" lon="2.59604">
        <ele>360.5</ele>
        <time>2019-12-25T17:02:54Z</time>
      </trkpt>
      <trkpt lat="42.43632" lon="2.59615">
        <ele>361.3</ele>
        <time>2019-12-25T17:02:56Z</time>
      </trkpt>
      <trkpt lat="42.43633" lon="2.59626">
        <ele>362.2</ele>
        <time>2019-12-25T17:02:57Z</time>
      </trkpt>
      <trkpt lat="42.43631" lon="2.59638">
        <ele>363.3</ele>
        <time>2019-12-25T17:02:59Z</time>
      </trkpt>
      <trkpt lat="42.43625" lon="2.59646">
        <ele>364</ele>
        <time>2019-12-25T17:03:00Z</time>
      </trkpt>
      <trkpt lat="42.43563" lon="2.59674">
        <ele>375.5</ele>
        <time>2019-12-25T17:03:12Z</time>
      </trkpt>
      <trkpt lat="42.43545" lon="2.59681">
        <ele>377.3</ele>
        <time>2019-12-25T17:03:15Z</time>
      </trkpt>
      <trkpt lat="42.43532" lon="2.59682">
        <ele>377.8</ele>
        <time>2019-12-25T17:03:18Z</time>
      </trkpt>
      <trkpt lat="42.43503" lon="2.59678">
        <ele>376</ele>
        <time>2019-12-25T17:03:23Z</time>
      </trkpt>
      <trkpt lat="42.43472" lon="2.59686">
        <ele>386.1</ele>
        <time>2019-12-25T17:03:28Z</time>
      </trkpt>
      <trkpt lat="42.43454" lon="2.59686">
        <ele>387.5</ele>
        <time>2019-12-25T17:03:32Z</time>
      </trkpt>
      <trkpt lat="42.43431" lon="2.59679">
        <ele>385.2</ele>
        <time>2019-12-25T17:03:36Z</time>
      </trkpt>
      <trkpt lat="42.43418" lon="2.59678">
        <ele>383.3</ele>
        <time>2019-12-25T17:03:38Z</time>
      </trkpt>
      <trkpt lat="42.43409" lon="2.59681">
        <ele>388.1</ele>
        <time>2019-12-25T17:03:40Z</time>
      </trkpt>
      <trkpt lat="42.43391" lon="2.59694">
        <ele>394.7</ele>
        <time>2019-12-25T17:03:43Z</time>
      </trkpt>
      <trkpt lat="42.43381" lon="2.59696">
        <ele>395.7</ele>
        <time>2019-12-25T17:03:45Z</time>
      </trkpt>
      <trkpt lat="42.43334" lon="2.597">
        <ele>396.4</ele>
        <time>2019-12-25T17:03:54Z</time>
      </trkpt>
      <trkpt lat="42.43299" lon="2.59718">
        <ele>414.5</ele>
        <time>2019-12-25T17:04:00Z</time>
      </trkpt>
      <trkpt lat="42.4329" lon="2.59716">
        <ele>415.4</ele>
        <time>2019-12-25T17:04:02Z</time>
      </trkpt>
      <trkpt lat="42.43282" lon="2.59703">
        <ele>414.3</ele>
        <time>2019-12-25T17:04:04Z</time>
      </trkpt>
      <trkpt lat="42.43281" lon="2.59691">
        <ele>412.7</ele>
        <time>2019-12-25T17:04:06Z</time>
      </trkpt>
      <trkpt lat="42.43281" lon="2.59674">
        <ele>411.1</ele>
        <time>2019-12-25T17:04:08Z</time>
      </trkpt>
      <trkpt lat="42.43278" lon="2.5966">
        <ele>395.8</ele>
        <time>2019-12-25T17:04:10Z</time>
      </trkpt>
      <trkpt lat="42.4327" lon="2.59648">
        <ele>396.6</ele>
        <time>2019-12-25T17:04:12Z</time>
      </trkpt>
      <trkpt lat="42.43261" lon="2.5964">
        <ele>396.5</ele>
        <time>2019-12-25T17:04:14Z</time>
      </trkpt>
      <trkpt lat="42.43242" lon="2.59635">
        <ele>420.5</ele>
        <time>2019-12-25T17:04:17Z</time>
      </trkpt>
      <trkpt lat="42.43233" lon="2.5963">
        <ele>421.3</ele>
        <time>2019-12-25T17:04:19Z</time>
      </trkpt>
      <trkpt lat="42.43227" lon="2.59623">
        <ele>421.6</ele>
        <time>2019-12-25T17:04:20Z</time>
      </trkpt>
      <trkpt lat="42.43223" lon="2.59613">
        <ele>420.9</ele>
        <time>2019-12-25T17:04:22Z</time>
      </trkpt>
      <trkpt lat="42.4322" lon="2.59587">
        <ele>417.8</ele>
        <time>2019-12-25T17:04:25Z</time>
      </trkpt>
      <trkpt lat="42.43215" lon="2.59577">
        <ele>409.8</ele>
        <time>2019-12-25T17:04:27Z</time>
      </trkpt>
      <trkpt lat="42.43203" lon="2.59561">
        <ele>413.7</ele>
        <time>2019-12-25T17:04:30Z</time>
      </trkpt>
      <trkpt lat="42.43183" lon="2.59515">
        <ele>416.5</ele>
        <time>2019-12-25T17:04:37Z</time>
      </trkpt>
      <trkpt lat="42.43175" lon="2.59501">
        <ele>421.3</ele>
        <time>2019-12-25T17:04:39Z</time>
      </trkpt>
      <trkpt lat="42.43151" lon="2.59474">
        <ele>434.3</ele>
        <time>2019-12-25T17:04:45Z</time>
      </trkpt>
      <trkpt lat="42.43148" lon="2.59466">
        <ele>434.4</ele>
        <time>2019-12-25T17:04:46Z</time>
      </trkpt>
      <trkpt lat="42.43143" lon="2.59435">
        <ele>429.3</ele>
        <time>2019-12-25T17:04:50Z</time>
      </trkpt>
      <trkpt lat="42.43138" lon="2.59424">
        <ele>429.5</ele>
        <time>2019-12-25T17:04:52Z</time>
      </trkpt>
      <trkpt lat="42.43121" lon="2.59393">
        <ele>423.5</ele>
        <time>2019-12-25T17:04:57Z</time>
      </trkpt>
      <trkpt lat="42.43107" lon="2.59364">
        <ele>424.3</ele>
        <time>2019-12-25T17:05:01Z</time>
      </trkpt>
      <trkpt lat="42.43076" lon="2.59318">
        <ele>424.6</ele>
        <time>2019-12-25T17:05:10Z</time>
      </trkpt>
      <trkpt lat="42.4306" lon="2.59277">
        <ele>414.1</ele>
        <time>2019-12-25T17:05:16Z</time>
      </trkpt>
      <trkpt lat="42.43054" lon="2.59268">
        <ele>412.8</ele>
        <time>2019-12-25T17:05:17Z</time>
      </trkpt>
      <trkpt lat="42.43048" lon="2.59264">
        <ele>412.2</ele>
        <time>2019-12-25T17:05:19Z</time>
      </trkpt>
      <trkpt lat="42.4304" lon="2.59265">
        <ele>411.7</ele>
        <time>2019-12-25T17:05:20Z</time>
      </trkpt>
      <trkpt lat="42.43034" lon="2.59269">
        <ele>411.6</ele>
        <time>2019-12-25T17:05:21Z</time>
      </trkpt>
      <trkpt lat="42.43026" lon="2.5928">
        <ele>412.4</ele>
        <time>2019-12-25T17:05:23Z</time>
      </trkpt>
      <trkpt lat="42.43016" lon="2.593">
        <ele>415</ele>
        <time>2019-12-25T17:05:26Z</time>
      </trkpt>
      <trkpt lat="42.42997" lon="2.59349">
        <ele>421</ele>
        <time>2019-12-25T17:05:34Z</time>
      </trkpt>
      <trkpt lat="42.42988" lon="2.59395">
        <ele>431.7</ele>
        <time>2019-12-25T17:05:40Z</time>
      </trkpt>
      <trkpt lat="42.42976" lon="2.59422">
        <ele>453.8</ele>
        <time>2019-12-25T17:05:44Z</time>
      </trkpt>
      <trkpt lat="42.42969" lon="2.59431">
        <ele>454.6</ele>
        <time>2019-12-25T17:05:46Z</time>
      </trkpt>
      <trkpt lat="42.42944" lon="2.59446">
        <ele>453.3</ele>
        <time>2019-12-25T17:05:51Z</time>
      </trkpt>
      <trkpt lat="42.42925" lon="2.59465">
        <ele>456.9</ele>
        <time>2019-12-25T17:05:55Z</time>
      </trkpt>
      <trkpt lat="42.42895" lon="2.59486">
        <ele>455.5</ele>
        <time>2019-12-25T17:06:01Z</time>
      </trkpt>
      <trkpt lat="42.42883" lon="2.59497">
        <ele>455.9</ele>
        <time>2019-12-25T17:06:03Z</time>
      </trkpt>
      <trkpt lat="42.42877" lon="2.59507">
        <ele>479.4</ele>
        <time>2019-12-25T17:06:05Z</time>
      </trkpt>
      <trkpt lat="42.42872" lon="2.59518">
        <ele>481</ele>
        <time>2019-12-25T17:06:07Z</time>
      </trkpt>
      <trkpt lat="42.42867" lon="2.59524">
        <ele>481.9</ele>
        <time>2019-12-25T17:06:08Z</time>
      </trkpt>
      <trkpt lat="42.4286" lon="2.59527">
        <ele>482</ele>
        <time>2019-12-25T17:06:09Z</time>
      </trkpt>
      <trkpt lat="42.42854" lon="2.59525">
        <ele>481</ele>
        <time>2019-12-25T17:06:10Z</time>
      </trkpt>
      <trkpt lat="42.42849" lon="2.5952">
        <ele>479.1</ele>
        <time>2019-12-25T17:06:11Z</time>
      </trkpt>
      <trkpt lat="42.42838" lon="2.59483">
        <ele>458.2</ele>
        <time>2019-12-25T17:06:17Z</time>
      </trkpt>
      <trkpt lat="42.42809" lon="2.5944">
        <ele>468.3</ele>
        <time>2019-12-25T17:06:24Z</time>
      </trkpt>
      <trkpt lat="42.42791" lon="2.59414">
        <ele>454.9</ele>
        <time>2019-12-25T17:06:29Z</time>
      </trkpt>
      <trkpt lat="42.42777" lon="2.59399">
        <ele>459.1</ele>
        <time>2019-12-25T17:06:32Z</time>
      </trkpt>
      <trkpt lat="42.42757" lon="2.59382">
        <ele>460.1</ele>
        <time>2019-12-25T17:06:36Z</time>
      </trkpt>
      <trkpt lat="42.42751" lon="2.59372">
        <ele>458.5</ele>
        <time>2019-12-25T17:06:38Z</time>
      </trkpt>
      <trkpt lat="42.4273" lon="2.59308">
        <ele>475.2</ele>
        <time>2019-12-25T17:06:47Z</time>
      </trkpt>
      <trkpt lat="42.42727" lon="2.59297">
        <ele>475.6</ele>
        <time>2019-12-25T17:06:49Z</time>
      </trkpt>
      <trkpt lat="42.42729" lon="2.59244">
        <ele>457.6</ele>
        <time>2019-12-25T17:06:56Z</time>
      </trkpt>
      <trkpt lat="42.42727" lon="2.59233">
        <ele>457.9</ele>
        <time>2019-12-25T17:06:57Z</time>
      </trkpt>
      <trkpt lat="42.42723" lon="2.59223">
        <ele>458.1</ele>
        <time>2019-12-25T17:06:59Z</time>
      </trkpt>
      <trkpt lat="42.42712" lon="2.59208">
        <ele>458.3</ele>
        <time>2019-12-25T17:07:02Z</time>
      </trkpt>
      <trkpt lat="42.42699" lon="2.59196">
        <ele>458.7</ele>
        <time>2019-12-25T17:07:04Z</time>
      </trkpt>
      <trkpt lat="42.42682" lon="2.59186">
        <ele>459.1</ele>
        <time>2019-12-25T17:07:08Z</time>
      </trkpt>
      <trkpt lat="42.42671" lon="2.59183">
        <ele>459.1</ele>
        <time>2019-12-25T17:07:10Z</time>
      </trkpt>
      <trkpt lat="42.42645" lon="2.59181">
        <ele>471.1</ele>
        <time>2019-12-25T17:07:14Z</time>
      </trkpt>
      <trkpt lat="42.42585" lon="2.59183">
        <ele>471.9</ele>
        <time>2019-12-25T17:07:25Z</time>
      </trkpt>
      <trkpt lat="42.42553" lon="2.59193">
        <ele>483.8</ele>
        <time>2019-12-25T17:07:31Z</time>
      </trkpt>
      <trkpt lat="42.42474" lon="2.59194">
        <ele>498.5</ele>
        <time>2019-12-25T17:07:45Z</time>
      </trkpt>
      <trkpt lat="42.42467" lon="2.59192">
        <ele>499.7</ele>
        <time>2019-12-25T17:07:46Z</time>
      </trkpt>
      <trkpt lat="42.42395" lon="2.59137">
        <ele>497</ele>
        <time>2019-12-25T17:08:01Z</time>
      </trkpt>
      <trkpt lat="42.42354" lon="2.59099">
        <ele>496.6</ele>
        <time>2019-12-25T17:08:10Z</time>
      </trkpt>
      <trkpt lat="42.4234" lon="2.59089">
        <ele>497</ele>
        <time>2019-12-25T17:08:12Z</time>
      </trkpt>
      <trkpt lat="42.42314" lon="2.59077">
        <ele>499</ele>
        <time>2019-12-25T17:08:17Z</time>
      </trkpt>
      <trkpt lat="42.42302" lon="2.59067">
        <ele>500.2</ele>
        <time>2019-12-25T17:08:20Z</time>
      </trkpt>
      <trkpt lat="42.42263" lon="2.59016">
        <ele>500.6</ele>
        <time>2019-12-25T17:08:30Z</time>
      </trkpt>
      <trkpt lat="42.42246" lon="2.58987">
        <ele>498.2</ele>
        <time>2019-12-25T17:08:34Z</time>
      </trkpt>
      <trkpt lat="42.42226" lon="2.58968">
        <ele>494.5</ele>
        <time>2019-12-25T17:08:39Z</time>
      </trkpt>
      <trkpt lat="42.42213" lon="2.58963">
        <ele>493.8</ele>
        <time>2019-12-25T17:08:41Z</time>
      </trkpt>
      <trkpt lat="42.4218" lon="2.58957">
        <ele>493</ele>
        <time>2019-12-25T17:08:47Z</time>
      </trkpt>
      <trkpt lat="42.42169" lon="2.5896">
        <ele>493.4</ele>
        <time>2019-12-25T17:08:49Z</time>
      </trkpt>
      <trkpt lat="42.42157" lon="2.58968">
        <ele>483.4</ele>
        <time>2019-12-25T17:08:51Z</time>
      </trkpt>
      <trkpt lat="42.42147" lon="2.58981">
        <ele>484.5</ele>
        <time>2019-12-25T17:08:54Z</time>
      </trkpt>
      <trkpt lat="42.42135" lon="2.59005">
        <ele>492</ele>
        <time>2019-12-25T17:08:58Z</time>
      </trkpt>
      <trkpt lat="42.42124" lon="2.59032">
        <ele>490.5</ele>
        <time>2019-12-25T17:09:02Z</time>
      </trkpt>
      <trkpt lat="42.42121" lon="2.59044">
        <ele>490.8</ele>
        <time>2019-12-25T17:09:03Z</time>
      </trkpt>
      <trkpt lat="42.42125" lon="2.59117">
        <ele>507.3</ele>
        <time>2019-12-25T17:09:13Z</time>
      </trkpt>
      <trkpt lat="42.42123" lon="2.59136">
        <ele>509.1</ele>
        <time>2019-12-25T17:09:16Z</time>
      </trkpt>
      <trkpt lat="42.42114" lon="2.59161">
        <ele>508.6</ele>
        <time>2019-12-25T17:09:19Z</time>
      </trkpt>
      <trkpt lat="42.42101" lon="2.59179">
        <ele>516.2</ele>
        <time>2019-12-25T17:09:23Z</time>
      </trkpt>
      <trkpt lat="42.42095" lon="2.59192">
        <ele>518.3</ele>
        <time>2019-12-25T17:09:25Z</time>
      </trkpt>
      <trkpt lat="42.42093" lon="2.59208">
        <ele>521.8</ele>
        <time>2019-12-25T17:09:27Z</time>
      </trkpt>
      <trkpt lat="42.42092" lon="2.5924">
        <ele>524.3</ele>
        <time>2019-12-25T17:09:31Z</time>
      </trkpt>
      <trkpt lat="42.42088" lon="2.59252">
        <ele>527.3</ele>
        <time>2019-12-25T17:09:33Z</time>
      </trkpt>
      <trkpt lat="42.42076" lon="2.59266">
        <ele>520.9</ele>
        <time>2019-12-25T17:09:35Z</time>
      </trkpt>
      <trkpt lat="42.42067" lon="2.59274">
        <ele>520</ele>
        <time>2019-12-25T17:09:37Z</time>
      </trkpt>
      <trkpt lat="42.42053" lon="2.59281">
        <ele>518.3</ele>
        <time>2019-12-25T17:09:40Z</time>
      </trkpt>
      <trkpt lat="42.42037" lon="2.59284">
        <ele>515.3</ele>
        <time>2019-12-25T17:09:43Z</time>
      </trkpt>
      <trkpt lat="42.42024" lon="2.59291">
        <ele>513.3</ele>
        <time>2019-12-25T17:09:45Z</time>
      </trkpt>
      <trkpt lat="42.42016" lon="2.593">
        <ele>512.3</ele>
        <time>2019-12-25T17:09:47Z</time>
      </trkpt>
      <trkpt lat="42.42011" lon="2.59316">
        <ele>510.4</ele>
        <time>2019-12-25T17:09:49Z</time>
      </trkpt>
      <trkpt lat="42.42017" lon="2.59372">
        <ele>527</ele>
        <time>2019-12-25T17:09:57Z</time>
      </trkpt>
      <trkpt lat="42.42015" lon="2.59403">
        <ele>527.4</ele>
        <time>2019-12-25T17:10:01Z</time>
      </trkpt>
      <trkpt lat="42.41994" lon="2.59478">
        <ele>525.2</ele>
        <time>2019-12-25T17:10:12Z</time>
      </trkpt>
      <trkpt lat="42.41994" lon="2.59495">
        <ele>531.7</ele>
        <time>2019-12-25T17:10:14Z</time>
      </trkpt>
      <trkpt lat="42.41998" lon="2.59512">
        <ele>539.1</ele>
        <time>2019-12-25T17:10:16Z</time>
      </trkpt>
      <trkpt lat="42.41998" lon="2.59525">
        <ele>541.3</ele>
        <time>2019-12-25T17:10:18Z</time>
      </trkpt>
      <trkpt lat="42.41995" lon="2.59534">
        <ele>543</ele>
        <time>2019-12-25T17:10:19Z</time>
      </trkpt>
      <trkpt lat="42.41987" lon="2.59542">
        <ele>544.3</ele>
        <time>2019-12-25T17:10:21Z</time>
      </trkpt>
      <trkpt lat="42.41975" lon="2.59546">
        <ele>544.1</ele>
        <time>2019-12-25T17:10:23Z</time>
      </trkpt>
      <trkpt lat="42.41949" lon="2.59547">
        <ele>541.4</ele>
        <time>2019-12-25T17:10:28Z</time>
      </trkpt>
      <trkpt lat="42.41927" lon="2.5955">
        <ele>540.4</ele>
        <time>2019-12-25T17:10:32Z</time>
      </trkpt>
      <trkpt lat="42.41904" lon="2.59561">
        <ele>531.3</ele>
        <time>2019-12-25T17:10:36Z</time>
      </trkpt>
      <trkpt lat="42.41882" lon="2.59575">
        <ele>528.8</ele>
        <time>2019-12-25T17:10:40Z</time>
      </trkpt>
      <trkpt lat="42.41864" lon="2.59593">
        <ele>536.5</ele>
        <time>2019-12-25T17:10:44Z</time>
      </trkpt>
      <trkpt lat="42.41847" lon="2.59619">
        <ele>536.2</ele>
        <time>2019-12-25T17:10:49Z</time>
      </trkpt>
      <trkpt lat="42.41837" lon="2.59642">
        <ele>535.6</ele>
        <time>2019-12-25T17:10:52Z</time>
      </trkpt>
      <trkpt lat="42.41835" lon="2.59656">
        <ele>533.2</ele>
        <time>2019-12-25T17:10:54Z</time>
      </trkpt>
      <trkpt lat="42.41839" lon="2.5967">
        <ele>533.7</ele>
        <time>2019-12-25T17:10:56Z</time>
      </trkpt>
      <trkpt lat="42.41851" lon="2.59687">
        <ele>542.3</ele>
        <time>2019-12-25T17:10:59Z</time>
      </trkpt>
      <trkpt lat="42.41862" lon="2.5971">
        <ele>546.3</ele>
        <time>2019-12-25T17:11:03Z</time>
      </trkpt>
      <trkpt lat="42.41868" lon="2.59742">
        <ele>547.3</ele>
        <time>2019-12-25T17:11:07Z</time>
      </trkpt>
      <trkpt lat="42.41868" lon="2.59766">
        <ele>551.5</ele>
        <time>2019-12-25T17:11:10Z</time>
      </trkpt>
      <trkpt lat="42.41866" lon="2.5979">
        <ele>552.7</ele>
        <time>2019-12-25T17:11:14Z</time>
      </trkpt>
      <trkpt lat="42.41858" lon="2.59823">
        <ele>550.5</ele>
        <time>2019-12-25T17:11:18Z</time>
      </trkpt>
      <trkpt lat="42.41845" lon="2.59869">
        <ele>559.6</ele>
        <time>2019-12-25T17:11:25Z</time>
      </trkpt>
      <trkpt lat="42.41826" lon="2.59917">
        <ele>555.1</ele>
        <time>2019-12-25T17:11:32Z</time>
      </trkpt>
      <trkpt lat="42.41818" lon="2.59932">
        <ele>555.5</ele>
        <time>2019-12-25T17:11:34Z</time>
      </trkpt>
      <trkpt lat="42.41766" lon="2.59996">
        <ele>553.8</ele>
        <time>2019-12-25T17:11:47Z</time>
      </trkpt>
      <trkpt lat="42.4174" lon="2.60032">
        <ele>559.6</ele>
        <time>2019-12-25T17:11:53Z</time>
      </trkpt>
      <trkpt lat="42.41731" lon="2.60049">
        <ele>561.9</ele>
        <time>2019-12-25T17:11:56Z</time>
      </trkpt>
      <trkpt lat="42.4172" lon="2.6006">
        <ele>562.7</ele>
        <time>2019-12-25T17:11:58Z</time>
      </trkpt>
      <trkpt lat="42.41665" lon="2.60096">
        <ele>570.9</ele>
        <time>2019-12-25T17:12:09Z</time>
      </trkpt>
      <trkpt lat="42.41656" lon="2.60098">
        <ele>573.4</ele>
        <time>2019-12-25T17:12:11Z</time>
      </trkpt>
      <trkpt lat="42.41648" lon="2.60092">
        <ele>574.4</ele>
        <time>2019-12-25T17:12:13Z</time>
      </trkpt>
      <trkpt lat="42.4164" lon="2.60074">
        <ele>571.4</ele>
        <time>2019-12-25T17:12:15Z</time>
      </trkpt>
      <trkpt lat="42.41642" lon="2.6006">
        <ele>571.5</ele>
        <time>2019-12-25T17:12:17Z</time>
      </trkpt>
      <trkpt lat="42.41677" lon="2.60009">
        <ele>560.8</ele>
        <time>2019-12-25T17:12:26Z</time>
      </trkpt>
      <trkpt lat="42.41691" lon="2.59984">
        <ele>554.8</ele>
        <time>2019-12-25T17:12:31Z</time>
      </trkpt>
      <trkpt lat="42.417" lon="2.59952">
        <ele>552.4</ele>
        <time>2019-12-25T17:12:35Z</time>
      </trkpt>
      <trkpt lat="42.41704" lon="2.5993">
        <ele>551.3</ele>
        <time>2019-12-25T17:12:38Z</time>
      </trkpt>
      <trkpt lat="42.41703" lon="2.59917">
        <ele>551.2</ele>
        <time>2019-12-25T17:12:40Z</time>
      </trkpt>
      <trkpt lat="42.41692" lon="2.59903">
        <ele>544.5</ele>
        <time>2019-12-25T17:12:42Z</time>
      </trkpt>
      <trkpt lat="42.41681" lon="2.599">
        <ele>546.1</ele>
        <time>2019-12-25T17:12:44Z</time>
      </trkpt>
      <trkpt lat="42.41622" lon="2.59912">
        <ele>552</ele>
        <time>2019-12-25T17:12:55Z</time>
      </trkpt>
      <trkpt lat="42.41572" lon="2.59919">
        <ele>566.7</ele>
        <time>2019-12-25T17:13:04Z</time>
      </trkpt>
      <trkpt lat="42.41555" lon="2.59926">
        <ele>570.6</ele>
        <time>2019-12-25T17:13:07Z</time>
      </trkpt>
      <trkpt lat="42.41536" lon="2.59931">
        <ele>571.9</ele>
        <time>2019-12-25T17:13:11Z</time>
      </trkpt>
      <trkpt lat="42.41519" lon="2.59933">
        <ele>571.2</ele>
        <time>2019-12-25T17:13:14Z</time>
      </trkpt>
      <trkpt lat="42.41485" lon="2.59932">
        <ele>576.1</ele>
        <time>2019-12-25T17:13:20Z</time>
      </trkpt>
      <trkpt lat="42.41469" lon="2.59935">
        <ele>580.2</ele>
        <time>2019-12-25T17:13:23Z</time>
      </trkpt>
      <trkpt lat="42.41464" lon="2.59933">
        <ele>580.6</ele>
        <time>2019-12-25T17:13:23Z</time>
      </trkpt>
      <trkpt lat="42.41441" lon="2.59915">
        <ele>565.7</ele>
        <time>2019-12-25T17:13:28Z</time>
      </trkpt>
      <trkpt lat="42.41425" lon="2.59908">
        <ele>570</ele>
        <time>2019-12-25T17:13:31Z</time>
      </trkpt>
      <trkpt lat="42.41393" lon="2.59901">
        <ele>574.4</ele>
        <time>2019-12-25T17:13:37Z</time>
      </trkpt>
      <trkpt lat="42.41361" lon="2.59883">
        <ele>574.7</ele>
        <time>2019-12-25T17:13:43Z</time>
      </trkpt>
      <trkpt lat="42.41341" lon="2.59866">
        <ele>572.4</ele>
        <time>2019-12-25T17:13:47Z</time>
      </trkpt>
      <trkpt lat="42.41332" lon="2.59855">
        <ele>574.1</ele>
        <time>2019-12-25T17:13:49Z</time>
      </trkpt>
      <trkpt lat="42.4132" lon="2.5985">
        <ele>573.6</ele>
        <time>2019-12-25T17:13:52Z</time>
      </trkpt>
      <trkpt lat="42.41309" lon="2.59851">
        <ele>575.1</ele>
        <time>2019-12-25T17:13:54Z</time>
      </trkpt>
      <trkpt lat="42.41266" lon="2.59874">
        <ele>579.2</ele>
        <time>2019-12-25T17:14:02Z</time>
      </trkpt>
      <trkpt lat="42.41254" lon="2.59877">
        <ele>579.8</ele>
        <time>2019-12-25T17:14:04Z</time>
      </trkpt>
      <trkpt lat="42.4122" lon="2.59878">
        <ele>576.4</ele>
        <time>2019-12-25T17:14:10Z</time>
      </trkpt>
      <trkpt lat="42.41205" lon="2.59884">
        <ele>576.2</ele>
        <time>2019-12-25T17:14:13Z</time>
      </trkpt>
      <trkpt lat="42.41183" lon="2.59906">
        <ele>576.3</ele>
        <time>2019-12-25T17:14:18Z</time>
      </trkpt>
      <trkpt lat="42.41173" lon="2.59921">
        <ele>579.4</ele>
        <time>2019-12-25T17:14:20Z</time>
      </trkpt>
      <trkpt lat="42.41168" lon="2.5994">
        <ele>583.5</ele>
        <time>2019-12-25T17:14:23Z</time>
      </trkpt>
      <trkpt lat="42.41165" lon="2.59966">
        <ele>584.3</ele>
        <time>2019-12-25T17:14:26Z</time>
      </trkpt>
      <trkpt lat="42.41161" lon="2.59976">
        <ele>585.1</ele>
        <time>2019-12-25T17:14:28Z</time>
      </trkpt>
      <trkpt lat="42.41153" lon="2.59982">
        <ele>585.6</ele>
        <time>2019-12-25T17:14:30Z</time>
      </trkpt>
      <trkpt lat="42.41136" lon="2.59987">
        <ele>586</ele>
        <time>2019-12-25T17:14:33Z</time>
      </trkpt>
      <trkpt lat="42.4113" lon="2.59985">
        <ele>586.2</ele>
        <time>2019-12-25T17:14:34Z</time>
      </trkpt>
      <trkpt lat="42.41122" lon="2.59975">
        <ele>586</ele>
        <time>2019-12-25T17:14:36Z</time>
      </trkpt>
      <trkpt lat="42.41109" lon="2.59947">
        <ele>584.5</ele>
        <time>2019-12-25T17:14:40Z</time>
      </trkpt>
      <trkpt lat="42.41094" lon="2.59937">
        <ele>583.9</ele>
        <time>2019-12-25T17:14:43Z</time>
      </trkpt>
      <trkpt lat="42.41067" lon="2.59938">
        <ele>595</ele>
        <time>2019-12-25T17:14:48Z</time>
      </trkpt>
      <trkpt lat="42.41049" lon="2.59929">
        <ele>598.2</ele>
        <time>2019-12-25T17:14:51Z</time>
      </trkpt>
      <trkpt lat="42.4104" lon="2.59922">
        <ele>600.1</ele>
        <time>2019-12-25T17:14:53Z</time>
      </trkpt>
      <trkpt lat="42.41032" lon="2.5991">
        <ele>597.1</ele>
        <time>2019-12-25T17:14:55Z</time>
      </trkpt>
      <trkpt lat="42.41029" lon="2.59897">
        <ele>597.1</ele>
        <time>2019-12-25T17:14:57Z</time>
      </trkpt>
      <trkpt lat="42.41033" lon="2.59843">
        <ele>595.7</ele>
        <time>2019-12-25T17:15:04Z</time>
      </trkpt>
      <trkpt lat="42.41026" lon="2.59785">
        <ele>595.9</ele>
        <time>2019-12-25T17:15:12Z</time>
      </trkpt>
      <trkpt lat="42.41028" lon="2.59745">
        <ele>598.4</ele>
        <time>2019-12-25T17:15:17Z</time>
      </trkpt>
      <trkpt lat="42.41038" lon="2.59697">
        <ele>594.7</ele>
        <time>2019-12-25T17:15:24Z</time>
      </trkpt>
      <trkpt lat="42.41048" lon="2.59661">
        <ele>590.4</ele>
        <time>2019-12-25T17:15:29Z</time>
      </trkpt>
      <trkpt lat="42.41054" lon="2.59636">
        <ele>589.1</ele>
        <time>2019-12-25T17:15:32Z</time>
      </trkpt>
      <trkpt lat="42.41048" lon="2.59595">
        <ele>588.8</ele>
        <time>2019-12-25T17:15:38Z</time>
      </trkpt>
      <trkpt lat="42.41043" lon="2.5958">
        <ele>587.1</ele>
        <time>2019-12-25T17:15:40Z</time>
      </trkpt>
      <trkpt lat="42.41035" lon="2.59568">
        <ele>588.6</ele>
        <time>2019-12-25T17:15:42Z</time>
      </trkpt>
      <trkpt lat="42.41025" lon="2.59559">
        <ele>589.8</ele>
        <time>2019-12-25T17:15:44Z</time>
      </trkpt>
      <trkpt lat="42.41015" lon="2.59554">
        <ele>590.6</ele>
        <time>2019-12-25T17:15:46Z</time>
      </trkpt>
      <trkpt lat="42.4098" lon="2.59549">
        <ele>596.4</ele>
        <time>2019-12-25T17:15:52Z</time>
      </trkpt>
      <trkpt lat="42.4097" lon="2.59553">
        <ele>596.5</ele>
        <time>2019-12-25T17:15:54Z</time>
      </trkpt>
      <trkpt lat="42.4095" lon="2.59567">
        <ele>596.3</ele>
        <time>2019-12-25T17:15:58Z</time>
      </trkpt>
      <trkpt lat="42.40924" lon="2.59581">
        <ele>595.4</ele>
        <time>2019-12-25T17:16:03Z</time>
      </trkpt>
      <trkpt lat="42.40913" lon="2.59592">
        <ele>598.3</ele>
        <time>2019-12-25T17:16:06Z</time>
      </trkpt>
      <trkpt lat="42.40895" lon="2.5962">
        <ele>603.8</ele>
        <time>2019-12-25T17:16:10Z</time>
      </trkpt>
      <trkpt lat="42.40889" lon="2.59639">
        <ele>605.3</ele>
        <time>2019-12-25T17:16:13Z</time>
      </trkpt>
      <trkpt lat="42.40869" lon="2.59737">
        <ele>609.5</ele>
        <time>2019-12-25T17:16:27Z</time>
      </trkpt>
      <trkpt lat="42.40846" lon="2.59782">
        <ele>612</ele>
        <time>2019-12-25T17:16:34Z</time>
      </trkpt>
      <trkpt lat="42.40836" lon="2.59796">
        <ele>612.7</ele>
        <time>2019-12-25T17:16:36Z</time>
      </trkpt>
      <trkpt lat="42.40816" lon="2.59817">
        <ele>608.2</ele>
        <time>2019-12-25T17:16:41Z</time>
      </trkpt>
      <trkpt lat="42.4078" lon="2.59845">
        <ele>609</ele>
        <time>2019-12-25T17:16:48Z</time>
      </trkpt>
      <trkpt lat="42.4077" lon="2.59857">
        <ele>608.9</ele>
        <time>2019-12-25T17:16:51Z</time>
      </trkpt>
      <trkpt lat="42.40762" lon="2.59865">
        <ele>609.3</ele>
        <time>2019-12-25T17:16:52Z</time>
      </trkpt>
      <trkpt lat="42.40733" lon="2.59868">
        <ele>603.1</ele>
        <time>2019-12-25T17:16:57Z</time>
      </trkpt>
      <trkpt lat="42.40718" lon="2.59882">
        <ele>603.7</ele>
        <time>2019-12-25T17:17:01Z</time>
      </trkpt>
      <trkpt lat="42.40704" lon="2.59904">
        <ele>603.9</ele>
        <time>2019-12-25T17:17:05Z</time>
      </trkpt>
      <trkpt lat="42.40692" lon="2.59917">
        <ele>611.2</ele>
        <time>2019-12-25T17:17:07Z</time>
      </trkpt>
      <trkpt lat="42.40678" lon="2.59928">
        <ele>609.2</ele>
        <time>2019-12-25T17:17:10Z</time>
      </trkpt>
      <trkpt lat="42.40643" lon="2.59951">
        <ele>607.6</ele>
        <time>2019-12-25T17:17:17Z</time>
      </trkpt>
      <trkpt lat="42.40626" lon="2.59957">
        <ele>607.6</ele>
        <time>2019-12-25T17:17:20Z</time>
      </trkpt>
      <trkpt lat="42.40599" lon="2.59959">
        <ele>606.8</ele>
        <time>2019-12-25T17:17:25Z</time>
      </trkpt>
      <trkpt lat="42.40577" lon="2.59951">
        <ele>602.4</ele>
        <time>2019-12-25T17:17:29Z</time>
      </trkpt>
      <trkpt lat="42.40566" lon="2.59951">
        <ele>602.5</ele>
        <time>2019-12-25T17:17:31Z</time>
      </trkpt>
      <trkpt lat="42.40554" lon="2.59956">
        <ele>603.1</ele>
        <time>2019-12-25T17:17:33Z</time>
      </trkpt>
      <trkpt lat="42.40517" lon="2.6">
        <ele>616.5</ele>
        <time>2019-12-25T17:17:42Z</time>
      </trkpt>
      <trkpt lat="42.4051" lon="2.60006">
        <ele>615</ele>
        <time>2019-12-25T17:17:43Z</time>
      </trkpt>
      <trkpt lat="42.40494" lon="2.60011">
        <ele>614.1</ele>
        <time>2019-12-25T17:17:46Z</time>
      </trkpt>
      <trkpt lat="42.40483" lon="2.60009">
        <ele>615.5</ele>
        <time>2019-12-25T17:17:48Z</time>
      </trkpt>
      <trkpt lat="42.40437" lon="2.59982">
        <ele>606.7</ele>
        <time>2019-12-25T17:17:57Z</time>
      </trkpt>
      <trkpt lat="42.40414" lon="2.59976">
        <ele>607.3</ele>
        <time>2019-12-25T17:18:01Z</time>
      </trkpt>
      <trkpt lat="42.40384" lon="2.59972">
        <ele>606</ele>
        <time>2019-12-25T17:18:07Z</time>
      </trkpt>
      <trkpt lat="42.40245" lon="2.59991">
        <ele>614.7</ele>
        <time>2019-12-25T17:18:32Z</time>
      </trkpt>
      <trkpt lat="42.40233" lon="2.5999">
        <ele>614.3</ele>
        <time>2019-12-25T17:18:34Z</time>
      </trkpt>
      <trkpt lat="42.40214" lon="2.59982">
        <ele>614</ele>
        <time>2019-12-25T17:18:37Z</time>
      </trkpt>
      <trkpt lat="42.40206" lon="2.59974">
        <ele>613.9</ele>
        <time>2019-12-25T17:18:39Z</time>
      </trkpt>
      <trkpt lat="42.40198" lon="2.59963">
        <ele>613.6</ele>
        <time>2019-12-25T17:18:41Z</time>
      </trkpt>
      <trkpt lat="42.40175" lon="2.59919">
        <ele>612.8</ele>
        <time>2019-12-25T17:18:48Z</time>
      </trkpt>
      <trkpt lat="42.40168" lon="2.599">
        <ele>608.3</ele>
        <time>2019-12-25T17:18:51Z</time>
      </trkpt>
      <trkpt lat="42.40153" lon="2.59843">
        <ele>611.4</ele>
        <time>2019-12-25T17:18:59Z</time>
      </trkpt>
      <trkpt lat="42.40128" lon="2.59806">
        <ele>610.9</ele>
        <time>2019-12-25T17:19:06Z</time>
      </trkpt>
      <trkpt lat="42.40079" lon="2.59743">
        <ele>612</ele>
        <time>2019-12-25T17:19:18Z</time>
      </trkpt>
      <trkpt lat="42.40067" lon="2.5973">
        <ele>610.7</ele>
        <time>2019-12-25T17:19:20Z</time>
      </trkpt>
      <trkpt lat="42.40054" lon="2.59726">
        <ele>610.4</ele>
        <time>2019-12-25T17:19:23Z</time>
      </trkpt>
      <trkpt lat="42.40042" lon="2.59726">
        <ele>610.6</ele>
        <time>2019-12-25T17:19:25Z</time>
      </trkpt>
      <trkpt lat="42.40029" lon="2.59732">
        <ele>611.5</ele>
        <time>2019-12-25T17:19:27Z</time>
      </trkpt>
      <trkpt lat="42.40013" lon="2.59748">
        <ele>614</ele>
        <time>2019-12-25T17:19:31Z</time>
      </trkpt>
      <trkpt lat="42.39993" lon="2.59762">
        <ele>619</ele>
        <time>2019-12-25T17:19:35Z</time>
      </trkpt>
      <trkpt lat="42.39956" lon="2.59775">
        <ele>619.5</ele>
        <time>2019-12-25T17:19:42Z</time>
      </trkpt>
      <trkpt lat="42.3994" lon="2.59783">
        <ele>619.2</ele>
        <time>2019-12-25T17:19:45Z</time>
      </trkpt>
      <trkpt lat="42.39927" lon="2.59794">
        <ele>619.6</ele>
        <time>2019-12-25T17:19:47Z</time>
      </trkpt>
      <trkpt lat="42.39877" lon="2.59881">
        <ele>621.3</ele>
        <time>2019-12-25T17:20:02Z</time>
      </trkpt>
      <trkpt lat="42.39863" lon="2.59902">
        <ele>621.1</ele>
        <time>2019-12-25T17:20:06Z</time>
      </trkpt>
      <trkpt lat="42.3985" lon="2.59914">
        <ele>620.2</ele>
        <time>2019-12-25T17:20:08Z</time>
      </trkpt>
      <trkpt lat="42.39816" lon="2.59933">
        <ele>621.5</ele>
        <time>2019-12-25T17:20:15Z</time>
      </trkpt>
      <trkpt lat="42.39788" lon="2.59945">
        <ele>621.8</ele>
        <time>2019-12-25T17:20:20Z</time>
      </trkpt>
      <trkpt lat="42.39754" lon="2.59955">
        <ele>621.5</ele>
        <time>2019-12-25T17:20:26Z</time>
      </trkpt>
      <trkpt lat="42.39743" lon="2.59961">
        <ele>621.8</ele>
        <time>2019-12-25T17:20:28Z</time>
      </trkpt>
      <trkpt lat="42.39732" lon="2.59972">
        <ele>622.9</ele>
        <time>2019-12-25T17:20:31Z</time>
      </trkpt>
      <trkpt lat="42.39721" lon="2.5999">
        <ele>624.1</ele>
        <time>2019-12-25T17:20:34Z</time>
      </trkpt>
      <trkpt lat="42.39712" lon="2.59996">
        <ele>624.5</ele>
        <time>2019-12-25T17:20:36Z</time>
      </trkpt>
      <trkpt lat="42.39701" lon="2.59997">
        <ele>625.2</ele>
        <time>2019-12-25T17:20:38Z</time>
      </trkpt>
      <trkpt lat="42.39693" lon="2.59991">
        <ele>625.7</ele>
        <time>2019-12-25T17:20:39Z</time>
      </trkpt>
      <trkpt lat="42.39676" lon="2.59967">
        <ele>624.1</ele>
        <time>2019-12-25T17:20:44Z</time>
      </trkpt>
      <trkpt lat="42.39666" lon="2.59958">
        <ele>627.1</ele>
        <time>2019-12-25T17:20:46Z</time>
      </trkpt>
      <trkpt lat="42.39655" lon="2.59955">
        <ele>627</ele>
        <time>2019-12-25T17:20:48Z</time>
      </trkpt>
      <trkpt lat="42.39627" lon="2.59958">
        <ele>628.6</ele>
        <time>2019-12-25T17:20:53Z</time>
      </trkpt>
      <trkpt lat="42.39613" lon="2.59955">
        <ele>628.9</ele>
        <time>2019-12-25T17:20:55Z</time>
      </trkpt>
      <trkpt lat="42.39543" lon="2.59932">
        <ele>629.4</ele>
        <time>2019-12-25T17:21:08Z</time>
      </trkpt>
      <trkpt lat="42.39529" lon="2.59931">
        <ele>628.9</ele>
        <time>2019-12-25T17:21:11Z</time>
      </trkpt>
      <trkpt lat="42.395" lon="2.5994">
        <ele>628.6</ele>
        <time>2019-12-25T17:21:16Z</time>
      </trkpt>
      <trkpt lat="42.39486" lon="2.59941">
        <ele>628.2</ele>
        <time>2019-12-25T17:21:18Z</time>
      </trkpt>
      <trkpt lat="42.39442" lon="2.59919">
        <ele>626.4</ele>
        <time>2019-12-25T17:21:27Z</time>
      </trkpt>
      <trkpt lat="42.39428" lon="2.59919">
        <ele>624.3</ele>
        <time>2019-12-25T17:21:29Z</time>
      </trkpt>
      <trkpt lat="42.39411" lon="2.59929">
        <ele>622.4</ele>
        <time>2019-12-25T17:21:33Z</time>
      </trkpt>
      <trkpt lat="42.39395" lon="2.59949">
        <ele>623.9</ele>
        <time>2019-12-25T17:21:36Z</time>
      </trkpt>
      <trkpt lat="42.39384" lon="2.59969">
        <ele>624.9</ele>
        <time>2019-12-25T17:21:40Z</time>
      </trkpt>
      <trkpt lat="42.39376" lon="2.60005">
        <ele>632.3</ele>
        <time>2019-12-25T17:21:45Z</time>
      </trkpt>
      <trkpt lat="42.39365" lon="2.60041">
        <ele>633.1</ele>
        <time>2019-12-25T17:21:50Z</time>
      </trkpt>
      <trkpt lat="42.39349" lon="2.60078">
        <ele>632</ele>
        <time>2019-12-25T17:21:55Z</time>
      </trkpt>
      <trkpt lat="42.39332" lon="2.60102">
        <ele>634</ele>
        <time>2019-12-25T17:22:00Z</time>
      </trkpt>
      <trkpt lat="42.39314" lon="2.60114">
        <ele>636.6</ele>
        <time>2019-12-25T17:22:03Z</time>
      </trkpt>
      <trkpt lat="42.39298" lon="2.6012">
        <ele>637.4</ele>
        <time>2019-12-25T17:22:06Z</time>
      </trkpt>
      <trkpt lat="42.39275" lon="2.60118">
        <ele>636.8</ele>
        <time>2019-12-25T17:22:10Z</time>
      </trkpt>
      <trkpt lat="42.39261" lon="2.60114">
        <ele>635.6</ele>
        <time>2019-12-25T17:22:13Z</time>
      </trkpt>
      <trkpt lat="42.39235" lon="2.60086">
        <ele>628.5</ele>
        <time>2019-12-25T17:22:19Z</time>
      </trkpt>
      <trkpt lat="42.39224" lon="2.60084">
        <ele>628.9</ele>
        <time>2019-12-25T17:22:21Z</time>
      </trkpt>
      <trkpt lat="42.39214" lon="2.60085">
        <ele>628.9</ele>
        <time>2019-12-25T17:22:23Z</time>
      </trkpt>
      <trkpt lat="42.39203" lon="2.60092">
        <ele>628.6</ele>
        <time>2019-12-25T17:22:25Z</time>
      </trkpt>
      <trkpt lat="42.39193" lon="2.60104">
        <ele>628.7</ele>
        <time>2019-12-25T17:22:27Z</time>
      </trkpt>
      <trkpt lat="42.39176" lon="2.60146">
        <ele>631.7</ele>
        <time>2019-12-25T17:22:33Z</time>
      </trkpt>
      <trkpt lat="42.39149" lon="2.60193">
        <ele>632.6</ele>
        <time>2019-12-25T17:22:41Z</time>
      </trkpt>
      <trkpt lat="42.39139" lon="2.60219">
        <ele>634.1</ele>
        <time>2019-12-25T17:22:45Z</time>
      </trkpt>
      <trkpt lat="42.3913" lon="2.60239">
        <ele>634.3</ele>
        <time>2019-12-25T17:22:48Z</time>
      </trkpt>
      <trkpt lat="42.39121" lon="2.60249">
        <ele>633.3</ele>
        <time>2019-12-25T17:22:50Z</time>
      </trkpt>
      <trkpt lat="42.39074" lon="2.60272">
        <ele>634.2</ele>
        <time>2019-12-25T17:22:59Z</time>
      </trkpt>
      <trkpt lat="42.39054" lon="2.60286">
        <ele>636.4</ele>
        <time>2019-12-25T17:23:03Z</time>
      </trkpt>
      <trkpt lat="42.39009" lon="2.60329">
        <ele>638.5</ele>
        <time>2019-12-25T17:23:13Z</time>
      </trkpt>
      <trkpt lat="42.38997" lon="2.60335">
        <ele>639</ele>
        <time>2019-12-25T17:23:15Z</time>
      </trkpt>
      <trkpt lat="42.38989" lon="2.60336">
        <ele>639</ele>
        <time>2019-12-25T17:23:17Z</time>
      </trkpt>
      <trkpt lat="42.38961" lon="2.60334">
        <ele>637.7</ele>
        <time>2019-12-25T17:23:22Z</time>
      </trkpt>
      <trkpt lat="42.38945" lon="2.60339">
        <ele>636.4</ele>
        <time>2019-12-25T17:23:25Z</time>
      </trkpt>
      <trkpt lat="42.38934" lon="2.60351">
        <ele>635.9</ele>
        <time>2019-12-25T17:23:27Z</time>
      </trkpt>
      <trkpt lat="42.38928" lon="2.60367">
        <ele>636.8</ele>
        <time>2019-12-25T17:23:30Z</time>
      </trkpt>
      <trkpt lat="42.38925" lon="2.60406">
        <ele>637.3</ele>
        <time>2019-12-25T17:23:35Z</time>
      </trkpt>
      <trkpt lat="42.38926" lon="2.60428">
        <ele>639.4</ele>
        <time>2019-12-25T17:23:38Z</time>
      </trkpt>
      <trkpt lat="42.38932" lon="2.60448">
        <ele>641.3</ele>
        <time>2019-12-25T17:23:40Z</time>
      </trkpt>
      <trkpt lat="42.38946" lon="2.60481">
        <ele>642.4</ele>
        <time>2019-12-25T17:23:45Z</time>
      </trkpt>
      <trkpt lat="42.38955" lon="2.60513">
        <ele>645.2</ele>
        <time>2019-12-25T17:23:50Z</time>
      </trkpt>
      <trkpt lat="42.38956" lon="2.60526">
        <ele>645.7</ele>
        <time>2019-12-25T17:23:52Z</time>
      </trkpt>
      <trkpt lat="42.38956" lon="2.60546">
        <ele>646.1</ele>
        <time>2019-12-25T17:23:54Z</time>
      </trkpt>
      <trkpt lat="42.38951" lon="2.6059">
        <ele>651.4</ele>
        <time>2019-12-25T17:24:00Z</time>
      </trkpt>
      <trkpt lat="42.38945" lon="2.60607">
        <ele>651.7</ele>
        <time>2019-12-25T17:24:03Z</time>
      </trkpt>
      <trkpt lat="42.38918" lon="2.60646">
        <ele>651.8</ele>
        <time>2019-12-25T17:24:10Z</time>
      </trkpt>
      <trkpt lat="42.38909" lon="2.60671">
        <ele>648</ele>
        <time>2019-12-25T17:24:13Z</time>
      </trkpt>
      <trkpt lat="42.38905" lon="2.60701">
        <ele>647.8</ele>
        <time>2019-12-25T17:24:17Z</time>
      </trkpt>
      <trkpt lat="42.38905" lon="2.60723">
        <ele>650</ele>
        <time>2019-12-25T17:24:20Z</time>
      </trkpt>
      <trkpt lat="42.38911" lon="2.60761">
        <ele>657.9</ele>
        <time>2019-12-25T17:24:25Z</time>
      </trkpt>
      <trkpt lat="42.38911" lon="2.60776">
        <ele>657.3</ele>
        <time>2019-12-25T17:24:27Z</time>
      </trkpt>
      <trkpt lat="42.38907" lon="2.60792">
        <ele>657.8</ele>
        <time>2019-12-25T17:24:29Z</time>
      </trkpt>
      <trkpt lat="42.389" lon="2.60808">
        <ele>659</ele>
        <time>2019-12-25T17:24:32Z</time>
      </trkpt>
      <trkpt lat="42.38886" lon="2.60832">
        <ele>658.3</ele>
        <time>2019-12-25T17:24:36Z</time>
      </trkpt>
      <trkpt lat="42.38882" lon="2.60856">
        <ele>663.6</ele>
        <time>2019-12-25T17:24:39Z</time>
      </trkpt>
      <trkpt lat="42.38889" lon="2.60929">
        <ele>675.2</ele>
        <time>2019-12-25T17:24:49Z</time>
      </trkpt>
      <trkpt lat="42.38888" lon="2.60947">
        <ele>675.7</ele>
        <time>2019-12-25T17:24:51Z</time>
      </trkpt>
      <trkpt lat="42.38884" lon="2.6096">
        <ele>676.1</ele>
        <time>2019-12-25T17:24:53Z</time>
      </trkpt>
      <trkpt lat="42.38874" lon="2.60969">
        <ele>675.4</ele>
        <time>2019-12-25T17:24:55Z</time>
      </trkpt>
      <trkpt lat="42.38847" lon="2.60988">
        <ele>672.5</ele>
        <time>2019-12-25T17:25:01Z</time>
      </trkpt>
      <trkpt lat="42.38837" lon="2.60998">
        <ele>670.7</ele>
        <time>2019-12-25T17:25:03Z</time>
      </trkpt>
      <trkpt lat="42.3882" lon="2.61035">
        <ele>674.4</ele>
        <time>2019-12-25T17:25:09Z</time>
      </trkpt>
      <trkpt lat="42.38811" lon="2.61049">
        <ele>676</ele>
        <time>2019-12-25T17:25:11Z</time>
      </trkpt>
      <trkpt lat="42.38802" lon="2.61058">
        <ele>676.4</ele>
        <time>2019-12-25T17:25:13Z</time>
      </trkpt>
      <trkpt lat="42.38793" lon="2.61062">
        <ele>675.8</ele>
        <time>2019-12-25T17:25:15Z</time>
      </trkpt>
      <trkpt lat="42.38771" lon="2.61067">
        <ele>674.7</ele>
        <time>2019-12-25T17:25:19Z</time>
      </trkpt>
      <trkpt lat="42.3876" lon="2.61074">
        <ele>675</ele>
        <time>2019-12-25T17:25:21Z</time>
      </trkpt>
      <trkpt lat="42.38706" lon="2.61129">
        <ele>675.9</ele>
        <time>2019-12-25T17:25:33Z</time>
      </trkpt>
      <trkpt lat="42.38691" lon="2.61163">
        <ele>676.8</ele>
        <time>2019-12-25T17:25:38Z</time>
      </trkpt>
      <trkpt lat="42.38682" lon="2.61172">
        <ele>682.5</ele>
        <time>2019-12-25T17:25:40Z</time>
      </trkpt>
      <trkpt lat="42.38614" lon="2.61198">
        <ele>678.1</ele>
        <time>2019-12-25T17:25:53Z</time>
      </trkpt>
      <trkpt lat="42.38592" lon="2.61202">
        <ele>677.5</ele>
        <time>2019-12-25T17:25:57Z</time>
      </trkpt>
      <trkpt lat="42.38554" lon="2.61214">
        <ele>676.7</ele>
        <time>2019-12-25T17:26:16Z</time>
      </trkpt>
      <trkpt lat="42.38526" lon="2.612">
        <ele>675.6</ele>
        <time>2019-12-25T17:26:20Z</time>
      </trkpt>
      <trkpt lat="42.38507" lon="2.61167">
        <ele>672.2</ele>
        <time>2019-12-25T17:26:22Z</time>
      </trkpt>
      <trkpt lat="42.38495" lon="2.61154">
        <ele>667.9</ele>
        <time>2019-12-25T17:26:32Z</time>
      </trkpt>
      <trkpt lat="42.38471" lon="2.61148">
        <ele>665.4</ele>
        <time>2019-12-25T17:26:35Z</time>
      </trkpt>
      <trkpt lat="42.38461" lon="2.61152">
        <ele>664.9</ele>
        <time>2019-12-25T17:26:46Z</time>
      </trkpt>
      <trkpt lat="42.38414" lon="2.61197">
        <ele>663.2</ele>
        <time>2019-12-25T17:26:51Z</time>
      </trkpt>
      <trkpt lat="42.38407" lon="2.61211">
        <ele>663.5</ele>
        <time>2019-12-25T17:26:53Z</time>
      </trkpt>
      <trkpt lat="42.38386" lon="2.61289">
        <ele>666.2</ele>
        <time>2019-12-25T17:26:55Z</time>
      </trkpt>
      <trkpt lat="42.38382" lon="2.61328">
        <ele>667</ele>
        <time>2019-12-25T17:26:56Z</time>
      </trkpt>
      <trkpt lat="42.38382" lon="2.61347">
        <ele>665.8</ele>
        <time>2019-12-25T17:26:58Z</time>
      </trkpt>
      <trkpt lat="42.38379" lon="2.6136">
        <ele>664.8</ele>
        <time>2019-12-25T17:27:01Z</time>
      </trkpt>
      <trkpt lat="42.38374" lon="2.61366">
        <ele>663.9</ele>
        <time>2019-12-25T17:27:07Z</time>
      </trkpt>
      <trkpt lat="42.38367" lon="2.61369">
        <ele>663</ele>
        <time>2019-12-25T17:27:09Z</time>
      </trkpt>
      <trkpt lat="42.38345" lon="2.61368">
        <ele>661</ele>
        <time>2019-12-25T17:27:10Z</time>
      </trkpt>
      <trkpt lat="42.38315" lon="2.61362">
        <ele>653.5</ele>
        <time>2019-12-25T17:27:12Z</time>
      </trkpt>
      <trkpt lat="42.38304" lon="2.61364">
        <ele>653.2</ele>
        <time>2019-12-25T17:27:13Z</time>
      </trkpt>
      <trkpt lat="42.38299" lon="2.61369">
        <ele>653.1</ele>
        <time>2019-12-25T17:27:15Z</time>
      </trkpt>
      <trkpt lat="42.38291" lon="2.61381">
        <ele>653.1</ele>
        <time>2019-12-25T17:27:19Z</time>
      </trkpt>
      <trkpt lat="42.38285" lon="2.61387">
        <ele>653.1</ele>
        <time>2019-12-25T17:27:24Z</time>
      </trkpt>
      <trkpt lat="42.38284" lon="2.61401">
        <ele>653.3</ele>
        <time>2019-12-25T17:27:26Z</time>
      </trkpt>
      <trkpt lat="42.38265" lon="2.61413">
        <ele>653.5</ele>
        <time>2019-12-25T17:27:31Z</time>
      </trkpt>
      <trkpt lat="42.38247" lon="2.6144">
        <ele>655.6</ele>
        <time>2019-12-25T17:27:32Z</time>
      </trkpt>
      <trkpt lat="42.3824" lon="2.61457">
        <ele>656.7</ele>
        <time>2019-12-25T17:27:36Z</time>
      </trkpt>
      <trkpt lat="42.38232" lon="2.61491">
        <ele>659.3</ele>
        <time>2019-12-25T17:27:40Z</time>
      </trkpt>
      <trkpt lat="42.38232" lon="2.61501">
        <ele>662.4</ele>
        <time>2019-12-25T17:27:43Z</time>
      </trkpt>
      <trkpt lat="42.38225" lon="2.61531">
        <ele>662.1</ele>
        <time>2019-12-25T17:27:45Z</time>
      </trkpt>
      <trkpt lat="42.38221" lon="2.6156">
        <ele>662.8</ele>
        <time>2019-12-25T17:28:26Z</time>
      </trkpt>
      <trkpt lat="42.38216" lon="2.61575">
        <ele>662.9</ele>
        <time>2019-12-25T17:28:29Z</time>
      </trkpt>
      <trkpt lat="42.38208" lon="2.61588">
        <ele>666.1</ele>
        <time>2019-12-25T17:28:32Z</time>
      </trkpt>
      <trkpt lat="42.38045" lon="2.61808">
        <ele>665.7</ele>
        <time>2019-12-25T17:28:36Z</time>
      </trkpt>
      <trkpt lat="42.38029" lon="2.61823">
        <ele>665.1</ele>
        <time>2019-12-25T17:28:41Z</time>
      </trkpt>
      <trkpt lat="42.38012" lon="2.61832">
        <ele>664</ele>
        <time>2019-12-25T17:28:43Z</time>
      </trkpt>
      <trkpt lat="42.37993" lon="2.61834">
        <ele>665.1</ele>
        <time>2019-12-25T17:28:51Z</time>
      </trkpt>
      <trkpt lat="42.37963" lon="2.61833">
        <ele>671.7</ele>
        <time>2019-12-25T17:28:56Z</time>
      </trkpt>
      <trkpt lat="42.37954" lon="2.61841">
        <ele>671.4</ele>
        <time>2019-12-25T17:29:02Z</time>
      </trkpt>
      <trkpt lat="42.3793" lon="2.61894">
        <ele>670.3</ele>
        <time>2019-12-25T17:29:12Z</time>
      </trkpt>
      <trkpt lat="42.3791" lon="2.61918">
        <ele>668</ele>
        <time>2019-12-25T17:31:27Z</time>
      </trkpt>
      <trkpt lat="42.3788" lon="2.61933">
        <ele>668.4</ele>
        <time>2019-12-25T17:31:39Z</time>
      </trkpt>
      <trkpt lat="42.37821" lon="2.61953">
        <ele>670.8</ele>
        <time>2019-12-25T17:31:46Z</time>
      </trkpt>
      <trkpt lat="42.37709" lon="2.61965">
        <ele>675.9</ele>
        <time>2019-12-25T17:32:01Z</time>
      </trkpt>
      <trkpt lat="42.37639" lon="2.6198">
        <ele>678.4</ele>
        <time>2019-12-25T17:32:04Z</time>
      </trkpt>
      <trkpt lat="42.37603" lon="2.61984">
        <ele>678.9</ele>
        <time>2019-12-25T17:32:07Z</time>
      </trkpt>
      <trkpt lat="42.37523" lon="2.62024">
        <ele>682.6</ele>
        <time>2019-12-25T17:32:24Z</time>
      </trkpt>
      <trkpt lat="42.37509" lon="2.62036">
        <ele>683.1</ele>
        <time>2019-12-25T17:32:41Z</time>
      </trkpt>
      <trkpt lat="42.37498" lon="2.62057">
        <ele>685</ele>
        <time>2019-12-25T17:32:45Z</time>
      </trkpt>
      <trkpt lat="42.37461" lon="2.62173">
        <ele>696.8</ele>
        <time>2019-12-25T17:32:49Z</time>
      </trkpt>
      <trkpt lat="42.37399" lon="2.62269">
        <ele>694.6</ele>
        <time>2019-12-25T17:32:54Z</time>
      </trkpt>
      <trkpt lat="42.37379" lon="2.62286">
        <ele>696.8</ele>
        <time>2019-12-25T17:33:02Z</time>
      </trkpt>
      <trkpt lat="42.37354" lon="2.62291">
        <ele>696.8</ele>
        <time>2019-12-25T17:33:05Z</time>
      </trkpt>
      <trkpt lat="42.37329" lon="2.62287">
        <ele>696.3</ele>
        <time>2019-12-25T17:33:09Z</time>
      </trkpt>
      <trkpt lat="42.3729" lon="2.62263">
        <ele>696.2</ele>
        <time>2019-12-25T17:33:18Z</time>
      </trkpt>
      <trkpt lat="42.37269" lon="2.62257">
        <ele>696.5</ele>
        <time>2019-12-25T17:33:30Z</time>
      </trkpt>
      <trkpt lat="42.37249" lon="2.62263">
        <ele>698.5</ele>
        <time>2019-12-25T17:33:34Z</time>
      </trkpt>
      <trkpt lat="42.37208" lon="2.62306">
        <ele>701.9</ele>
        <time>2019-12-25T17:33:45Z</time>
      </trkpt>
      <trkpt lat="42.37151" lon="2.62345">
        <ele>707.1</ele>
        <time>2019-12-25T17:33:48Z</time>
      </trkpt>
      <trkpt lat="42.37129" lon="2.62351">
        <ele>709.1</ele>
        <time>2019-12-25T17:33:52Z</time>
      </trkpt>
      <trkpt lat="42.37068" lon="2.62321">
        <ele>706.3</ele>
        <time>2019-12-25T17:33:57Z</time>
      </trkpt>
      <trkpt lat="42.37052" lon="2.62316">
        <ele>707.5</ele>
        <time>2019-12-25T17:34:29Z</time>
      </trkpt>
      <trkpt lat="42.37032" lon="2.62324">
        <ele>707.3</ele>
        <time>2019-12-25T17:34:39Z</time>
      </trkpt>
      <trkpt lat="42.37012" lon="2.62358">
        <ele>707.1</ele>
        <time>2019-12-25T17:34:46Z</time>
      </trkpt>
      <trkpt lat="42.36916" lon="2.62561">
        <ele>712.8</ele>
        <time>2019-12-25T17:34:58Z</time>
      </trkpt>
      <trkpt lat="42.36901" lon="2.62636">
        <ele>714.6</ele>
        <time>2019-12-25T17:35:04Z</time>
      </trkpt>
      <trkpt lat="42.36902" lon="2.6269">
        <ele>718.1</ele>
        <time>2019-12-25T17:35:11Z</time>
      </trkpt>
      <trkpt lat="42.36913" lon="2.62774">
        <ele>722.9</ele>
        <time>2019-12-25T17:35:23Z</time>
      </trkpt>
      <trkpt lat="42.36917" lon="2.62825">
        <ele>727.7</ele>
        <time>2019-12-25T17:35:27Z</time>
      </trkpt>
      <trkpt lat="42.36916" lon="2.62874">
        <ele>725.7</ele>
        <time>2019-12-25T17:35:50Z</time>
      </trkpt>
      <trkpt lat="42.36903" lon="2.62962">
        <ele>727.8</ele>
        <time>2019-12-25T17:36:08Z</time>
      </trkpt>
      <trkpt lat="42.369" lon="2.62994">
        <ele>729.5</ele>
        <time>2019-12-25T17:36:12Z</time>
      </trkpt>
      <trkpt lat="42.36904" lon="2.63171">
        <ele>735.8</ele>
        <time>2019-12-25T17:36:17Z</time>
      </trkpt>
      <trkpt lat="42.36885" lon="2.63307">
        <ele>741.6</ele>
        <time>2019-12-25T17:36:21Z</time>
      </trkpt>
      <trkpt lat="42.36888" lon="2.63338">
        <ele>746.2</ele>
        <time>2019-12-25T17:36:24Z</time>
      </trkpt>
      <trkpt lat="42.36882" lon="2.63374">
        <ele>745.7</ele>
        <time>2019-12-25T17:36:30Z</time>
      </trkpt>
      <trkpt lat="42.36876" lon="2.63398">
        <ele>745.6</ele>
        <time>2019-12-25T17:36:34Z</time>
      </trkpt>
      <trkpt lat="42.36874" lon="2.63426">
        <ele>749.1</ele>
        <time>2019-12-25T17:36:48Z</time>
      </trkpt>
      <trkpt lat="42.36864" lon="2.63465">
        <ele>748.7</ele>
        <time>2019-12-25T17:36:53Z</time>
      </trkpt>
      <trkpt lat="42.3686" lon="2.63496">
        <ele>747.6</ele>
        <time>2019-12-25T17:36:58Z</time>
      </trkpt>
      <trkpt lat="42.36862" lon="2.63602">
        <ele>756.4</ele>
        <time>2019-12-25T17:37:00Z</time>
      </trkpt>
      <trkpt lat="42.36857" lon="2.63641">
        <ele>757.1</ele>
        <time>2019-12-25T17:37:18Z</time>
      </trkpt>
      <trkpt lat="42.36844" lon="2.6367">
        <ele>755.3</ele>
        <time>2019-12-25T17:37:29Z</time>
      </trkpt>
      <trkpt lat="42.36839" lon="2.63691">
        <ele>757.8</ele>
        <time>2019-12-25T17:37:34Z</time>
      </trkpt>
      <trkpt lat="42.36849" lon="2.63825">
        <ele>762.1</ele>
        <time>2019-12-25T17:37:40Z</time>
      </trkpt>
      <trkpt lat="42.36868" lon="2.639">
        <ele>768.2</ele>
        <time>2019-12-25T17:37:44Z</time>
      </trkpt>
      <trkpt lat="42.36869" lon="2.63942">
        <ele>770.2</ele>
        <time>2019-12-25T17:37:48Z</time>
      </trkpt>
      <trkpt lat="42.36865" lon="2.63989">
        <ele>770.1</ele>
        <time>2019-12-25T17:38:01Z</time>
      </trkpt>
      <trkpt lat="42.3686" lon="2.64014">
        <ele>770.6</ele>
        <time>2019-12-25T17:38:07Z</time>
      </trkpt>
      <trkpt lat="42.36864" lon="2.64045">
        <ele>772.1</ele>
        <time>2019-12-25T17:38:14Z</time>
      </trkpt>
      <trkpt lat="42.36897" lon="2.64133">
        <ele>772.4</ele>
        <time>2019-12-25T17:38:17Z</time>
      </trkpt>
      <trkpt lat="42.36918" lon="2.6417">
        <ele>776.5</ele>
        <time>2019-12-25T17:38:20Z</time>
      </trkpt>
      <trkpt lat="42.36956" lon="2.64195">
        <ele>785.6</ele>
        <time>2019-12-25T17:38:23Z</time>
      </trkpt>
      <trkpt lat="42.36959" lon="2.64215">
        <ele>786.5</ele>
        <time>2019-12-25T17:38:27Z</time>
      </trkpt>
      <trkpt lat="42.36952" lon="2.64231">
        <ele>786.3</ele>
        <time>2019-12-25T17:38:31Z</time>
      </trkpt>
      <trkpt lat="42.36938" lon="2.64244">
        <ele>784.8</ele>
        <time>2019-12-25T17:38:35Z</time>
      </trkpt>
      <trkpt lat="42.36914" lon="2.64257">
        <ele>782.1</ele>
        <time>2019-12-25T17:38:42Z</time>
      </trkpt>
      <trkpt lat="42.369" lon="2.64274">
        <ele>782.6</ele>
        <time>2019-12-25T17:38:47Z</time>
      </trkpt>
      <trkpt lat="42.36886" lon="2.64302">
        <ele>784.4</ele>
        <time>2019-12-25T17:38:52Z</time>
      </trkpt>
      <trkpt lat="42.3687" lon="2.64347">
        <ele>791.4</ele>
        <time>2019-12-25T17:38:58Z</time>
      </trkpt>
      <trkpt lat="42.36869" lon="2.64386">
        <ele>793.3</ele>
        <time>2019-12-25T17:39:05Z</time>
      </trkpt>
      <trkpt lat="42.36878" lon="2.64427">
        <ele>800.9</ele>
        <time>2019-12-25T17:39:11Z</time>
      </trkpt>
      <trkpt lat="42.36874" lon="2.64468">
        <ele>801.4</ele>
        <time>2019-12-25T17:39:17Z</time>
      </trkpt>
      <trkpt lat="42.36864" lon="2.64522">
        <ele>804.8</ele>
        <time>2019-12-25T17:39:24Z</time>
      </trkpt>
      <trkpt lat="42.36862" lon="2.6457">
        <ele>805.9</ele>
        <time>2019-12-25T17:39:29Z</time>
      </trkpt>
      <trkpt lat="42.36852" lon="2.64611">
        <ele>810.4</ele>
        <time>2019-12-25T17:39:34Z</time>
      </trkpt>
      <trkpt lat="42.3683" lon="2.64652">
        <ele>803.5</ele>
        <time>2019-12-25T17:39:38Z</time>
      </trkpt>
      <trkpt lat="42.3681" lon="2.64682">
        <ele>808.2</ele>
        <time>2019-12-25T17:39:46Z</time>
      </trkpt>
      <trkpt lat="42.36803" lon="2.64719">
        <ele>810.1</ele>
        <time>2019-12-25T17:39:53Z</time>
      </trkpt>
      <trkpt lat="42.36801" lon="2.64751">
        <ele>816.2</ele>
        <time>2019-12-25T17:41:32Z</time>
      </trkpt>
      <trkpt lat="42.36789" lon="2.64806">
        <ele>817.4</ele>
        <time>2019-12-25T17:41:44Z</time>
      </trkpt>
      <trkpt lat="42.36768" lon="2.64851">
        <ele>820.9</ele>
        <time>2019-12-25T17:42:02Z</time>
      </trkpt>
      <trkpt lat="42.36694" lon="2.64997">
        <ele>823.1</ele>
        <time>2019-12-25T17:42:07Z</time>
      </trkpt>
      <trkpt lat="42.36668" lon="2.65082">
        <ele>819.3</ele>
        <time>2019-12-25T17:42:20Z</time>
      </trkpt>
      <trkpt lat="42.36636" lon="2.65212">
        <ele>813.8</ele>
        <time>2019-12-25T17:42:24Z</time>
      </trkpt>
      <trkpt lat="42.36633" lon="2.65249">
        <ele>813.9</ele>
        <time>2019-12-25T17:42:31Z</time>
      </trkpt>
      <trkpt lat="42.36636" lon="2.6535">
        <ele>806.1</ele>
        <time>2019-12-25T17:42:49Z</time>
      </trkpt>
      <trkpt lat="42.36631" lon="2.65379">
        <ele>804.3</ele>
        <time>2019-12-25T17:42:54Z</time>
      </trkpt>
      <trkpt lat="42.36616" lon="2.6543">
        <ele>799.4</ele>
        <time>2019-12-25T17:42:58Z</time>
      </trkpt>
      <trkpt lat="42.36578" lon="2.65551">
        <ele>812.2</ele>
        <time>2019-12-25T17:43:01Z</time>
      </trkpt>
      <trkpt lat="42.36559" lon="2.6558">
        <ele>811.9</ele>
        <time>2019-12-25T17:43:05Z</time>
      </trkpt>
      <trkpt lat="42.3655" lon="2.65608">
        <ele>806.8</ele>
        <time>2019-12-25T17:43:08Z</time>
      </trkpt>
      <trkpt lat="42.36549" lon="2.65634">
        <ele>804.6</ele>
        <time>2019-12-25T17:43:18Z</time>
      </trkpt>
      <trkpt lat="42.36543" lon="2.6566">
        <ele>803.4</ele>
        <time>2019-12-25T17:43:22Z</time>
      </trkpt>
      <trkpt lat="42.3653" lon="2.6568">
        <ele>793.1</ele>
        <time>2019-12-25T17:43:28Z</time>
      </trkpt>
      <trkpt lat="42.3648" lon="2.65719">
        <ele>803.2</ele>
        <time>2019-12-25T17:43:33Z</time>
      </trkpt>
      <trkpt lat="42.36466" lon="2.65743">
        <ele>802.3</ele>
        <time>2019-12-25T17:43:37Z</time>
      </trkpt>
      <trkpt lat="42.36449" lon="2.65776">
        <ele>788.4</ele>
        <time>2019-12-25T17:43:39Z</time>
      </trkpt>
      <trkpt lat="42.36425" lon="2.65795">
        <ele>787.9</ele>
        <time>2019-12-25T17:43:40Z</time>
      </trkpt>
      <trkpt lat="42.36402" lon="2.65805">
        <ele>798.3</ele>
        <time>2019-12-25T17:43:43Z</time>
      </trkpt>
      <trkpt lat="42.36397" lon="2.65817">
        <ele>796.4</ele>
        <time>2019-12-25T17:43:56Z</time>
      </trkpt>
      <trkpt lat="42.36399" lon="2.65828">
        <ele>793.9</ele>
        <time>2019-12-25T17:44:02Z</time>
      </trkpt>
      <trkpt lat="42.36412" lon="2.65828">
        <ele>788.8</ele>
        <time>2019-12-25T17:44:06Z</time>
      </trkpt>
      <trkpt lat="42.36475" lon="2.65775">
        <ele>784.6</ele>
        <time>2019-12-25T17:44:13Z</time>
      </trkpt>
      <trkpt lat="42.36505" lon="2.65752">
        <ele>780.9</ele>
        <time>2019-12-25T17:44:17Z</time>
      </trkpt>
      <trkpt lat="42.36528" lon="2.65745">
        <ele>785</ele>
        <time>2019-12-25T17:44:22Z</time>
      </trkpt>
      <trkpt lat="42.36567" lon="2.65744">
        <ele>776.9</ele>
        <time>2019-12-25T17:44:35Z</time>
      </trkpt>
      <trkpt lat="42.36585" lon="2.65729">
        <ele>761.3</ele>
        <time>2019-12-25T17:44:43Z</time>
      </trkpt>
      <trkpt lat="42.36604" lon="2.65696">
        <ele>761.5</ele>
        <time>2019-12-25T17:44:50Z</time>
      </trkpt>
      <trkpt lat="42.36638" lon="2.65609">
        <ele>768.8</ele>
        <time>2019-12-25T17:45:02Z</time>
      </trkpt>
      <trkpt lat="42.36656" lon="2.65556">
        <ele>776.9</ele>
        <time>2019-12-25T17:45:10Z</time>
      </trkpt>
      <trkpt lat="42.36682" lon="2.65514">
        <ele>763.7</ele>
        <time>2019-12-25T17:45:12Z</time>
      </trkpt>
      <trkpt lat="42.36728" lon="2.6545">
        <ele>766.7</ele>
        <time>2019-12-25T17:45:14Z</time>
      </trkpt>
      <trkpt lat="42.36753" lon="2.65401">
        <ele>769.5</ele>
        <time>2019-12-25T17:45:17Z</time>
      </trkpt>
      <trkpt lat="42.36763" lon="2.65388">
        <ele>774.3</ele>
        <time>2019-12-25T17:45:19Z</time>
      </trkpt>
      <trkpt lat="42.36776" lon="2.65385">
        <ele>776.1</ele>
        <time>2019-12-25T17:45:32Z</time>
      </trkpt>
      <trkpt lat="42.36786" lon="2.65395">
        <ele>776</ele>
        <time>2019-12-25T17:46:01Z</time>
      </trkpt>
      <trkpt lat="42.36791" lon="2.65409">
        <ele>775.5</ele>
        <time>2019-12-25T17:46:22Z</time>
      </trkpt>
      <trkpt lat="42.36798" lon="2.65509">
        <ele>754.9</ele>
        <time>2019-12-25T17:46:35Z</time>
      </trkpt>
      <trkpt lat="42.36788" lon="2.65733">
        <ele>735.4</ele>
        <time>2019-12-25T17:46:40Z</time>
      </trkpt>
      <trkpt lat="42.3679" lon="2.65893">
        <ele>725</ele>
        <time>2019-12-25T17:46:46Z</time>
      </trkpt>
      <trkpt lat="42.36784" lon="2.65991">
        <ele>716.5</ele>
        <time>2019-12-25T17:46:49Z</time>
      </trkpt>
      <trkpt lat="42.36791" lon="2.66026">
        <ele>710.8</ele>
        <time>2019-12-25T17:46:52Z</time>
      </trkpt>
      <trkpt lat="42.36796" lon="2.66068">
        <ele>708.3</ele>
        <time>2019-12-25T17:46:56Z</time>
      </trkpt>
      <trkpt lat="42.36796" lon="2.66089">
        <ele>703.4</ele>
        <time>2019-12-25T17:46:58Z</time>
      </trkpt>
      <trkpt lat="42.36792" lon="2.66116">
        <ele>702.7</ele>
        <time>2019-12-25T17:47:08Z</time>
      </trkpt>
      <trkpt lat="42.36782" lon="2.66142">
        <ele>701.1</ele>
        <time>2019-12-25T17:47:11Z</time>
      </trkpt>
      <trkpt lat="42.36775" lon="2.66155">
        <ele>699.2</ele>
        <time>2019-12-25T17:47:13Z</time>
      </trkpt>
      <trkpt lat="42.36737" lon="2.66208">
        <ele>691.8</ele>
        <time>2019-12-25T17:47:18Z</time>
      </trkpt>
      <trkpt lat="42.36727" lon="2.66228">
        <ele>693.4</ele>
        <time>2019-12-25T17:47:28Z</time>
      </trkpt>
      <trkpt lat="42.36722" lon="2.66243">
        <ele>693.9</ele>
        <time>2019-12-25T17:47:29Z</time>
      </trkpt>
      <trkpt lat="42.36718" lon="2.66277">
        <ele>697.7</ele>
        <time>2019-12-25T17:47:33Z</time>
      </trkpt>
      <trkpt lat="42.36718" lon="2.66353">
        <ele>708.4</ele>
        <time>2019-12-25T17:47:41Z</time>
      </trkpt>
      <trkpt lat="42.36716" lon="2.66366">
        <ele>709</ele>
        <time>2019-12-25T17:47:44Z</time>
      </trkpt>
      <trkpt lat="42.36707" lon="2.66389">
        <ele>710</ele>
        <time>2019-12-25T17:48:06Z</time>
      </trkpt>
      <trkpt lat="42.3668" lon="2.66435">
        <ele>715.1</ele>
        <time>2019-12-25T17:48:13Z</time>
      </trkpt>
      <trkpt lat="42.36672" lon="2.66462">
        <ele>717.4</ele>
        <time>2019-12-25T17:48:22Z</time>
      </trkpt>
      <trkpt lat="42.36647" lon="2.66624">
        <ele>707.2</ele>
        <time>2019-12-25T17:48:52Z</time>
      </trkpt>
      <trkpt lat="42.3664" lon="2.66679">
        <ele>707.6</ele>
        <time>2019-12-25T17:48:59Z</time>
      </trkpt>
      <trkpt lat="42.3664" lon="2.6674">
        <ele>707.1</ele>
        <time>2019-12-25T17:49:21Z</time>
      </trkpt>
      <trkpt lat="42.3665" lon="2.66968">
        <ele>714.7</ele>
        <time>2019-12-25T17:49:25Z</time>
      </trkpt>
      <trkpt lat="42.36654" lon="2.67021">
        <ele>718.9</ele>
        <time>2019-12-25T17:49:28Z</time>
      </trkpt>
      <trkpt lat="42.36672" lon="2.67194">
        <ele>748.6</ele>
        <time>2019-12-25T17:49:31Z</time>
      </trkpt>
      <trkpt lat="42.3667" lon="2.6722">
        <ele>752</ele>
        <time>2019-12-25T17:49:35Z</time>
      </trkpt>
      <trkpt lat="42.36664" lon="2.67239">
        <ele>741.4</ele>
        <time>2019-12-25T17:49:38Z</time>
      </trkpt>
      <trkpt lat="42.36651" lon="2.67257">
        <ele>748.4</ele>
        <time>2019-12-25T17:49:45Z</time>
      </trkpt>
      <trkpt lat="42.36633" lon="2.67272">
        <ele>750.5</ele>
        <time>2019-12-25T17:49:52Z</time>
      </trkpt>
      <trkpt lat="42.36616" lon="2.67276">
        <ele>750.7</ele>
        <time>2019-12-25T17:50:21Z</time>
      </trkpt>
      <trkpt lat="42.36573" lon="2.67275">
        <ele>749</ele>
        <time>2019-12-25T17:50:24Z</time>
      </trkpt>
      <trkpt lat="42.36536" lon="2.67281">
        <ele>750.3</ele>
        <time>2019-12-25T17:50:26Z</time>
      </trkpt>
      <trkpt lat="42.36377" lon="2.6732">
        <ele>739.3</ele>
        <time>2019-12-25T17:50:29Z</time>
      </trkpt>
      <trkpt lat="42.36361" lon="2.67328">
        <ele>738.5</ele>
        <time>2019-12-25T17:50:31Z</time>
      </trkpt>
      <trkpt lat="42.3635" lon="2.67336">
        <ele>747.3</ele>
        <time>2019-12-25T17:50:33Z</time>
      </trkpt>
      <trkpt lat="42.36339" lon="2.67351">
        <ele>747.5</ele>
        <time>2019-12-25T17:50:36Z</time>
      </trkpt>
      <trkpt lat="42.36333" lon="2.67363">
        <ele>730.1</ele>
        <time>2019-12-25T17:50:38Z</time>
      </trkpt>
      <trkpt lat="42.36328" lon="2.67382">
        <ele>729.8</ele>
        <time>2019-12-25T17:50:41Z</time>
      </trkpt>
      <trkpt lat="42.36327" lon="2.67398">
        <ele>733.4</ele>
        <time>2019-12-25T17:50:43Z</time>
      </trkpt>
      <trkpt lat="42.36329" lon="2.67419">
        <ele>741.5</ele>
        <time>2019-12-25T17:50:48Z</time>
      </trkpt>
      <trkpt lat="42.36334" lon="2.67436">
        <ele>749.5</ele>
        <time>2019-12-25T17:50:54Z</time>
      </trkpt>
      <trkpt lat="42.36341" lon="2.67453">
        <ele>749.7</ele>
        <time>2019-12-25T17:50:59Z</time>
      </trkpt>
      <trkpt lat="42.36365" lon="2.67475">
        <ele>750.3</ele>
        <time>2019-12-25T17:51:05Z</time>
      </trkpt>
      <trkpt lat="42.36394" lon="2.67493">
        <ele>753.5</ele>
        <time>2019-12-25T17:51:32Z</time>
      </trkpt>
      <trkpt lat="42.36419" lon="2.67506">
        <ele>754.5</ele>
        <time>2019-12-25T17:51:37Z</time>
      </trkpt>
      <trkpt lat="42.36451" lon="2.67516">
        <ele>752.5</ele>
        <time>2019-12-25T17:51:40Z</time>
      </trkpt>
      <trkpt lat="42.366" lon="2.67549">
        <ele>766</ele>
        <time>2019-12-25T17:51:42Z</time>
      </trkpt>
      <trkpt lat="42.36626" lon="2.67563">
        <ele>767.8</ele>
        <time>2019-12-25T17:51:46Z</time>
      </trkpt>
      <trkpt lat="42.36641" lon="2.67579">
        <ele>769.3</ele>
        <time>2019-12-25T17:51:51Z</time>
      </trkpt>
      <trkpt lat="42.36649" lon="2.67594">
        <ele>762.5</ele>
        <time>2019-12-25T17:51:54Z</time>
      </trkpt>
      <trkpt lat="42.36656" lon="2.67617">
        <ele>759.2</ele>
        <time>2019-12-25T17:51:57Z</time>
      </trkpt>
      <trkpt lat="42.3666" lon="2.67655">
        <ele>757.1</ele>
        <time>2019-12-25T17:52:00Z</time>
      </trkpt>
      <trkpt lat="42.36665" lon="2.67682">
        <ele>750.6</ele>
        <time>2019-12-25T17:52:06Z</time>
      </trkpt>
      <trkpt lat="42.36672" lon="2.67697">
        <ele>762.2</ele>
        <time>2019-12-25T17:52:09Z</time>
      </trkpt>
      <trkpt lat="42.36685" lon="2.67712">
        <ele>762.2</ele>
        <time>2019-12-25T17:52:12Z</time>
      </trkpt>
      <trkpt lat="42.36718" lon="2.67736">
        <ele>765.3</ele>
        <time>2019-12-25T17:52:15Z</time>
      </trkpt>
      <trkpt lat="42.3673" lon="2.67747">
        <ele>766.7</ele>
        <time>2019-12-25T17:52:17Z</time>
      </trkpt>
      <trkpt lat="42.36742" lon="2.67764">
        <ele>761.7</ele>
        <time>2019-12-25T17:52:20Z</time>
      </trkpt>
      <trkpt lat="42.36751" lon="2.67785">
        <ele>768.9</ele>
        <time>2019-12-25T17:52:22Z</time>
      </trkpt>
      <trkpt lat="42.36754" lon="2.67798">
        <ele>767.9</ele>
        <time>2019-12-25T17:52:32Z</time>
      </trkpt>
      <trkpt lat="42.36756" lon="2.67818">
        <ele>765</ele>
        <time>2019-12-25T17:52:34Z</time>
      </trkpt>
      <trkpt lat="42.36755" lon="2.67833">
        <ele>761.9</ele>
        <time>2019-12-25T17:52:36Z</time>
      </trkpt>
      <trkpt lat="42.36743" lon="2.67909">
        <ele>757</ele>
        <time>2019-12-25T17:52:37Z</time>
      </trkpt>
      <trkpt lat="42.36745" lon="2.67924">
        <ele>758.4</ele>
        <time>2019-12-25T17:52:39Z</time>
      </trkpt>
      <trkpt lat="42.36749" lon="2.67938">
        <ele>756.7</ele>
        <time>2019-12-25T17:52:42Z</time>
      </trkpt>
      <trkpt lat="42.36754" lon="2.67946">
        <ele>758.3</ele>
        <time>2019-12-25T17:52:45Z</time>
      </trkpt>
      <trkpt lat="42.36763" lon="2.67955">
        <ele>757.8</ele>
        <time>2019-12-25T17:52:46Z</time>
      </trkpt>
      <trkpt lat="42.36777" lon="2.67961">
        <ele>757</ele>
        <time>2019-12-25T17:52:47Z</time>
      </trkpt>
      <trkpt lat="42.36792" lon="2.67959">
        <ele>756</ele>
        <time>2019-12-25T17:52:51Z</time>
      </trkpt>
      <trkpt lat="42.36799" lon="2.67955">
        <ele>755.6</ele>
        <time>2019-12-25T17:52:58Z</time>
      </trkpt>
      <trkpt lat="42.36806" lon="2.67949">
        <ele>755.3</ele>
        <time>2019-12-25T17:53:03Z</time>
      </trkpt>
      <trkpt lat="42.36818" lon="2.6793">
        <ele>754.9</ele>
        <time>2019-12-25T17:53:12Z</time>
      </trkpt>
      <trkpt lat="42.36839" lon="2.67879">
        <ele>751.2</ele>
        <time>2019-12-25T17:53:17Z</time>
      </trkpt>
      <trkpt lat="42.36859" lon="2.67853">
        <ele>752.2</ele>
        <time>2019-12-25T17:53:27Z</time>
      </trkpt>
      <trkpt lat="42.36901" lon="2.67812">
        <ele>755.5</ele>
        <time>2019-12-25T17:53:34Z</time>
      </trkpt>
      <trkpt lat="42.3692" lon="2.67789">
        <ele>740.8</ele>
        <time>2019-12-25T17:53:51Z</time>
      </trkpt>
      <trkpt lat="42.36954" lon="2.67727">
        <ele>752.8</ele>
        <time>2019-12-25T17:53:54Z</time>
      </trkpt>
      <trkpt lat="42.36988" lon="2.67698">
        <ele>752.4</ele>
        <time>2019-12-25T17:53:57Z</time>
      </trkpt>
      <trkpt lat="42.37072" lon="2.67643">
        <ele>749.6</ele>
        <time>2019-12-25T17:54:00Z</time>
      </trkpt>
      <trkpt lat="42.37088" lon="2.67636">
        <ele>746.3</ele>
        <time>2019-12-25T17:54:05Z</time>
      </trkpt>
      <trkpt lat="42.37103" lon="2.67634">
        <ele>747.7</ele>
        <time>2019-12-25T17:54:08Z</time>
      </trkpt>
      <trkpt lat="42.37121" lon="2.67636">
        <ele>748.7</ele>
        <time>2019-12-25T17:54:09Z</time>
      </trkpt>
      <trkpt lat="42.37148" lon="2.67647">
        <ele>748.4</ele>
        <time>2019-12-25T17:54:12Z</time>
      </trkpt>
      <trkpt lat="42.37162" lon="2.67656">
        <ele>746.6</ele>
        <time>2019-12-25T17:54:14Z</time>
      </trkpt>
      <trkpt lat="42.3717" lon="2.67665">
        <ele>747.4</ele>
        <time>2019-12-25T17:54:16Z</time>
      </trkpt>
      <trkpt lat="42.37178" lon="2.67679">
        <ele>750.6</ele>
        <time>2019-12-25T17:54:18Z</time>
      </trkpt>
      <trkpt lat="42.37181" lon="2.67693">
        <ele>752.9</ele>
        <time>2019-12-25T17:54:31Z</time>
      </trkpt>
      <trkpt lat="42.3718" lon="2.67708">
        <ele>753.3</ele>
        <time>2019-12-25T17:54:33Z</time>
      </trkpt>
      <trkpt lat="42.37175" lon="2.67727">
        <ele>751.1</ele>
        <time>2019-12-25T17:54:35Z</time>
      </trkpt>
      <trkpt lat="42.37139" lon="2.67806">
        <ele>734.7</ele>
        <time>2019-12-25T17:54:40Z</time>
      </trkpt>
      <trkpt lat="42.37133" lon="2.67821">
        <ele>734.2</ele>
        <time>2019-12-25T17:54:47Z</time>
      </trkpt>
      <trkpt lat="42.3713" lon="2.6784">
        <ele>735.2</ele>
        <time>2019-12-25T17:54:49Z</time>
      </trkpt>
      <trkpt lat="42.37132" lon="2.67874">
        <ele>735.4</ele>
        <time>2019-12-25T17:54:53Z</time>
      </trkpt>
      <trkpt lat="42.37142" lon="2.67926">
        <ele>742.2</ele>
        <time>2019-12-25T17:55:10Z</time>
      </trkpt>
      <trkpt lat="42.37144" lon="2.67943">
        <ele>741.7</ele>
        <time>2019-12-25T17:55:15Z</time>
      </trkpt>
      <trkpt lat="42.37143" lon="2.67971">
        <ele>742.6</ele>
        <time>2019-12-25T17:55:18Z</time>
      </trkpt>
      <trkpt lat="42.37122" lon="2.68101">
        <ele>741</ele>
        <time>2019-12-25T17:55:20Z</time>
      </trkpt>
      <trkpt lat="42.37118" lon="2.68135">
        <ele>739.4</ele>
        <time>2019-12-25T17:55:23Z</time>
      </trkpt>
      <trkpt lat="42.37118" lon="2.68157">
        <ele>738.4</ele>
        <time>2019-12-25T17:55:26Z</time>
      </trkpt>
      <trkpt lat="42.3712" lon="2.68176">
        <ele>735.7</ele>
        <time>2019-12-25T17:55:29Z</time>
      </trkpt>
      <trkpt lat="42.37126" lon="2.68195">
        <ele>737</ele>
        <time>2019-12-25T17:55:31Z</time>
      </trkpt>
      <trkpt lat="42.37135" lon="2.68218">
        <ele>738.2</ele>
        <time>2019-12-25T17:55:38Z</time>
      </trkpt>
      <trkpt lat="42.37141" lon="2.68237">
        <ele>740.1</ele>
        <time>2019-12-25T17:55:40Z</time>
      </trkpt>
      <trkpt lat="42.37143" lon="2.68254">
        <ele>736.3</ele>
        <time>2019-12-25T17:55:42Z</time>
      </trkpt>
      <trkpt lat="42.37144" lon="2.68301">
        <ele>730.7</ele>
        <time>2019-12-25T17:55:44Z</time>
      </trkpt>
      <trkpt lat="42.37146" lon="2.68319">
        <ele>731</ele>
        <time>2019-12-25T17:55:47Z</time>
      </trkpt>
      <trkpt lat="42.37152" lon="2.68335">
        <ele>727.5</ele>
        <time>2019-12-25T17:55:59Z</time>
      </trkpt>
      <trkpt lat="42.3716" lon="2.68347">
        <ele>727.4</ele>
        <time>2019-12-25T17:56:03Z</time>
      </trkpt>
      <trkpt lat="42.3717" lon="2.68356">
        <ele>736.2</ele>
        <time>2019-12-25T17:56:05Z</time>
      </trkpt>
      <trkpt lat="42.37233" lon="2.68396">
        <ele>734.1</ele>
        <time>2019-12-25T17:56:11Z</time>
      </trkpt>
      <trkpt lat="42.37257" lon="2.68407">
        <ele>732.2</ele>
        <time>2019-12-25T17:56:14Z</time>
      </trkpt>
      <trkpt lat="42.37268" lon="2.68407">
        <ele>733.5</ele>
        <time>2019-12-25T17:56:19Z</time>
      </trkpt>
      <trkpt lat="42.37299" lon="2.68398">
        <ele>733.9</ele>
        <time>2019-12-25T17:56:23Z</time>
      </trkpt>
      <trkpt lat="42.37316" lon="2.68389">
        <ele>733.7</ele>
        <time>2019-12-25T17:56:25Z</time>
      </trkpt>
      <trkpt lat="42.37337" lon="2.68373">
        <ele>734</ele>
        <time>2019-12-25T17:56:29Z</time>
      </trkpt>
      <trkpt lat="42.37363" lon="2.6836">
        <ele>736.4</ele>
        <time>2019-12-25T17:56:37Z</time>
      </trkpt>
      <trkpt lat="42.37373" lon="2.68361">
        <ele>735.7</ele>
        <time>2019-12-25T17:56:40Z</time>
      </trkpt>
      <trkpt lat="42.37393" lon="2.68374">
        <ele>733</ele>
        <time>2019-12-25T17:56:45Z</time>
      </trkpt>
      <trkpt lat="42.37428" lon="2.68407">
        <ele>725.5</ele>
        <time>2019-12-25T17:56:48Z</time>
      </trkpt>
      <trkpt lat="42.37442" lon="2.68415">
        <ele>728</ele>
        <time>2019-12-25T17:56:55Z</time>
      </trkpt>
      <trkpt lat="42.37473" lon="2.68421">
        <ele>710.6</ele>
        <time>2019-12-25T17:56:58Z</time>
      </trkpt>
      <trkpt lat="42.3749" lon="2.68419">
        <ele>715.3</ele>
        <time>2019-12-25T17:57:00Z</time>
      </trkpt>
      <trkpt lat="42.37529" lon="2.68407">
        <ele>736.1</ele>
        <time>2019-12-25T17:57:02Z</time>
      </trkpt>
      <trkpt lat="42.37542" lon="2.68406">
        <ele>738.1</ele>
        <time>2019-12-25T17:57:04Z</time>
      </trkpt>
      <trkpt lat="42.37554" lon="2.68409">
        <ele>738.2</ele>
        <time>2019-12-25T17:57:07Z</time>
      </trkpt>
      <trkpt lat="42.37565" lon="2.68417">
        <ele>724.5</ele>
        <time>2019-12-25T17:57:08Z</time>
      </trkpt>
      <trkpt lat="42.37574" lon="2.6843">
        <ele>724.9</ele>
        <time>2019-12-25T17:57:11Z</time>
      </trkpt>
      <trkpt lat="42.37579" lon="2.68446">
        <ele>721.2</ele>
        <time>2019-12-25T17:57:22Z</time>
      </trkpt>
      <trkpt lat="42.3758" lon="2.68459">
        <ele>718.9</ele>
        <time>2019-12-25T17:57:26Z</time>
      </trkpt>
      <trkpt lat="42.37579" lon="2.6848">
        <ele>717</ele>
        <time>2019-12-25T17:57:49Z</time>
      </trkpt>
      <trkpt lat="42.37562" lon="2.6856">
        <ele>703.9</ele>
        <time>2019-12-25T17:57:53Z</time>
      </trkpt>
      <trkpt lat="42.3756" lon="2.68592">
        <ele>700.3</ele>
        <time>2019-12-25T17:57:56Z</time>
      </trkpt>
      <trkpt lat="42.37559" lon="2.68768">
        <ele>687.7</ele>
        <time>2019-12-25T17:57:58Z</time>
      </trkpt>
      <trkpt lat="42.37562" lon="2.68798">
        <ele>684.8</ele>
        <time>2019-12-25T17:58:02Z</time>
      </trkpt>
      <trkpt lat="42.37567" lon="2.68813">
        <ele>685</ele>
        <time>2019-12-25T17:58:05Z</time>
      </trkpt>
      <trkpt lat="42.37576" lon="2.68825">
        <ele>686.7</ele>
        <time>2019-12-25T17:58:13Z</time>
      </trkpt>
      <trkpt lat="42.37597" lon="2.68834">
        <ele>680</ele>
        <time>2019-12-25T17:58:27Z</time>
      </trkpt>
      <trkpt lat="42.37613" lon="2.68829">
        <ele>689.2</ele>
        <time>2019-12-25T17:58:30Z</time>
      </trkpt>
      <trkpt lat="42.37657" lon="2.68802">
        <ele>687.8</ele>
        <time>2019-12-25T17:58:40Z</time>
      </trkpt>
      <trkpt lat="42.37725" lon="2.68744">
        <ele>692.5</ele>
        <time>2019-12-25T17:58:42Z</time>
      </trkpt>
      <trkpt lat="42.37741" lon="2.68738">
        <ele>687.5</ele>
        <time>2019-12-25T17:58:44Z</time>
      </trkpt>
      <trkpt lat="42.37795" lon="2.68735">
        <ele>670.7</ele>
        <time>2019-12-25T17:58:47Z</time>
      </trkpt>
      <trkpt lat="42.37806" lon="2.6873">
        <ele>669.1</ele>
        <time>2019-12-25T17:58:49Z</time>
      </trkpt>
      <trkpt lat="42.37816" lon="2.68721">
        <ele>668.6</ele>
        <time>2019-12-25T17:58:51Z</time>
      </trkpt>
      <trkpt lat="42.37823" lon="2.68706">
        <ele>669.5</ele>
        <time>2019-12-25T17:58:52Z</time>
      </trkpt>
      <trkpt lat="42.37826" lon="2.68692">
        <ele>669.6</ele>
        <time>2019-12-25T17:58:54Z</time>
      </trkpt>
      <trkpt lat="42.37825" lon="2.68676">
        <ele>668.5</ele>
        <time>2019-12-25T17:59:01Z</time>
      </trkpt>
      <trkpt lat="42.37822" lon="2.68663">
        <ele>670.2</ele>
        <time>2019-12-25T17:59:02Z</time>
      </trkpt>
      <trkpt lat="42.37815" lon="2.68653">
        <ele>673.2</ele>
        <time>2019-12-25T17:59:04Z</time>
      </trkpt>
      <trkpt lat="42.37787" lon="2.68622">
        <ele>678.7</ele>
        <time>2019-12-25T17:59:07Z</time>
      </trkpt>
      <trkpt lat="42.37783" lon="2.68613">
        <ele>679</ele>
        <time>2019-12-25T17:59:08Z</time>
      </trkpt>
      <trkpt lat="42.3778" lon="2.68597">
        <ele>679.4</ele>
        <time>2019-12-25T17:59:10Z</time>
      </trkpt>
      <trkpt lat="42.3778" lon="2.68578">
        <ele>682.5</ele>
        <time>2019-12-25T17:59:13Z</time>
      </trkpt>
      <trkpt lat="42.37784" lon="2.68568">
        <ele>682.3</ele>
        <time>2019-12-25T17:59:15Z</time>
      </trkpt>
      <trkpt lat="42.37791" lon="2.68555">
        <ele>682.3</ele>
        <time>2019-12-25T17:59:25Z</time>
      </trkpt>
      <trkpt lat="42.37801" lon="2.68545">
        <ele>682.2</ele>
        <time>2019-12-25T17:59:27Z</time>
      </trkpt>
      <trkpt lat="42.37815" lon="2.68541">
        <ele>681.7</ele>
        <time>2019-12-25T17:59:29Z</time>
      </trkpt>
      <trkpt lat="42.37868" lon="2.68535">
        <ele>676.8</ele>
        <time>2019-12-25T17:59:33Z</time>
      </trkpt>
      <trkpt lat="42.3788" lon="2.68538">
        <ele>676.2</ele>
        <time>2019-12-25T17:59:39Z</time>
      </trkpt>
      <trkpt lat="42.37895" lon="2.68543">
        <ele>675.1</ele>
        <time>2019-12-25T17:59:42Z</time>
      </trkpt>
      <trkpt lat="42.37911" lon="2.68553">
        <ele>671.7</ele>
        <time>2019-12-25T17:59:44Z</time>
      </trkpt>
      <trkpt lat="42.37938" lon="2.6858">
        <ele>666.8</ele>
        <time>2019-12-25T17:59:52Z</time>
      </trkpt>
      <trkpt lat="42.37953" lon="2.68591">
        <ele>653.2</ele>
        <time>2019-12-25T17:59:56Z</time>
      </trkpt>
      <trkpt lat="42.37965" lon="2.68597">
        <ele>653.4</ele>
        <time>2019-12-25T17:59:59Z</time>
      </trkpt>
      <trkpt lat="42.3801" lon="2.68608">
        <ele>658.1</ele>
        <time>2019-12-25T18:00:01Z</time>
      </trkpt>
      <trkpt lat="42.38031" lon="2.6862">
        <ele>656.8</ele>
        <time>2019-12-25T18:00:04Z</time>
      </trkpt>
      <trkpt lat="42.38042" lon="2.68633">
        <ele>655.9</ele>
        <time>2019-12-25T18:00:11Z</time>
      </trkpt>
      <trkpt lat="42.38051" lon="2.68648">
        <ele>655</ele>
        <time>2019-12-25T18:00:14Z</time>
      </trkpt>
      <trkpt lat="42.3806" lon="2.68668">
        <ele>646.6</ele>
        <time>2019-12-25T18:00:17Z</time>
      </trkpt>
      <trkpt lat="42.38074" lon="2.68714">
        <ele>643.7</ele>
        <time>2019-12-25T18:00:26Z</time>
      </trkpt>
      <trkpt lat="42.38077" lon="2.68736">
        <ele>642.8</ele>
        <time>2019-12-25T18:00:44Z</time>
      </trkpt>
      <trkpt lat="42.38079" lon="2.68759">
        <ele>640.1</ele>
        <time>2019-12-25T18:00:47Z</time>
      </trkpt>
      <trkpt lat="42.38073" lon="2.68832">
        <ele>635.9</ele>
        <time>2019-12-25T18:00:50Z</time>
      </trkpt>
      <trkpt lat="42.3806" lon="2.68968">
        <ele>632.1</ele>
        <time>2019-12-25T18:00:53Z</time>
      </trkpt>
      <trkpt lat="42.3806" lon="2.6899">
        <ele>633.2</ele>
        <time>2019-12-25T18:00:57Z</time>
      </trkpt>
      <trkpt lat="42.38064" lon="2.69009">
        <ele>632.7</ele>
        <time>2019-12-25T18:01:01Z</time>
      </trkpt>
      <trkpt lat="42.3807" lon="2.69027">
        <ele>631.5</ele>
        <time>2019-12-25T18:01:03Z</time>
      </trkpt>
      <trkpt lat="42.38087" lon="2.69052">
        <ele>636.5</ele>
        <time>2019-12-25T18:01:05Z</time>
      </trkpt>
      <trkpt lat="42.38099" lon="2.69075">
        <ele>634.6</ele>
        <time>2019-12-25T18:01:09Z</time>
      </trkpt>
      <trkpt lat="42.38104" lon="2.6909">
        <ele>631</ele>
        <time>2019-12-25T18:01:14Z</time>
      </trkpt>
      <trkpt lat="42.38107" lon="2.69109">
        <ele>630.9</ele>
        <time>2019-12-25T18:01:22Z</time>
      </trkpt>
      <trkpt lat="42.38108" lon="2.69133">
        <ele>630.4</ele>
        <time>2019-12-25T18:01:27Z</time>
      </trkpt>
      <trkpt lat="42.38106" lon="2.69173">
        <ele>629.6</ele>
        <time>2019-12-25T18:01:35Z</time>
      </trkpt>
      <trkpt lat="42.38099" lon="2.69235">
        <ele>632</ele>
        <time>2019-12-25T18:01:37Z</time>
      </trkpt>
      <trkpt lat="42.38086" lon="2.69268">
        <ele>634.7</ele>
        <time>2019-12-25T18:01:40Z</time>
      </trkpt>
      <trkpt lat="42.38061" lon="2.69318">
        <ele>626.4</ele>
        <time>2019-12-25T18:01:43Z</time>
      </trkpt>
      <trkpt lat="42.38058" lon="2.69336">
        <ele>625.6</ele>
        <time>2019-12-25T18:01:46Z</time>
      </trkpt>
      <trkpt lat="42.38059" lon="2.69353">
        <ele>624.4</ele>
        <time>2019-12-25T18:01:51Z</time>
      </trkpt>
      <trkpt lat="42.38068" lon="2.69378">
        <ele>623.5</ele>
        <time>2019-12-25T18:01:53Z</time>
      </trkpt>
      <trkpt lat="42.38079" lon="2.69395">
        <ele>624.6</ele>
        <time>2019-12-25T18:01:55Z</time>
      </trkpt>
      <trkpt lat="42.38099" lon="2.69421">
        <ele>631.2</ele>
        <time>2019-12-25T18:01:57Z</time>
      </trkpt>
      <trkpt lat="42.38103" lon="2.69434">
        <ele>631.9</ele>
        <time>2019-12-25T18:01:58Z</time>
      </trkpt>
      <trkpt lat="42.38104" lon="2.69447">
        <ele>632.2</ele>
        <time>2019-12-25T18:02:00Z</time>
      </trkpt>
      <trkpt lat="42.38103" lon="2.69462">
        <ele>632</ele>
        <time>2019-12-25T18:02:03Z</time>
      </trkpt>
      <trkpt lat="42.38098" lon="2.69473">
        <ele>631.5</ele>
        <time>2019-12-25T18:02:16Z</time>
      </trkpt>
      <trkpt lat="42.38092" lon="2.69484">
        <ele>630.6</ele>
        <time>2019-12-25T18:02:20Z</time>
      </trkpt>
      <trkpt lat="42.38081" lon="2.69493">
        <ele>625.2</ele>
        <time>2019-12-25T18:02:24Z</time>
      </trkpt>
      <trkpt lat="42.38013" lon="2.69531">
        <ele>618.8</ele>
        <time>2019-12-25T18:02:27Z</time>
      </trkpt>
      <trkpt lat="42.37993" lon="2.69545">
        <ele>605.6</ele>
        <time>2019-12-25T18:02:29Z</time>
      </trkpt>
      <trkpt lat="42.37973" lon="2.6957">
        <ele>605.9</ele>
        <time>2019-12-25T18:02:33Z</time>
      </trkpt>
      <trkpt lat="42.37968" lon="2.69584">
        <ele>607.1</ele>
        <time>2019-12-25T18:02:36Z</time>
      </trkpt>
      <trkpt lat="42.37965" lon="2.69605">
        <ele>605.6</ele>
        <time>2019-12-25T18:02:44Z</time>
      </trkpt>
      <trkpt lat="42.37965" lon="2.69631">
        <ele>604.9</ele>
        <time>2019-12-25T18:02:47Z</time>
      </trkpt>
      <trkpt lat="42.37968" lon="2.69653">
        <ele>605.8</ele>
        <time>2019-12-25T18:02:49Z</time>
      </trkpt>
      <trkpt lat="42.37992" lon="2.69707">
        <ele>601.3</ele>
        <time>2019-12-25T18:02:56Z</time>
      </trkpt>
      <trkpt lat="42.37998" lon="2.69726">
        <ele>600.1</ele>
        <time>2019-12-25T18:03:00Z</time>
      </trkpt>
      <trkpt lat="42.38" lon="2.69742">
        <ele>606.8</ele>
        <time>2019-12-25T18:03:04Z</time>
      </trkpt>
      <trkpt lat="42.37997" lon="2.69799">
        <ele>591.4</ele>
        <time>2019-12-25T18:03:14Z</time>
      </trkpt>
      <trkpt lat="42.37998" lon="2.69828">
        <ele>593.6</ele>
        <time>2019-12-25T18:03:16Z</time>
      </trkpt>
      <trkpt lat="42.38002" lon="2.69855">
        <ele>591</ele>
        <time>2019-12-25T18:03:20Z</time>
      </trkpt>
      <trkpt lat="42.38024" lon="2.69929">
        <ele>578.8</ele>
        <time>2019-12-25T18:03:22Z</time>
      </trkpt>
      <trkpt lat="42.38027" lon="2.69944">
        <ele>578.4</ele>
        <time>2019-12-25T18:03:27Z</time>
      </trkpt>
      <trkpt lat="42.38029" lon="2.69973">
        <ele>577.4</ele>
        <time>2019-12-25T18:03:37Z</time>
      </trkpt>
      <trkpt lat="42.38028" lon="2.69986">
        <ele>577.1</ele>
        <time>2019-12-25T18:03:40Z</time>
      </trkpt>
      <trkpt lat="42.3802" lon="2.70023">
        <ele>577.2</ele>
        <time>2019-12-25T18:03:43Z</time>
      </trkpt>
      <trkpt lat="42.37993" lon="2.70093">
        <ele>577.3</ele>
        <time>2019-12-25T18:03:46Z</time>
      </trkpt>
      <trkpt lat="42.3799" lon="2.70112">
        <ele>574.5</ele>
        <time>2019-12-25T18:03:49Z</time>
      </trkpt>
      <trkpt lat="42.37992" lon="2.70136">
        <ele>573.8</ele>
        <time>2019-12-25T18:05:12Z</time>
      </trkpt>
      <trkpt lat="42.37998" lon="2.70157">
        <ele>575.3</ele>
        <time>2019-12-25T18:05:15Z</time>
      </trkpt>
      <trkpt lat="42.38008" lon="2.70176">
        <ele>576.5</ele>
        <time>2019-12-25T18:05:18Z</time>
      </trkpt>
      <trkpt lat="42.38112" lon="2.7035">
        <ele>574.6</ele>
        <time>2019-12-25T18:05:21Z</time>
      </trkpt>
      <trkpt lat="42.3814" lon="2.70404">
        <ele>576</ele>
        <time>2019-12-25T18:05:28Z</time>
      </trkpt>
      <trkpt lat="42.38149" lon="2.70427">
        <ele>574.6</ele>
        <time>2019-12-25T18:05:55Z</time>
      </trkpt>
      <trkpt lat="42.38152" lon="2.70443">
        <ele>573.7</ele>
        <time>2019-12-25T18:05:58Z</time>
      </trkpt>
      <trkpt lat="42.38152" lon="2.70469">
        <ele>573.5</ele>
        <time>2019-12-25T18:06:03Z</time>
      </trkpt>
      <trkpt lat="42.38149" lon="2.70488">
        <ele>574.7</ele>
        <time>2019-12-25T18:06:06Z</time>
      </trkpt>
      <trkpt lat="42.38141" lon="2.70511">
        <ele>575.9</ele>
        <time>2019-12-25T18:06:08Z</time>
      </trkpt>
      <trkpt lat="42.38118" lon="2.70553">
        <ele>573.7</ele>
        <time>2019-12-25T18:06:11Z</time>
      </trkpt>
      <trkpt lat="42.38018" lon="2.70702">
        <ele>559.6</ele>
        <time>2019-12-25T18:06:17Z</time>
      </trkpt>
      <trkpt lat="42.38005" lon="2.70726">
        <ele>559.1</ele>
        <time>2019-12-25T18:06:22Z</time>
      </trkpt>
      <trkpt lat="42.37994" lon="2.70757">
        <ele>550.8</ele>
        <time>2019-12-25T18:06:26Z</time>
      </trkpt>
      <trkpt lat="42.37991" lon="2.70776">
        <ele>546.2</ele>
        <time>2019-12-25T18:06:30Z</time>
      </trkpt>
      <trkpt lat="42.37991" lon="2.70798">
        <ele>544.1</ele>
        <time>2019-12-25T18:06:35Z</time>
      </trkpt>
      <trkpt lat="42.37993" lon="2.7082">
        <ele>543.8</ele>
        <time>2019-12-25T18:06:39Z</time>
      </trkpt>
      <trkpt lat="42.38005" lon="2.70861">
        <ele>545.5</ele>
        <time>2019-12-25T18:06:42Z</time>
      </trkpt>
      <trkpt lat="42.38019" lon="2.70895">
        <ele>542.6</ele>
        <time>2019-12-25T18:06:47Z</time>
      </trkpt>
      <trkpt lat="42.38033" lon="2.70919">
        <ele>538.5</ele>
        <time>2019-12-25T18:06:51Z</time>
      </trkpt>
      <trkpt lat="42.38048" lon="2.70939">
        <ele>540.7</ele>
        <time>2019-12-25T18:06:55Z</time>
      </trkpt>
      <trkpt lat="42.38069" lon="2.7096">
        <ele>542</ele>
        <time>2019-12-25T18:06:58Z</time>
      </trkpt>
      <trkpt lat="42.38089" lon="2.70975">
        <ele>546.2</ele>
        <time>2019-12-25T18:07:03Z</time>
      </trkpt>
      <trkpt lat="42.38107" lon="2.70985">
        <ele>545.4</ele>
        <time>2019-12-25T18:07:07Z</time>
      </trkpt>
      <trkpt lat="42.38134" lon="2.70995">
        <ele>542.8</ele>
        <time>2019-12-25T18:07:11Z</time>
      </trkpt>
      <trkpt lat="42.38155" lon="2.70998">
        <ele>538.6</ele>
        <time>2019-12-25T18:07:17Z</time>
      </trkpt>
      <trkpt lat="42.38175" lon="2.70999">
        <ele>534.8</ele>
        <time>2019-12-25T18:07:31Z</time>
      </trkpt>
      <trkpt lat="42.38197" lon="2.70996">
        <ele>535</ele>
        <time>2019-12-25T18:07:38Z</time>
      </trkpt>
      <trkpt lat="42.38223" lon="2.70987">
        <ele>533.1</ele>
        <time>2019-12-25T18:07:43Z</time>
      </trkpt>
      <trkpt lat="42.38244" lon="2.70976">
        <ele>532.3</ele>
        <time>2019-12-25T18:07:52Z</time>
      </trkpt>
      <trkpt lat="42.38263" lon="2.70962">
        <ele>525.9</ele>
        <time>2019-12-25T18:07:54Z</time>
      </trkpt>
      <trkpt lat="42.38291" lon="2.70932">
        <ele>525.5</ele>
        <time>2019-12-25T18:07:57Z</time>
      </trkpt>
      <trkpt lat="42.38342" lon="2.70855">
        <ele>518.1</ele>
        <time>2019-12-25T18:07:59Z</time>
      </trkpt>
      <trkpt lat="42.38371" lon="2.70819">
        <ele>521.1</ele>
        <time>2019-12-25T18:08:11Z</time>
      </trkpt>
      <trkpt lat="42.38397" lon="2.70798">
        <ele>519</ele>
        <time>2019-12-25T18:08:14Z</time>
      </trkpt>
      <trkpt lat="42.38438" lon="2.7077">
        <ele>504.4</ele>
        <time>2019-12-25T18:08:16Z</time>
      </trkpt>
      <trkpt lat="42.3845" lon="2.70756">
        <ele>502.8</ele>
        <time>2019-12-25T18:08:19Z</time>
      </trkpt>
      <trkpt lat="42.38458" lon="2.70743">
        <ele>503.9</ele>
        <time>2019-12-25T18:08:21Z</time>
      </trkpt>
      <trkpt lat="42.38464" lon="2.70727">
        <ele>502.7</ele>
        <time>2019-12-25T18:08:25Z</time>
      </trkpt>
      <trkpt lat="42.38484" lon="2.7064">
        <ele>501.3</ele>
        <time>2019-12-25T18:08:27Z</time>
      </trkpt>
      <trkpt lat="42.38492" lon="2.70623">
        <ele>502</ele>
        <time>2019-12-25T18:08:29Z</time>
      </trkpt>
      <trkpt lat="42.38501" lon="2.70609">
        <ele>486.7</ele>
        <time>2019-12-25T18:08:31Z</time>
      </trkpt>
      <trkpt lat="42.38515" lon="2.70596">
        <ele>487.3</ele>
        <time>2019-12-25T18:08:34Z</time>
      </trkpt>
      <trkpt lat="42.38524" lon="2.7059">
        <ele>486</ele>
        <time>2019-12-25T18:08:36Z</time>
      </trkpt>
      <trkpt lat="42.38546" lon="2.70584">
        <ele>482.2</ele>
        <time>2019-12-25T18:08:39Z</time>
      </trkpt>
      <trkpt lat="42.3856" lon="2.70584">
        <ele>480</ele>
        <time>2019-12-25T18:08:44Z</time>
      </trkpt>
      <trkpt lat="42.38571" lon="2.70586">
        <ele>478</ele>
        <time>2019-12-25T18:08:48Z</time>
      </trkpt>
      <trkpt lat="42.38582" lon="2.70593">
        <ele>477.2</ele>
        <time>2019-12-25T18:09:28Z</time>
      </trkpt>
      <trkpt lat="42.38594" lon="2.70603">
        <ele>478.2</ele>
        <time>2019-12-25T18:09:35Z</time>
      </trkpt>
      <trkpt lat="42.38604" lon="2.70615">
        <ele>479.2</ele>
        <time>2019-12-25T18:09:38Z</time>
      </trkpt>
      <trkpt lat="42.38613" lon="2.70632">
        <ele>479.7</ele>
        <time>2019-12-25T18:09:41Z</time>
      </trkpt>
      <trkpt lat="42.38621" lon="2.70668">
        <ele>476.1</ele>
        <time>2019-12-25T18:09:44Z</time>
      </trkpt>
      <trkpt lat="42.38623" lon="2.70696">
        <ele>475.3</ele>
        <time>2019-12-25T18:09:48Z</time>
      </trkpt>
      <trkpt lat="42.38625" lon="2.71002">
        <ele>480.5</ele>
        <time>2019-12-25T18:09:54Z</time>
      </trkpt>
      <trkpt lat="42.3862" lon="2.71053">
        <ele>481.5</ele>
        <time>2019-12-25T18:10:08Z</time>
      </trkpt>
      <trkpt lat="42.38615" lon="2.71076">
        <ele>480.5</ele>
        <time>2019-12-25T18:10:13Z</time>
      </trkpt>
      <trkpt lat="42.38609" lon="2.71098">
        <ele>487.7</ele>
        <time>2019-12-25T18:10:16Z</time>
      </trkpt>
      <trkpt lat="42.38601" lon="2.71121">
        <ele>490.2</ele>
        <time>2019-12-25T18:10:19Z</time>
      </trkpt>
      <trkpt lat="42.38588" lon="2.71147">
        <ele>490.9</ele>
        <time>2019-12-25T18:10:23Z</time>
      </trkpt>
      <trkpt lat="42.38568" lon="2.71178">
        <ele>485.5</ele>
        <time>2019-12-25T18:10:30Z</time>
      </trkpt>
      <trkpt lat="42.38507" lon="2.71243">
        <ele>480.6</ele>
        <time>2019-12-25T18:10:47Z</time>
      </trkpt>
      <trkpt lat="42.38487" lon="2.71272">
        <ele>475.3</ele>
        <time>2019-12-25T18:10:52Z</time>
      </trkpt>
      <trkpt lat="42.38479" lon="2.71292">
        <ele>475.5</ele>
        <time>2019-12-25T18:10:56Z</time>
      </trkpt>
      <trkpt lat="42.38473" lon="2.71316">
        <ele>477.5</ele>
        <time>2019-12-25T18:10:59Z</time>
      </trkpt>
      <trkpt lat="42.38472" lon="2.71343">
        <ele>483.9</ele>
        <time>2019-12-25T18:11:04Z</time>
      </trkpt>
      <trkpt lat="42.38474" lon="2.71399">
        <ele>484.4</ele>
        <time>2019-12-25T18:11:09Z</time>
      </trkpt>
      <trkpt lat="42.38487" lon="2.7153">
        <ele>475.3</ele>
        <time>2019-12-25T18:11:16Z</time>
      </trkpt>
      <trkpt lat="42.38493" lon="2.7156">
        <ele>473.6</ele>
        <time>2019-12-25T18:11:21Z</time>
      </trkpt>
      <trkpt lat="42.38502" lon="2.71589">
        <ele>471.9</ele>
        <time>2019-12-25T18:11:24Z</time>
      </trkpt>
      <trkpt lat="42.38513" lon="2.71612">
        <ele>469.2</ele>
        <time>2019-12-25T18:11:27Z</time>
      </trkpt>
      <trkpt lat="42.38529" lon="2.71636">
        <ele>467.8</ele>
        <time>2019-12-25T18:11:30Z</time>
      </trkpt>
      <trkpt lat="42.3855" lon="2.71661">
        <ele>466.7</ele>
        <time>2019-12-25T18:11:32Z</time>
      </trkpt>
      <trkpt lat="42.38583" lon="2.71693">
        <ele>462.2</ele>
        <time>2019-12-25T18:11:35Z</time>
      </trkpt>
      <trkpt lat="42.38604" lon="2.71717">
        <ele>464.3</ele>
        <time>2019-12-25T18:11:47Z</time>
      </trkpt>
      <trkpt lat="42.38618" lon="2.71738">
        <ele>464.5</ele>
        <time>2019-12-25T18:11:50Z</time>
      </trkpt>
      <trkpt lat="42.38626" lon="2.71758">
        <ele>462.6</ele>
        <time>2019-12-25T18:11:57Z</time>
      </trkpt>
      <trkpt lat="42.38631" lon="2.71776">
        <ele>462.7</ele>
        <time>2019-12-25T18:11:59Z</time>
      </trkpt>
      <trkpt lat="42.38634" lon="2.7179">
        <ele>462.5</ele>
        <time>2019-12-25T18:12:01Z</time>
      </trkpt>
      <trkpt lat="42.38634" lon="2.71814">
        <ele>462</ele>
        <time>2019-12-25T18:12:03Z</time>
      </trkpt>
      <trkpt lat="42.38627" lon="2.71907">
        <ele>457.1</ele>
        <time>2019-12-25T18:12:07Z</time>
      </trkpt>
      <trkpt lat="42.38629" lon="2.71931">
        <ele>453.7</ele>
        <time>2019-12-25T18:12:09Z</time>
      </trkpt>
      <trkpt lat="42.38643" lon="2.71975">
        <ele>453.3</ele>
        <time>2019-12-25T18:12:40Z</time>
      </trkpt>
      <trkpt lat="42.38647" lon="2.71994">
        <ele>453.6</ele>
        <time>2019-12-25T18:12:46Z</time>
      </trkpt>
      <trkpt lat="42.38646" lon="2.72009">
        <ele>454.9</ele>
        <time>2019-12-25T18:12:53Z</time>
      </trkpt>
      <trkpt lat="42.38643" lon="2.72024">
        <ele>455.2</ele>
        <time>2019-12-25T18:13:10Z</time>
      </trkpt>
      <trkpt lat="42.38632" lon="2.72045">
        <ele>455.6</ele>
        <time>2019-12-25T18:13:15Z</time>
      </trkpt>
      <trkpt lat="42.38622" lon="2.72057">
        <ele>455.4</ele>
        <time>2019-12-25T18:13:20Z</time>
      </trkpt>
      <trkpt lat="42.38472" lon="2.72179">
        <ele>456.8</ele>
        <time>2019-12-25T18:13:27Z</time>
      </trkpt>
      <trkpt lat="42.38442" lon="2.72199">
        <ele>456.6</ele>
        <time>2019-12-25T18:13:33Z</time>
      </trkpt>
      <trkpt lat="42.38407" lon="2.72218">
        <ele>453.6</ele>
        <time>2019-12-25T18:13:41Z</time>
      </trkpt>
      <trkpt lat="42.38315" lon="2.72262">
        <ele>460.5</ele>
        <time>2019-12-25T18:13:45Z</time>
      </trkpt>
      <trkpt lat="42.38289" lon="2.72281">
        <ele>460.4</ele>
        <time>2019-12-25T18:13:49Z</time>
      </trkpt>
      <trkpt lat="42.38268" lon="2.72301">
        <ele>461.8</ele>
        <time>2019-12-25T18:13:54Z</time>
      </trkpt>
      <trkpt lat="42.38239" lon="2.72338">
        <ele>466.8</ele>
        <time>2019-12-25T18:14:01Z</time>
      </trkpt>
      <trkpt lat="42.38215" lon="2.72373">
        <ele>467.2</ele>
        <time>2019-12-25T18:14:06Z</time>
      </trkpt>
      <trkpt lat="42.38186" lon="2.7242">
        <ele>472</ele>
        <time>2019-12-25T18:14:10Z</time>
      </trkpt>
      <trkpt lat="42.38174" lon="2.72444">
        <ele>472.7</ele>
        <time>2019-12-25T18:14:12Z</time>
      </trkpt>
      <trkpt lat="42.38166" lon="2.72472">
        <ele>460.7</ele>
        <time>2019-12-25T18:14:17Z</time>
      </trkpt>
      <trkpt lat="42.38157" lon="2.72509">
        <ele>463.3</ele>
        <time>2019-12-25T18:14:20Z</time>
      </trkpt>
      <trkpt lat="42.38148" lon="2.72559">
        <ele>460</ele>
        <time>2019-12-25T18:14:23Z</time>
      </trkpt>
      <trkpt lat="42.38144" lon="2.72598">
        <ele>458.8</ele>
        <time>2019-12-25T18:14:39Z</time>
      </trkpt>
      <trkpt lat="42.38142" lon="2.72627">
        <ele>456.7</ele>
        <time>2019-12-25T18:14:43Z</time>
      </trkpt>
      <trkpt lat="42.38142" lon="2.72645">
        <ele>456.9</ele>
        <time>2019-12-25T18:14:47Z</time>
      </trkpt>
      <trkpt lat="42.38151" lon="2.7268">
        <ele>457.2</ele>
        <time>2019-12-25T18:14:49Z</time>
      </trkpt>
      <trkpt lat="42.38159" lon="2.72696">
        <ele>455.9</ele>
        <time>2019-12-25T18:14:55Z</time>
      </trkpt>
      <trkpt lat="42.3817" lon="2.7271">
        <ele>464.5</ele>
        <time>2019-12-25T18:14:57Z</time>
      </trkpt>
      <trkpt lat="42.38247" lon="2.72779">
        <ele>456.2</ele>
        <time>2019-12-25T18:15:00Z</time>
      </trkpt>
      <trkpt lat="42.38266" lon="2.72801">
        <ele>460.3</ele>
        <time>2019-12-25T18:15:05Z</time>
      </trkpt>
      <trkpt lat="42.38276" lon="2.72823">
        <ele>458.6</ele>
        <time>2019-12-25T18:15:08Z</time>
      </trkpt>
      <trkpt lat="42.3828" lon="2.72837">
        <ele>453.3</ele>
        <time>2019-12-25T18:15:31Z</time>
      </trkpt>
      <trkpt lat="42.38285" lon="2.7288">
        <ele>453.7</ele>
        <time>2019-12-25T18:15:35Z</time>
      </trkpt>
      <trkpt lat="42.38284" lon="2.72895">
        <ele>453.4</ele>
        <time>2019-12-25T18:15:37Z</time>
      </trkpt>
      <trkpt lat="42.38274" lon="2.72922">
        <ele>454.9</ele>
        <time>2019-12-25T18:15:40Z</time>
      </trkpt>
      <trkpt lat="42.38254" lon="2.72948">
        <ele>456.2</ele>
        <time>2019-12-25T18:15:43Z</time>
      </trkpt>
      <trkpt lat="42.38241" lon="2.72959">
        <ele>451.6</ele>
        <time>2019-12-25T18:15:46Z</time>
      </trkpt>
      <trkpt lat="42.38124" lon="2.73036">
        <ele>457.9</ele>
        <time>2019-12-25T18:15:49Z</time>
      </trkpt>
      <trkpt lat="42.38106" lon="2.73049">
        <ele>458.4</ele>
        <time>2019-12-25T18:15:52Z</time>
      </trkpt>
      <trkpt lat="42.38095" lon="2.7306">
        <ele>459</ele>
        <time>2019-12-25T18:15:54Z</time>
      </trkpt>
      <trkpt lat="42.38084" lon="2.73074">
        <ele>460.1</ele>
        <time>2019-12-25T18:15:59Z</time>
      </trkpt>
      <trkpt lat="42.38078" lon="2.73092">
        <ele>459.7</ele>
        <time>2019-12-25T18:16:02Z</time>
      </trkpt>
      <trkpt lat="42.38072" lon="2.73114">
        <ele>458.4</ele>
        <time>2019-12-25T18:16:14Z</time>
      </trkpt>
      <trkpt lat="42.38072" lon="2.73137">
        <ele>458</ele>
        <time>2019-12-25T18:16:23Z</time>
      </trkpt>
      <trkpt lat="42.38074" lon="2.73158">
        <ele>458.3</ele>
        <time>2019-12-25T18:16:26Z</time>
      </trkpt>
      <trkpt lat="42.38078" lon="2.73176">
        <ele>456.5</ele>
        <time>2019-12-25T18:16:32Z</time>
      </trkpt>
      <trkpt lat="42.38094" lon="2.73205">
        <ele>459.2</ele>
        <time>2019-12-25T18:16:39Z</time>
      </trkpt>
      <trkpt lat="42.38107" lon="2.73219">
        <ele>459.1</ele>
        <time>2019-12-25T18:16:42Z</time>
      </trkpt>
      <trkpt lat="42.38164" lon="2.7327">
        <ele>454.7</ele>
        <time>2019-12-25T18:16:45Z</time>
      </trkpt>
      <trkpt lat="42.38208" lon="2.73304">
        <ele>456.3</ele>
        <time>2019-12-25T18:16:48Z</time>
      </trkpt>
      <trkpt lat="42.38226" lon="2.73312">
        <ele>456.2</ele>
        <time>2019-12-25T18:16:54Z</time>
      </trkpt>
      <trkpt lat="42.38257" lon="2.73315">
        <ele>453.9</ele>
        <time>2019-12-25T18:17:02Z</time>
      </trkpt>
      <trkpt lat="42.38296" lon="2.73307">
        <ele>451.9</ele>
        <time>2019-12-25T18:17:05Z</time>
      </trkpt>
      <trkpt lat="42.38313" lon="2.73298">
        <ele>451.4</ele>
        <time>2019-12-25T18:17:08Z</time>
      </trkpt>
      <trkpt lat="42.38327" lon="2.73288">
        <ele>452.2</ele>
        <time>2019-12-25T18:17:11Z</time>
      </trkpt>
      <trkpt lat="42.38342" lon="2.7327">
        <ele>445.7</ele>
        <time>2019-12-25T18:17:13Z</time>
      </trkpt>
      <trkpt lat="42.38364" lon="2.73238">
        <ele>451</ele>
        <time>2019-12-25T18:17:16Z</time>
      </trkpt>
      <trkpt lat="42.38394" lon="2.7319">
        <ele>449.2</ele>
        <time>2019-12-25T18:17:19Z</time>
      </trkpt>
      <trkpt lat="42.38405" lon="2.73178">
        <ele>448.1</ele>
        <time>2019-12-25T18:17:22Z</time>
      </trkpt>
      <trkpt lat="42.3842" lon="2.73167">
        <ele>444.8</ele>
        <time>2019-12-25T18:17:26Z</time>
      </trkpt>
      <trkpt lat="42.38434" lon="2.7316">
        <ele>448.5</ele>
        <time>2019-12-25T18:17:28Z</time>
      </trkpt>
      <trkpt lat="42.38448" lon="2.73156">
        <ele>449</ele>
        <time>2019-12-25T18:17:30Z</time>
      </trkpt>
      <trkpt lat="42.38462" lon="2.73157">
        <ele>448.3</ele>
        <time>2019-12-25T18:17:34Z</time>
      </trkpt>
      <trkpt lat="42.38479" lon="2.73161">
        <ele>446</ele>
        <time>2019-12-25T18:17:37Z</time>
      </trkpt>
      <trkpt lat="42.38498" lon="2.73172">
        <ele>438.4</ele>
        <time>2019-12-25T18:17:40Z</time>
      </trkpt>
      <trkpt lat="42.38513" lon="2.73189">
        <ele>436.3</ele>
        <time>2019-12-25T18:17:43Z</time>
      </trkpt>
      <trkpt lat="42.38519" lon="2.73198">
        <ele>435.5</ele>
        <time>2019-12-25T18:17:54Z</time>
      </trkpt>
      <trkpt lat="42.38525" lon="2.73212">
        <ele>434.2</ele>
        <time>2019-12-25T18:17:59Z</time>
      </trkpt>
      <trkpt lat="42.38535" lon="2.73244">
        <ele>432.1</ele>
        <time>2019-12-25T18:18:05Z</time>
      </trkpt>
      <trkpt lat="42.38535" lon="2.73267">
        <ele>426.6</ele>
        <time>2019-12-25T18:18:09Z</time>
      </trkpt>
      <trkpt lat="42.38534" lon="2.73288">
        <ele>426.4</ele>
        <time>2019-12-25T18:18:19Z</time>
      </trkpt>
      <trkpt lat="42.38528" lon="2.73312">
        <ele>425.5</ele>
        <time>2019-12-25T18:18:43Z</time>
      </trkpt>
      <trkpt lat="42.38498" lon="2.73382">
        <ele>422.6</ele>
        <time>2019-12-25T18:18:49Z</time>
      </trkpt>
      <trkpt lat="42.38486" lon="2.73417">
        <ele>426.2</ele>
        <time>2019-12-25T18:18:56Z</time>
      </trkpt>
      <trkpt lat="42.38479" lon="2.73458">
        <ele>425.9</ele>
        <time>2019-12-25T18:19:02Z</time>
      </trkpt>
      <trkpt lat="42.38479" lon="2.73495">
        <ele>428.7</ele>
        <time>2019-12-25T18:19:14Z</time>
      </trkpt>
      <trkpt lat="42.38486" lon="2.73565">
        <ele>435.2</ele>
        <time>2019-12-25T18:19:18Z</time>
      </trkpt>
      <trkpt lat="42.38511" lon="2.73746">
        <ele>442.2</ele>
        <time>2019-12-25T18:19:22Z</time>
      </trkpt>
      <trkpt lat="42.38524" lon="2.73792">
        <ele>442.1</ele>
        <time>2019-12-25T18:19:25Z</time>
      </trkpt>
      <trkpt lat="42.38543" lon="2.73837">
        <ele>441.4</ele>
        <time>2019-12-25T18:19:28Z</time>
      </trkpt>
      <trkpt lat="42.38562" lon="2.73874">
        <ele>440.7</ele>
        <time>2019-12-25T18:19:31Z</time>
      </trkpt>
      <trkpt lat="42.38602" lon="2.73946">
        <ele>439.9</ele>
        <time>2019-12-25T18:19:35Z</time>
      </trkpt>
      <trkpt lat="42.38614" lon="2.73976">
        <ele>439.5</ele>
        <time>2019-12-25T18:20:01Z</time>
      </trkpt>
      <trkpt lat="42.3862" lon="2.74002">
        <ele>436.8</ele>
        <time>2019-12-25T18:20:14Z</time>
      </trkpt>
      <trkpt lat="42.38624" lon="2.74026">
        <ele>436.8</ele>
        <time>2019-12-25T18:20:19Z</time>
      </trkpt>
      <trkpt lat="42.38624" lon="2.74049">
        <ele>436.2</ele>
        <time>2019-12-25T18:20:23Z</time>
      </trkpt>
      <trkpt lat="42.38621" lon="2.74068">
        <ele>435.5</ele>
        <time>2019-12-25T18:20:25Z</time>
      </trkpt>
      <trkpt lat="42.38615" lon="2.74102">
        <ele>431.7</ele>
        <time>2019-12-25T18:20:26Z</time>
      </trkpt>
      <trkpt lat="42.38569" lon="2.74283">
        <ele>414.6</ele>
        <time>2019-12-25T18:20:28Z</time>
      </trkpt>
      <trkpt lat="42.38647" lon="2.74276">
        <ele>416.9</ele>
        <time>2019-12-25T18:20:34Z</time>
      </trkpt>
      <trkpt lat="42.3867" lon="2.74276">
        <ele>419.5</ele>
        <time>2019-12-25T18:20:36Z</time>
      </trkpt>
      <trkpt lat="42.38675" lon="2.74309">
        <ele>416.7</ele>
        <time>2019-12-25T18:20:43Z</time>
      </trkpt>
      <trkpt lat="42.38675" lon="2.74322">
        <ele>414.8</ele>
        <time>2019-12-25T18:20:58Z</time>
      </trkpt>
      <trkpt lat="42.38672" lon="2.74334">
        <ele>411.1</ele>
        <time>2019-12-25T18:21:02Z</time>
      </trkpt>
      <trkpt lat="42.38663" lon="2.74344">
        <ele>409.8</ele>
        <time>2019-12-25T18:21:04Z</time>
      </trkpt>
      <trkpt lat="42.38636" lon="2.74364">
        <ele>408.1</ele>
        <time>2019-12-25T18:21:13Z</time>
      </trkpt>
      <trkpt lat="42.38631" lon="2.74381">
        <ele>407.2</ele>
        <time>2019-12-25T18:21:15Z</time>
      </trkpt>
      <trkpt lat="42.38602" lon="2.74413">
        <ele>404.8</ele>
        <time>2019-12-25T18:21:17Z</time>
      </trkpt>
      <trkpt lat="42.38527" lon="2.74469">
        <ele>396</ele>
        <time>2019-12-25T18:21:20Z</time>
      </trkpt>
      <trkpt lat="42.38542" lon="2.74493">
        <ele>394.4</ele>
        <time>2019-12-25T18:21:22Z</time>
      </trkpt>
      <trkpt lat="42.38552" lon="2.74496">
        <ele>393.9</ele>
        <time>2019-12-25T18:21:24Z</time>
      </trkpt>
      <trkpt lat="42.38603" lon="2.74493">
        <ele>393</ele>
        <time>2019-12-25T18:21:27Z</time>
      </trkpt>
      <trkpt lat="42.38612" lon="2.745">
        <ele>386.5</ele>
        <time>2019-12-25T18:21:29Z</time>
      </trkpt>
      <trkpt lat="42.38617" lon="2.74512">
        <ele>386</ele>
        <time>2019-12-25T18:21:34Z</time>
      </trkpt>
      <trkpt lat="42.38619" lon="2.74532">
        <ele>384.8</ele>
        <time>2019-12-25T18:21:36Z</time>
      </trkpt>
      <trkpt lat="42.38607" lon="2.74545">
        <ele>383.7</ele>
        <time>2019-12-25T18:21:40Z</time>
      </trkpt>
      <trkpt lat="42.38603" lon="2.74555">
        <ele>382.7</ele>
        <time>2019-12-25T18:21:42Z</time>
      </trkpt>
      <trkpt lat="42.38604" lon="2.74583">
        <ele>380.8</ele>
        <time>2019-12-25T18:21:48Z</time>
      </trkpt>
      <trkpt lat="42.38598" lon="2.74593">
        <ele>375.2</ele>
        <time>2019-12-25T18:21:53Z</time>
      </trkpt>
      <trkpt lat="42.38573" lon="2.74613">
        <ele>373.8</ele>
        <time>2019-12-25T18:21:58Z</time>
      </trkpt>
      <trkpt lat="42.38567" lon="2.74626">
        <ele>372.7</ele>
        <time>2019-12-25T18:22:04Z</time>
      </trkpt>
      <trkpt lat="42.38559" lon="2.74649">
        <ele>371.1</ele>
        <time>2019-12-25T18:22:07Z</time>
      </trkpt>
      <trkpt lat="42.38547" lon="2.74659">
        <ele>371.4</ele>
        <time>2019-12-25T18:22:12Z</time>
      </trkpt>
      <trkpt lat="42.3857" lon="2.74692">
        <ele>365.2</ele>
        <time>2019-12-25T18:22:17Z</time>
      </trkpt>
      <trkpt lat="42.38556" lon="2.74725">
        <ele>364.5</ele>
        <time>2019-12-25T18:22:19Z</time>
      </trkpt>
      <trkpt lat="42.38539" lon="2.7475">
        <ele>362.6</ele>
        <time>2019-12-25T18:22:20Z</time>
      </trkpt>
      <trkpt lat="42.38516" lon="2.74789">
        <ele>362</ele>
        <time>2019-12-25T18:22:22Z</time>
      </trkpt>
      <trkpt lat="42.38512" lon="2.74813">
        <ele>360.8</ele>
        <time>2019-12-25T18:22:26Z</time>
      </trkpt>
      <trkpt lat="42.38501" lon="2.74843">
        <ele>359.1</ele>
        <time>2019-12-25T18:22:29Z</time>
      </trkpt>
      <trkpt lat="42.38523" lon="2.74871">
        <ele>360.8</ele>
        <time>2019-12-25T18:22:32Z</time>
      </trkpt>
      <trkpt lat="42.38534" lon="2.74876">
        <ele>361.2</ele>
        <time>2019-12-25T18:22:34Z</time>
      </trkpt>
      <trkpt lat="42.3854" lon="2.74873">
        <ele>361.4</ele>
        <time>2019-12-25T18:22:40Z</time>
      </trkpt>
      <trkpt lat="42.38547" lon="2.74878">
        <ele>361.7</ele>
        <time>2019-12-25T18:22:47Z</time>
      </trkpt>
      <trkpt lat="42.38536" lon="2.74908">
        <ele>361</ele>
        <time>2019-12-25T18:23:21Z</time>
      </trkpt>
      <trkpt lat="42.38526" lon="2.74928">
        <ele>359.6</ele>
        <time>2019-12-25T18:23:25Z</time>
      </trkpt>
      <trkpt lat="42.38536" lon="2.74941">
        <ele>360</ele>
        <time>2019-12-25T18:23:27Z</time>
      </trkpt>
      <trkpt lat="42.38548" lon="2.74931">
        <ele>360.6</ele>
        <time>2019-12-25T18:23:30Z</time>
      </trkpt>
      <trkpt lat="42.38566" lon="2.74964">
        <ele>360.7</ele>
        <time>2019-12-25T18:23:32Z</time>
      </trkpt>
      <trkpt lat="42.38588" lon="2.75014">
        <ele>362</ele>
        <time>2019-12-25T18:23:50Z</time>
      </trkpt>
      <trkpt lat="42.38607" lon="2.75061">
        <ele>361.2</ele>
        <time>2019-12-25T18:23:55Z</time>
      </trkpt>
      <trkpt lat="42.38637" lon="2.75077">
        <ele>362.1</ele>
        <time>2019-12-25T18:23:57Z</time>
      </trkpt>
      <trkpt lat="42.38624" lon="2.75106">
        <ele>359.1</ele>
        <time>2019-12-25T18:24:01Z</time>
      </trkpt>
      <trkpt lat="42.38618" lon="2.75115">
        <ele>358.8</ele>
        <time>2019-12-25T18:24:04Z</time>
      </trkpt>
      <trkpt lat="42.38615" lon="2.7513">
        <ele>358.4</ele>
        <time>2019-12-25T18:24:22Z</time>
      </trkpt>
      <trkpt lat="42.38602" lon="2.75143">
        <ele>357.6</ele>
        <time>2019-12-25T18:24:25Z</time>
      </trkpt>
      <trkpt lat="42.38596" lon="2.75147">
        <ele>357.2</ele>
        <time>2019-12-25T18:25:11Z</time>
      </trkpt>
      <trkpt lat="42.38578" lon="2.75159">
        <ele>355.1</ele>
        <time>2019-12-25T18:25:14Z</time>
      </trkpt>
      <trkpt lat="42.38588" lon="2.75173">
        <ele>355.6</ele>
        <time>2019-12-25T18:25:18Z</time>
      </trkpt>
      <trkpt lat="42.38594" lon="2.75189">
        <ele>356.3</ele>
        <time>2019-12-25T18:25:21Z</time>
      </trkpt>
      <trkpt lat="42.38593" lon="2.75205">
        <ele>356.5</ele>
        <time>2019-12-25T18:25:24Z</time>
      </trkpt>
      <trkpt lat="42.38545" lon="2.75325">
        <ele>351</ele>
        <time>2019-12-25T18:25:28Z</time>
      </trkpt>
      <trkpt lat="42.3854" lon="2.75362">
        <ele>348</ele>
        <time>2019-12-25T18:25:32Z</time>
      </trkpt>
      <trkpt lat="42.38554" lon="2.75366">
        <ele>348.4</ele>
        <time>2019-12-25T18:25:36Z</time>
      </trkpt>
      <trkpt lat="42.38572" lon="2.75375">
        <ele>348.6</ele>
        <time>2019-12-25T18:25:39Z</time>
      </trkpt>
      <trkpt lat="42.38584" lon="2.75396">
        <ele>350.2</ele>
        <time>2019-12-25T18:25:57Z</time>
      </trkpt>
      <trkpt lat="42.38618" lon="2.75525">
        <ele>349.9</ele>
        <time>2019-12-25T18:26:01Z</time>
      </trkpt>
      <trkpt lat="42.38623" lon="2.7555">
        <ele>350.2</ele>
        <time>2019-12-25T18:26:02Z</time>
      </trkpt>
      <trkpt lat="42.38712" lon="2.75877">
        <ele>352.8</ele>
        <time>2019-12-25T18:26:03Z</time>
      </trkpt>
      <trkpt lat="42.38722" lon="2.75897">
        <ele>353.1</ele>
        <time>2019-12-25T18:26:14Z</time>
      </trkpt>
      <trkpt lat="42.38737" lon="2.75911">
        <ele>353.9</ele>
        <time>2019-12-25T18:26:21Z</time>
      </trkpt>
      <trkpt lat="42.38753" lon="2.75921">
        <ele>355.1</ele>
        <time>2019-12-25T18:26:35Z</time>
      </trkpt>
      <trkpt lat="42.38768" lon="2.75932">
        <ele>355.4</ele>
        <time>2019-12-25T18:26:40Z</time>
      </trkpt>
      <trkpt lat="42.38781" lon="2.75958">
        <ele>355.2</ele>
        <time>2019-12-25T18:26:42Z</time>
      </trkpt>
      <trkpt lat="42.38787" lon="2.75989">
        <ele>354.5</ele>
        <time>2019-12-25T18:26:44Z</time>
      </trkpt>
      <trkpt lat="42.38786" lon="2.76015">
        <ele>353.4</ele>
        <time>2019-12-25T18:26:46Z</time>
      </trkpt>
      <trkpt lat="42.3878" lon="2.76038">
        <ele>353.6</ele>
        <time>2019-12-25T18:26:49Z</time>
      </trkpt>
      <trkpt lat="42.38742" lon="2.76167">
        <ele>354.8</ele>
        <time>2019-12-25T18:26:59Z</time>
      </trkpt>
      <trkpt lat="42.3874" lon="2.76193">
        <ele>353.4</ele>
        <time>2019-12-25T18:27:02Z</time>
      </trkpt>
      <trkpt lat="42.38741" lon="2.76202">
        <ele>353.1</ele>
        <time>2019-12-25T18:27:05Z</time>
      </trkpt>
      <trkpt lat="42.38745" lon="2.76212">
        <ele>353</ele>
        <time>2019-12-25T18:27:07Z</time>
      </trkpt>
      <trkpt lat="42.38781" lon="2.76277">
        <ele>352.5</ele>
        <time>2019-12-25T18:27:09Z</time>
      </trkpt>
      <trkpt lat="42.38807" lon="2.7632">
        <ele>351</ele>
        <time>2019-12-25T18:27:14Z</time>
      </trkpt>
      <trkpt lat="42.38863" lon="2.76392">
        <ele>348.7</ele>
        <time>2019-12-25T18:27:22Z</time>
      </trkpt>
      <trkpt lat="42.38887" lon="2.76417">
        <ele>341.1</ele>
        <time>2019-12-25T18:27:27Z</time>
      </trkpt>
      <trkpt lat="42.38897" lon="2.76425">
        <ele>341.8</ele>
        <time>2019-12-25T18:27:30Z</time>
      </trkpt>
      <trkpt lat="42.38907" lon="2.76431">
        <ele>342.3</ele>
        <time>2019-12-25T18:27:32Z</time>
      </trkpt>
      <trkpt lat="42.38915" lon="2.76433">
        <ele>342.4</ele>
        <time>2019-12-25T18:27:37Z</time>
      </trkpt>
      <trkpt lat="42.38931" lon="2.76433">
        <ele>341.4</ele>
        <time>2019-12-25T18:27:40Z</time>
      </trkpt>
      <trkpt lat="42.38987" lon="2.76409">
        <ele>347</ele>
        <time>2019-12-25T18:27:45Z</time>
      </trkpt>
      <trkpt lat="42.39002" lon="2.76406">
        <ele>344.3</ele>
        <time>2019-12-25T18:27:49Z</time>
      </trkpt>
      <trkpt lat="42.39021" lon="2.76408">
        <ele>345.3</ele>
        <time>2019-12-25T18:28:05Z</time>
      </trkpt>
      <trkpt lat="42.39031" lon="2.76413">
        <ele>345.4</ele>
        <time>2019-12-25T18:28:19Z</time>
      </trkpt>
      <trkpt lat="42.3904" lon="2.7642">
        <ele>339.1</ele>
        <time>2019-12-25T18:28:33Z</time>
      </trkpt>
      <trkpt lat="42.39057" lon="2.76448">
        <ele>338.5</ele>
        <time>2019-12-25T18:28:38Z</time>
      </trkpt>
      <trkpt lat="42.39082" lon="2.76502">
        <ele>337.8</ele>
        <time>2019-12-25T18:28:50Z</time>
      </trkpt>
      <trkpt lat="42.39093" lon="2.76537">
        <ele>342.9</ele>
        <time>2019-12-25T18:28:53Z</time>
      </trkpt>
      <trkpt lat="42.39094" lon="2.76563">
        <ele>342.8</ele>
        <time>2019-12-25T18:28:57Z</time>
      </trkpt>
      <trkpt lat="42.39091" lon="2.76576">
        <ele>341.8</ele>
        <time>2019-12-25T18:29:02Z</time>
      </trkpt>
      <trkpt lat="42.39081" lon="2.76609">
        <ele>340.8</ele>
        <time>2019-12-25T18:29:06Z</time>
      </trkpt>
      <trkpt lat="42.3907" lon="2.76627">
        <ele>341.7</ele>
        <time>2019-12-25T18:29:10Z</time>
      </trkpt>
      <trkpt lat="42.39047" lon="2.7665">
        <ele>341.8</ele>
        <time>2019-12-25T18:29:13Z</time>
      </trkpt>
      <trkpt lat="42.39028" lon="2.76662">
        <ele>340.9</ele>
        <time>2019-12-25T18:29:18Z</time>
      </trkpt>
      <trkpt lat="42.3894" lon="2.76691">
        <ele>341.4</ele>
        <time>2019-12-25T18:29:20Z</time>
      </trkpt>
      <trkpt lat="42.38867" lon="2.76733">
        <ele>335.3</ele>
        <time>2019-12-25T18:29:27Z</time>
      </trkpt>
      <trkpt lat="42.38793" lon="2.76766">
        <ele>336.6</ele>
        <time>2019-12-25T18:29:31Z</time>
      </trkpt>
      <trkpt lat="42.38765" lon="2.76781">
        <ele>335.2</ele>
        <time>2019-12-25T18:29:34Z</time>
      </trkpt>
      <trkpt lat="42.38704" lon="2.76822">
        <ele>323.2</ele>
        <time>2019-12-25T18:29:51Z</time>
      </trkpt>
      <trkpt lat="42.38692" lon="2.76835">
        <ele>328.5</ele>
        <time>2019-12-25T18:29:56Z</time>
      </trkpt>
      <trkpt lat="42.3868" lon="2.76857">
        <ele>328.3</ele>
        <time>2019-12-25T18:30:05Z</time>
      </trkpt>
      <trkpt lat="42.38673" lon="2.76896">
        <ele>329.6</ele>
        <time>2019-12-25T18:30:12Z</time>
      </trkpt>
      <trkpt lat="42.3867" lon="2.76929">
        <ele>331.9</ele>
        <time>2019-12-25T18:30:16Z</time>
      </trkpt>
      <trkpt lat="42.38664" lon="2.76955">
        <ele>323.4</ele>
        <time>2019-12-25T18:30:25Z</time>
      </trkpt>
      <trkpt lat="42.38653" lon="2.76973">
        <ele>324.6</ele>
        <time>2019-12-25T18:30:50Z</time>
      </trkpt>
      <trkpt lat="42.38633" lon="2.76997">
        <ele>323.2</ele>
        <time>2019-12-25T18:30:55Z</time>
      </trkpt>
      <trkpt lat="42.38623" lon="2.77011">
        <ele>326.3</ele>
        <time>2019-12-25T18:30:57Z</time>
      </trkpt>
      <trkpt lat="42.38606" lon="2.77052">
        <ele>325.2</ele>
        <time>2019-12-25T18:31:00Z</time>
      </trkpt>
      <trkpt lat="42.38595" lon="2.77086">
        <ele>322.4</ele>
        <time>2019-12-25T18:31:05Z</time>
      </trkpt>
      <trkpt lat="42.3859" lon="2.77107">
        <ele>325</ele>
        <time>2019-12-25T18:31:09Z</time>
      </trkpt>
      <trkpt lat="42.38571" lon="2.77228">
        <ele>314.6</ele>
        <time>2019-12-25T18:31:12Z</time>
      </trkpt>
      <trkpt lat="42.38563" lon="2.77266">
        <ele>316.1</ele>
        <time>2019-12-25T18:31:17Z</time>
      </trkpt>
      <trkpt lat="42.38545" lon="2.77334">
        <ele>318.9</ele>
        <time>2019-12-25T18:31:20Z</time>
      </trkpt>
      <trkpt lat="42.38529" lon="2.77379">
        <ele>318.2</ele>
        <time>2019-12-25T18:31:23Z</time>
      </trkpt>
      <trkpt lat="42.38518" lon="2.77405">
        <ele>317.7</ele>
        <time>2019-12-25T18:31:24Z</time>
      </trkpt>
      <trkpt lat="42.38487" lon="2.77466">
        <ele>317.2</ele>
        <time>2019-12-25T18:31:31Z</time>
      </trkpt>
      <trkpt lat="42.38397" lon="2.77612">
        <ele>314.5</ele>
        <time>2019-12-25T18:31:35Z</time>
      </trkpt>
      <trkpt lat="42.38387" lon="2.77644">
        <ele>313.2</ele>
        <time>2019-12-25T18:31:38Z</time>
      </trkpt>
      <trkpt lat="42.38384" lon="2.77661">
        <ele>312.7</ele>
        <time>2019-12-25T18:31:42Z</time>
      </trkpt>
      <trkpt lat="42.38384" lon="2.77683">
        <ele>308.8</ele>
        <time>2019-12-25T18:31:51Z</time>
      </trkpt>
      <trkpt lat="42.38389" lon="2.77715">
        <ele>307.5</ele>
        <time>2019-12-25T18:31:53Z</time>
      </trkpt>
      <trkpt lat="42.38399" lon="2.77743">
        <ele>305</ele>
        <time>2019-12-25T18:31:56Z</time>
      </trkpt>
      <trkpt lat="42.38412" lon="2.77765">
        <ele>300.9</ele>
        <time>2019-12-25T18:31:59Z</time>
      </trkpt>
      <trkpt lat="42.38431" lon="2.77784">
        <ele>296.2</ele>
        <time>2019-12-25T18:32:10Z</time>
      </trkpt>
      <trkpt lat="42.38451" lon="2.77795">
        <ele>295.2</ele>
        <time>2019-12-25T18:32:14Z</time>
      </trkpt>
      <trkpt lat="42.38463" lon="2.77797">
        <ele>295.1</ele>
        <time>2019-12-25T18:32:18Z</time>
      </trkpt>
      <trkpt lat="42.38473" lon="2.77798">
        <ele>294.9</ele>
        <time>2019-12-25T18:32:20Z</time>
      </trkpt>
      <trkpt lat="42.38508" lon="2.77794">
        <ele>296.2</ele>
        <time>2019-12-25T18:32:25Z</time>
      </trkpt>
      <trkpt lat="42.38534" lon="2.77798">
        <ele>296.2</ele>
        <time>2019-12-25T18:32:31Z</time>
      </trkpt>
      <trkpt lat="42.38549" lon="2.77804">
        <ele>295.8</ele>
        <time>2019-12-25T18:32:33Z</time>
      </trkpt>
      <trkpt lat="42.38571" lon="2.77819">
        <ele>293.4</ele>
        <time>2019-12-25T18:32:36Z</time>
      </trkpt>
      <trkpt lat="42.38606" lon="2.77865">
        <ele>284.2</ele>
        <time>2019-12-25T18:32:39Z</time>
      </trkpt>
      <trkpt lat="42.38613" lon="2.77872">
        <ele>283.6</ele>
        <time>2019-12-25T18:32:45Z</time>
      </trkpt>
      <trkpt lat="42.38628" lon="2.77882">
        <ele>282.7</ele>
        <time>2019-12-25T18:32:47Z</time>
      </trkpt>
      <trkpt lat="42.38648" lon="2.77888">
        <ele>281.8</ele>
        <time>2019-12-25T18:32:48Z</time>
      </trkpt>
      <trkpt lat="42.3871" lon="2.77891">
        <ele>278.7</ele>
        <time>2019-12-25T18:32:52Z</time>
      </trkpt>
      <trkpt lat="42.3873" lon="2.77898">
        <ele>277</ele>
        <time>2019-12-25T18:32:54Z</time>
      </trkpt>
      <trkpt lat="42.38749" lon="2.77912">
        <ele>272.6</ele>
        <time>2019-12-25T18:32:56Z</time>
      </trkpt>
      <trkpt lat="42.38758" lon="2.77922">
        <ele>270.5</ele>
        <time>2019-12-25T18:33:04Z</time>
      </trkpt>
      <trkpt lat="42.38775" lon="2.77951">
        <ele>269.2</ele>
        <time>2019-12-25T18:33:05Z</time>
      </trkpt>
      <trkpt lat="42.38792" lon="2.77991">
        <ele>267.5</ele>
        <time>2019-12-25T18:33:06Z</time>
      </trkpt>
      <trkpt lat="42.38801" lon="2.77997">
        <ele>267.6</ele>
        <time>2019-12-25T18:33:08Z</time>
      </trkpt>
      <trkpt lat="42.38821" lon="2.78005">
        <ele>263.3</ele>
        <time>2019-12-25T18:33:13Z</time>
      </trkpt>
      <trkpt lat="42.38835" lon="2.78015">
        <ele>264</ele>
        <time>2019-12-25T18:33:14Z</time>
      </trkpt>
      <trkpt lat="42.38856" lon="2.78048">
        <ele>261.3</ele>
        <time>2019-12-25T18:33:18Z</time>
      </trkpt>
      <trkpt lat="42.38866" lon="2.78056">
        <ele>261.1</ele>
        <time>2019-12-25T18:33:35Z</time>
      </trkpt>
      <trkpt lat="42.38873" lon="2.78059">
        <ele>261.1</ele>
        <time>2019-12-25T18:33:39Z</time>
      </trkpt>
      <trkpt lat="42.38897" lon="2.7806">
        <ele>261.2</ele>
        <time>2019-12-25T18:33:44Z</time>
      </trkpt>
      <trkpt lat="42.38906" lon="2.78067">
        <ele>260.7</ele>
        <time>2019-12-25T18:33:51Z</time>
      </trkpt>
      <trkpt lat="42.38909" lon="2.78079">
        <ele>259.8</ele>
        <time>2019-12-25T18:34:07Z</time>
      </trkpt>
      <trkpt lat="42.3891" lon="2.78141">
        <ele>260.9</ele>
        <time>2019-12-25T18:34:16Z</time>
      </trkpt>
      <trkpt lat="42.38909" lon="2.78146">
        <ele>261.4</ele>
        <time>2019-12-25T18:34:25Z</time>
      </trkpt>
      <trkpt lat="42.38905" lon="2.78152">
        <ele>261.7</ele>
        <time>2019-12-25T18:34:29Z</time>
      </trkpt>
      <trkpt lat="42.38895" lon="2.78159">
        <ele>261</ele>
        <time>2019-12-25T18:34:33Z</time>
      </trkpt>
      <trkpt lat="42.38869" lon="2.78171">
        <ele>263.6</ele>
        <time>2019-12-25T18:34:35Z</time>
      </trkpt>
      <trkpt lat="42.38861" lon="2.78176">
        <ele>262.5</ele>
        <time>2019-12-25T18:34:53Z</time>
      </trkpt>
      <trkpt lat="42.38846" lon="2.7819">
        <ele>262</ele>
        <time>2019-12-25T18:34:56Z</time>
      </trkpt>
      <trkpt lat="42.38783" lon="2.78295">
        <ele>263.5</ele>
        <time>2019-12-25T18:35:01Z</time>
      </trkpt>
      <trkpt lat="42.38767" lon="2.78317">
        <ele>262.4</ele>
        <time>2019-12-25T18:35:13Z</time>
      </trkpt>
      <trkpt lat="42.38748" lon="2.78339">
        <ele>258.8</ele>
        <time>2019-12-25T18:35:17Z</time>
      </trkpt>
      <trkpt lat="42.38719" lon="2.78381">
        <ele>259.5</ele>
        <time>2019-12-25T18:35:21Z</time>
      </trkpt>
      <trkpt lat="42.38669" lon="2.78477">
        <ele>268.1</ele>
        <time>2019-12-25T18:35:34Z</time>
      </trkpt>
      <trkpt lat="42.38627" lon="2.78522">
        <ele>263.8</ele>
        <time>2019-12-25T18:35:36Z</time>
      </trkpt>
      <trkpt lat="42.38597" lon="2.78576">
        <ele>262.6</ele>
        <time>2019-12-25T18:36:11Z</time>
      </trkpt>
      <trkpt lat="42.38583" lon="2.78597">
        <ele>262.5</ele>
        <time>2019-12-25T18:36:16Z</time>
      </trkpt>
      <trkpt lat="42.38565" lon="2.78613">
        <ele>263.9</ele>
        <time>2019-12-25T18:36:23Z</time>
      </trkpt>
      <trkpt lat="42.38553" lon="2.78619">
        <ele>264.1</ele>
        <time>2019-12-25T18:36:25Z</time>
      </trkpt>
      <trkpt lat="42.38453" lon="2.78652">
        <ele>258.4</ele>
        <time>2019-12-25T18:36:26Z</time>
      </trkpt>
      <trkpt lat="42.38437" lon="2.78659">
        <ele>257.6</ele>
        <time>2019-12-25T18:36:41Z</time>
      </trkpt>
      <trkpt lat="42.38414" lon="2.78677">
        <ele>257</ele>
        <time>2019-12-25T18:36:44Z</time>
      </trkpt>
      <trkpt lat="42.38363" lon="2.78732">
        <ele>257.2</ele>
        <time>2019-12-25T18:36:45Z</time>
      </trkpt>
      <trkpt lat="42.38343" lon="2.78746">
        <ele>257</ele>
        <time>2019-12-25T18:36:50Z</time>
      </trkpt>
      <trkpt lat="42.3832" lon="2.78753">
        <ele>258.9</ele>
        <time>2019-12-25T18:37:11Z</time>
      </trkpt>
      <trkpt lat="42.38248" lon="2.78762">
        <ele>254.7</ele>
        <time>2019-12-25T18:37:18Z</time>
      </trkpt>
      <trkpt lat="42.38238" lon="2.78766">
        <ele>255.3</ele>
        <time>2019-12-25T18:37:24Z</time>
      </trkpt>
      <trkpt lat="42.38061" lon="2.78891">
        <ele>259.1</ele>
        <time>2019-12-25T18:37:27Z</time>
      </trkpt>
      <trkpt lat="42.38035" lon="2.78906">
        <ele>257.6</ele>
        <time>2019-12-25T18:37:33Z</time>
      </trkpt>
      <trkpt lat="42.37997" lon="2.78919">
        <ele>253.8</ele>
        <time>2019-12-25T18:37:37Z</time>
      </trkpt>
      <trkpt lat="42.37988" lon="2.78924">
        <ele>253.2</ele>
        <time>2019-12-25T18:37:42Z</time>
      </trkpt>
      <trkpt lat="42.37981" lon="2.78931">
        <ele>252.8</ele>
        <time>2019-12-25T18:37:47Z</time>
      </trkpt>
      <trkpt lat="42.37922" lon="2.79012">
        <ele>249.6</ele>
        <time>2019-12-25T18:38:00Z</time>
      </trkpt>
      <trkpt lat="42.37914" lon="2.79024">
        <ele>244.3</ele>
        <time>2019-12-25T18:38:08Z</time>
      </trkpt>
      <trkpt lat="42.37909" lon="2.79036">
        <ele>244.1</ele>
        <time>2019-12-25T18:38:09Z</time>
      </trkpt>
      <trkpt lat="42.37906" lon="2.79068">
        <ele>245.6</ele>
        <time>2019-12-25T18:38:10Z</time>
      </trkpt>
      <trkpt lat="42.37903" lon="2.79228">
        <ele>226.8</ele>
        <time>2019-12-25T18:38:14Z</time>
      </trkpt>
      <trkpt lat="42.37897" lon="2.79284">
        <ele>213.8</ele>
        <time>2019-12-25T18:38:16Z</time>
      </trkpt>
      <trkpt lat="42.37885" lon="2.79329">
        <ele>209.7</ele>
        <time>2019-12-25T18:38:17Z</time>
      </trkpt>
      <trkpt lat="42.37878" lon="2.79349">
        <ele>213.4</ele>
        <time>2019-12-25T18:38:25Z</time>
      </trkpt>
      <trkpt lat="42.37861" lon="2.79389">
        <ele>217.8</ele>
        <time>2019-12-25T18:38:31Z</time>
      </trkpt>
      <trkpt lat="42.37847" lon="2.79412">
        <ele>220.5</ele>
        <time>2019-12-25T18:38:33Z</time>
      </trkpt>
      <trkpt lat="42.37827" lon="2.79439">
        <ele>230.4</ele>
        <time>2019-12-25T18:38:36Z</time>
      </trkpt>
      <trkpt lat="42.37807" lon="2.79461">
        <ele>235</ele>
        <time>2019-12-25T18:38:43Z</time>
      </trkpt>
      <trkpt lat="42.37747" lon="2.79517">
        <ele>241.2</ele>
        <time>2019-12-25T18:38:44Z</time>
      </trkpt>
      <trkpt lat="42.37708" lon="2.79543">
        <ele>238.9</ele>
        <time>2019-12-25T18:38:48Z</time>
      </trkpt>
      <trkpt lat="42.37703" lon="2.79548">
        <ele>238.6</ele>
        <time>2019-12-25T18:38:49Z</time>
      </trkpt>
      <trkpt lat="42.37699" lon="2.79558">
        <ele>238.9</ele>
        <time>2019-12-25T18:38:50Z</time>
      </trkpt>
      <trkpt lat="42.37696" lon="2.79587">
        <ele>251</ele>
        <time>2019-12-25T18:38:58Z</time>
      </trkpt>
      <trkpt lat="42.37693" lon="2.796">
        <ele>251.6</ele>
        <time>2019-12-25T18:38:59Z</time>
      </trkpt>
      <trkpt lat="42.37689" lon="2.79611">
        <ele>252.6</ele>
        <time>2019-12-25T18:39:04Z</time>
      </trkpt>
      <trkpt lat="42.37663" lon="2.79655">
        <ele>243.5</ele>
        <time>2019-12-25T18:39:07Z</time>
      </trkpt>
      <trkpt lat="42.37649" lon="2.79701">
        <ele>248.6</ele>
        <time>2019-12-25T18:39:10Z</time>
      </trkpt>
      <trkpt lat="42.37643" lon="2.79715">
        <ele>249.3</ele>
        <time>2019-12-25T18:39:13Z</time>
      </trkpt>
      <trkpt lat="42.37636" lon="2.79728">
        <ele>249.6</ele>
        <time>2019-12-25T18:39:20Z</time>
      </trkpt>
      <trkpt lat="42.37609" lon="2.79767">
        <ele>255.6</ele>
        <time>2019-12-25T18:39:22Z</time>
      </trkpt>
      <trkpt lat="42.37605" lon="2.7978">
        <ele>257</ele>
        <time>2019-12-25T18:39:26Z</time>
      </trkpt>
      <trkpt lat="42.37601" lon="2.79807">
        <ele>259.8</ele>
        <time>2019-12-25T18:39:29Z</time>
      </trkpt>
      <trkpt lat="42.37598" lon="2.79814">
        <ele>259.6</ele>
        <time>2019-12-25T18:39:30Z</time>
      </trkpt>
      <trkpt lat="42.37594" lon="2.79822">
        <ele>258.9</ele>
        <time>2019-12-25T18:39:32Z</time>
      </trkpt>
      <trkpt lat="42.37561" lon="2.79859">
        <ele>257.6</ele>
        <time>2019-12-25T18:39:33Z</time>
      </trkpt>
      <trkpt lat="42.37555" lon="2.79863">
        <ele>257.6</ele>
        <time>2019-12-25T18:39:38Z</time>
      </trkpt>
      <trkpt lat="42.3753" lon="2.79871">
        <ele>255.7</ele>
        <time>2019-12-25T18:39:39Z</time>
      </trkpt>
      <trkpt lat="42.37513" lon="2.79882">
        <ele>255.3</ele>
        <time>2019-12-25T18:39:45Z</time>
      </trkpt>
      <trkpt lat="42.37503" lon="2.79896">
        <ele>255.7</ele>
        <time>2019-12-25T18:39:46Z</time>
      </trkpt>
      <trkpt lat="42.37494" lon="2.79918">
        <ele>254</ele>
        <time>2019-12-25T18:39:49Z</time>
      </trkpt>
      <trkpt lat="42.37469" lon="2.79959">
        <ele>252.5</ele>
        <time>2019-12-25T18:39:52Z</time>
      </trkpt>
      <trkpt lat="42.37464" lon="2.79969">
        <ele>252.8</ele>
        <time>2019-12-25T18:39:54Z</time>
      </trkpt>
      <trkpt lat="42.3746" lon="2.80002">
        <ele>264.8</ele>
        <time>2019-12-25T18:39:58Z</time>
      </trkpt>
      <trkpt lat="42.37453" lon="2.80021">
        <ele>264.8</ele>
        <time>2019-12-25T18:40:01Z</time>
      </trkpt>
      <trkpt lat="42.37447" lon="2.80031">
        <ele>265.1</ele>
        <time>2019-12-25T18:40:14Z</time>
      </trkpt>
      <trkpt lat="42.3744" lon="2.8004">
        <ele>265.4</ele>
        <time>2019-12-25T18:40:18Z</time>
      </trkpt>
      <trkpt lat="42.37434" lon="2.80044">
        <ele>265.3</ele>
        <time>2019-12-25T18:40:21Z</time>
      </trkpt>
      <trkpt lat="42.37409" lon="2.80049">
        <ele>254.7</ele>
        <time>2019-12-25T18:40:22Z</time>
      </trkpt>
      <trkpt lat="42.37403" lon="2.80052">
        <ele>254.9</ele>
        <time>2019-12-25T18:40:26Z</time>
      </trkpt>
      <trkpt lat="42.37378" lon="2.80078">
        <ele>255.1</ele>
        <time>2019-12-25T18:40:30Z</time>
      </trkpt>
      <trkpt lat="42.37372" lon="2.8008">
        <ele>254.5</ele>
        <time>2019-12-25T18:40:37Z</time>
      </trkpt>
      <trkpt lat="42.37353" lon="2.80071">
        <ele>253.1</ele>
        <time>2019-12-25T18:40:40Z</time>
      </trkpt>
      <trkpt lat="42.37338" lon="2.80073">
        <ele>253.5</ele>
        <time>2019-12-25T18:40:41Z</time>
      </trkpt>
      <trkpt lat="42.37327" lon="2.80081">
        <ele>251.5</ele>
        <time>2019-12-25T18:40:44Z</time>
      </trkpt>
      <trkpt lat="42.37311" lon="2.80097">
        <ele>253</ele>
        <time>2019-12-25T18:40:46Z</time>
      </trkpt>
      <trkpt lat="42.37301" lon="2.80118">
        <ele>252.8</ele>
        <time>2019-12-25T18:40:49Z</time>
      </trkpt>
      <trkpt lat="42.37276" lon="2.8021">
        <ele>256.5</ele>
        <time>2019-12-25T18:40:57Z</time>
      </trkpt>
      <trkpt lat="42.37272" lon="2.80242">
        <ele>255.9</ele>
        <time>2019-12-25T18:40:59Z</time>
      </trkpt>
      <trkpt lat="42.37274" lon="2.80263">
        <ele>255.4</ele>
        <time>2019-12-25T18:41:03Z</time>
      </trkpt>
      <trkpt lat="42.37277" lon="2.80274">
        <ele>255.7</ele>
        <time>2019-12-25T18:41:10Z</time>
      </trkpt>
      <trkpt lat="42.37286" lon="2.80296">
        <ele>255.7</ele>
        <time>2019-12-25T18:41:13Z</time>
      </trkpt>
      <trkpt lat="42.37305" lon="2.80319">
        <ele>256</ele>
        <time>2019-12-25T18:41:15Z</time>
      </trkpt>
      <trkpt lat="42.37335" lon="2.80345">
        <ele>258.5</ele>
        <time>2019-12-25T18:41:23Z</time>
      </trkpt>
      <trkpt lat="42.37346" lon="2.80361">
        <ele>260.8</ele>
        <time>2019-12-25T18:42:06Z</time>
      </trkpt>
      <trkpt lat="42.3735" lon="2.8037">
        <ele>261.5</ele>
        <time>2019-12-25T18:42:11Z</time>
      </trkpt>
      <trkpt lat="42.37353" lon="2.8039">
        <ele>262.1</ele>
        <time>2019-12-25T18:42:15Z</time>
      </trkpt>
      <trkpt lat="42.37352" lon="2.80409">
        <ele>261.8</ele>
        <time>2019-12-25T18:42:19Z</time>
      </trkpt>
      <trkpt lat="42.37347" lon="2.80426">
        <ele>264.6</ele>
        <time>2019-12-25T18:42:24Z</time>
      </trkpt>
      <trkpt lat="42.37322" lon="2.80479">
        <ele>260.5</ele>
        <time>2019-12-25T18:42:26Z</time>
      </trkpt>
      <trkpt lat="42.37319" lon="2.80493">
        <ele>261.8</ele>
        <time>2019-12-25T18:42:38Z</time>
      </trkpt>
      <trkpt lat="42.37317" lon="2.80524">
        <ele>264.1</ele>
        <time>2019-12-25T18:43:13Z</time>
      </trkpt>
      <trkpt lat="42.37324" lon="2.80577">
        <ele>267.5</ele>
        <time>2019-12-25T18:43:17Z</time>
      </trkpt>
      <trkpt lat="42.37325" lon="2.80598">
        <ele>269.6</ele>
        <time>2019-12-25T18:43:22Z</time>
      </trkpt>
      <trkpt lat="42.37322" lon="2.80619">
        <ele>270.1</ele>
        <time>2019-12-25T18:43:34Z</time>
      </trkpt>
      <trkpt lat="42.37301" lon="2.80669">
        <ele>275.1</ele>
        <time>2019-12-25T18:43:38Z</time>
      </trkpt>
      <trkpt lat="42.37172" lon="2.8095">
        <ele>268.3</ele>
        <time>2019-12-25T18:43:42Z</time>
      </trkpt>
      <trkpt lat="42.37162" lon="2.80979">
        <ele>275.9</ele>
        <time>2019-12-25T18:43:46Z</time>
      </trkpt>
      <trkpt lat="42.37157" lon="2.8101">
        <ele>269.1</ele>
        <time>2019-12-25T18:43:49Z</time>
      </trkpt>
      <trkpt lat="42.37149" lon="2.81039">
        <ele>270.3</ele>
        <time>2019-12-25T18:43:59Z</time>
      </trkpt>
      <trkpt lat="42.37132" lon="2.8107">
        <ele>270.3</ele>
        <time>2019-12-25T18:44:03Z</time>
      </trkpt>
      <trkpt lat="42.37128" lon="2.81083">
        <ele>270.6</ele>
        <time>2019-12-25T18:44:06Z</time>
      </trkpt>
      <trkpt lat="42.37107" lon="2.81167">
        <ele>260.4</ele>
        <time>2019-12-25T18:44:07Z</time>
      </trkpt>
      <trkpt lat="42.37098" lon="2.81439">
        <ele>244.5</ele>
        <time>2019-12-25T18:44:08Z</time>
      </trkpt>
      <trkpt lat="42.37096" lon="2.81467">
        <ele>244.8</ele>
        <time>2019-12-25T18:44:11Z</time>
      </trkpt>
      <trkpt lat="42.37092" lon="2.81501">
        <ele>246.4</ele>
        <time>2019-12-25T18:44:18Z</time>
      </trkpt>
      <trkpt lat="42.37073" lon="2.81591">
        <ele>243.4</ele>
        <time>2019-12-25T18:44:22Z</time>
      </trkpt>
      <trkpt lat="42.3707" lon="2.81623">
        <ele>244.5</ele>
        <time>2019-12-25T18:44:27Z</time>
      </trkpt>
      <trkpt lat="42.37075" lon="2.81655">
        <ele>240.8</ele>
        <time>2019-12-25T18:44:29Z</time>
      </trkpt>
      <trkpt lat="42.37082" lon="2.8168">
        <ele>240.4</ele>
        <time>2019-12-25T18:44:30Z</time>
      </trkpt>
      <trkpt lat="42.37091" lon="2.81697">
        <ele>233.4</ele>
        <time>2019-12-25T18:44:32Z</time>
      </trkpt>
      <trkpt lat="42.3713" lon="2.81757">
        <ele>231.8</ele>
        <time>2019-12-25T18:44:41Z</time>
      </trkpt>
      <trkpt lat="42.37143" lon="2.81781">
        <ele>230.6</ele>
        <time>2019-12-25T18:44:43Z</time>
      </trkpt>
      <trkpt lat="42.37147" lon="2.81799">
        <ele>230.5</ele>
        <time>2019-12-25T18:44:53Z</time>
      </trkpt>
      <trkpt lat="42.37147" lon="2.81812">
        <ele>230.2</ele>
        <time>2019-12-25T18:44:59Z</time>
      </trkpt>
      <trkpt lat="42.37146" lon="2.8182">
        <ele>230</ele>
        <time>2019-12-25T18:45:02Z</time>
      </trkpt>
      <trkpt lat="42.37137" lon="2.81835">
        <ele>228.1</ele>
        <time>2019-12-25T18:45:15Z</time>
      </trkpt>
      <trkpt lat="42.37106" lon="2.81874">
        <ele>229.6</ele>
        <time>2019-12-25T18:45:18Z</time>
      </trkpt>
      <trkpt lat="42.37096" lon="2.81894">
        <ele>229.3</ele>
        <time>2019-12-25T18:45:19Z</time>
      </trkpt>
      <trkpt lat="42.37083" lon="2.81934">
        <ele>228.5</ele>
        <time>2019-12-25T18:45:21Z</time>
      </trkpt>
      <trkpt lat="42.37074" lon="2.81945">
        <ele>227.2</ele>
        <time>2019-12-25T18:45:28Z</time>
      </trkpt>
      <trkpt lat="42.37069" lon="2.81949">
        <ele>226.8</ele>
        <time>2019-12-25T18:45:31Z</time>
      </trkpt>
      <trkpt lat="42.3706" lon="2.81951">
        <ele>226.7</ele>
        <time>2019-12-25T18:45:33Z</time>
      </trkpt>
      <trkpt lat="42.3701" lon="2.81962">
        <ele>226.8</ele>
        <time>2019-12-25T18:45:36Z</time>
      </trkpt>
      <trkpt lat="42.36998" lon="2.81969">
        <ele>227.9</ele>
        <time>2019-12-25T18:45:38Z</time>
      </trkpt>
      <trkpt lat="42.36963" lon="2.82022">
        <ele>222.9</ele>
        <time>2019-12-25T18:45:39Z</time>
      </trkpt>
      <trkpt lat="42.36934" lon="2.82046">
        <ele>222.8</ele>
        <time>2019-12-25T18:45:40Z</time>
      </trkpt>
      <trkpt lat="42.36922" lon="2.82063">
        <ele>222.4</ele>
        <time>2019-12-25T18:45:46Z</time>
      </trkpt>
      <trkpt lat="42.36883" lon="2.82144">
        <ele>224</ele>
        <time>2019-12-25T18:45:48Z</time>
      </trkpt>
      <trkpt lat="42.36876" lon="2.82165">
        <ele>223.7</ele>
        <time>2019-12-25T18:45:50Z</time>
      </trkpt>
      <trkpt lat="42.36875" lon="2.82175">
        <ele>219.4</ele>
        <time>2019-12-25T18:45:52Z</time>
      </trkpt>
      <trkpt lat="42.36877" lon="2.82192">
        <ele>218.8</ele>
        <time>2019-12-25T18:45:55Z</time>
      </trkpt>
      <trkpt lat="42.3689" lon="2.82238">
        <ele>216.8</ele>
        <time>2019-12-25T18:46:04Z</time>
      </trkpt>
      <trkpt lat="42.36892" lon="2.8226">
        <ele>213</ele>
        <time>2019-12-25T18:46:08Z</time>
      </trkpt>
      <trkpt lat="42.3689" lon="2.8228">
        <ele>212.4</ele>
        <time>2019-12-25T18:46:13Z</time>
      </trkpt>
      <trkpt lat="42.36882" lon="2.82301">
        <ele>211.7</ele>
        <time>2019-12-25T18:46:16Z</time>
      </trkpt>
      <trkpt lat="42.36877" lon="2.8231">
        <ele>211.6</ele>
        <time>2019-12-25T18:46:21Z</time>
      </trkpt>
      <trkpt lat="42.36871" lon="2.82317">
        <ele>211.5</ele>
        <time>2019-12-25T18:46:24Z</time>
      </trkpt>
      <trkpt lat="42.36865" lon="2.8232">
        <ele>211.5</ele>
        <time>2019-12-25T18:46:37Z</time>
      </trkpt>
      <trkpt lat="42.36836" lon="2.82326">
        <ele>211.2</ele>
        <time>2019-12-25T18:46:42Z</time>
      </trkpt>
      <trkpt lat="42.36822" lon="2.82334">
        <ele>212.1</ele>
        <time>2019-12-25T18:46:50Z</time>
      </trkpt>
      <trkpt lat="42.36816" lon="2.82342">
        <ele>212.6</ele>
        <time>2019-12-25T18:46:56Z</time>
      </trkpt>
      <trkpt lat="42.36809" lon="2.82352">
        <ele>213</ele>
        <time>2019-12-25T18:46:58Z</time>
      </trkpt>
      <trkpt lat="42.368" lon="2.82377">
        <ele>212.9</ele>
        <time>2019-12-25T18:47:01Z</time>
      </trkpt>
      <trkpt lat="42.36791" lon="2.82438">
        <ele>206.4</ele>
        <time>2019-12-25T18:47:05Z</time>
      </trkpt>
      <trkpt lat="42.36784" lon="2.8247">
        <ele>205.1</ele>
        <time>2019-12-25T18:47:08Z</time>
      </trkpt>
      <trkpt lat="42.36773" lon="2.82504">
        <ele>200.3</ele>
        <time>2019-12-25T18:47:11Z</time>
      </trkpt>
      <trkpt lat="42.36763" lon="2.82525">
        <ele>199.5</ele>
        <time>2019-12-25T18:47:13Z</time>
      </trkpt>
      <trkpt lat="42.36745" lon="2.8255">
        <ele>203.4</ele>
        <time>2019-12-25T18:47:20Z</time>
      </trkpt>
      <trkpt lat="42.36728" lon="2.82567">
        <ele>202.8</ele>
        <time>2019-12-25T18:47:23Z</time>
      </trkpt>
      <trkpt lat="42.36668" lon="2.82611">
        <ele>200.1</ele>
        <time>2019-12-25T18:47:24Z</time>
      </trkpt>
      <trkpt lat="42.36645" lon="2.82633">
        <ele>207.2</ele>
        <time>2019-12-25T18:47:26Z</time>
      </trkpt>
      <trkpt lat="42.36613" lon="2.8268">
        <ele>201.3</ele>
        <time>2019-12-25T18:47:36Z</time>
      </trkpt>
      <trkpt lat="42.36594" lon="2.82718">
        <ele>198.9</ele>
        <time>2019-12-25T18:47:39Z</time>
      </trkpt>
      <trkpt lat="42.36589" lon="2.82733">
        <ele>197.9</ele>
        <time>2019-12-25T18:47:45Z</time>
      </trkpt>
      <trkpt lat="42.36585" lon="2.82755">
        <ele>196.6</ele>
        <time>2019-12-25T18:48:01Z</time>
      </trkpt>
      <trkpt lat="42.36586" lon="2.82783">
        <ele>196.3</ele>
        <time>2019-12-25T18:48:03Z</time>
      </trkpt>
      <trkpt lat="42.36591" lon="2.82805">
        <ele>197.5</ele>
        <time>2019-12-25T18:48:06Z</time>
      </trkpt>
      <trkpt lat="42.36599" lon="2.82825">
        <ele>198.8</ele>
        <time>2019-12-25T18:48:29Z</time>
      </trkpt>
      <trkpt lat="42.36606" lon="2.82835">
        <ele>200.9</ele>
        <time>2019-12-25T18:48:32Z</time>
      </trkpt>
      <trkpt lat="42.36637" lon="2.82874">
        <ele>199.5</ele>
        <time>2019-12-25T18:48:35Z</time>
      </trkpt>
      <trkpt lat="42.36644" lon="2.82891">
        <ele>199.6</ele>
        <time>2019-12-25T18:48:41Z</time>
      </trkpt>
      <trkpt lat="42.36644" lon="2.82899">
        <ele>199.7</ele>
        <time>2019-12-25T18:48:58Z</time>
      </trkpt>
      <trkpt lat="42.36641" lon="2.82918">
        <ele>201.1</ele>
        <time>2019-12-25T18:48:59Z</time>
      </trkpt>
      <trkpt lat="42.36616" lon="2.82982">
        <ele>202.7</ele>
        <time>2019-12-25T18:49:00Z</time>
      </trkpt>
      <trkpt lat="42.36612" lon="2.83003">
        <ele>201.7</ele>
        <time>2019-12-25T18:49:05Z</time>
      </trkpt>
      <trkpt lat="42.36616" lon="2.83049">
        <ele>200.2</ele>
        <time>2019-12-25T18:49:38Z</time>
      </trkpt>
      <trkpt lat="42.36635" lon="2.83167">
        <ele>197.6</ele>
        <time>2019-12-25T18:49:43Z</time>
      </trkpt>
      <trkpt lat="42.36634" lon="2.83181">
        <ele>197.7</ele>
        <time>2019-12-25T18:49:46Z</time>
      </trkpt>
      <trkpt lat="42.3663" lon="2.83209">
        <ele>197.9</ele>
        <time>2019-12-25T18:49:53Z</time>
      </trkpt>
      <trkpt lat="42.36599" lon="2.83375">
        <ele>199.1</ele>
        <time>2019-12-25T18:49:55Z</time>
      </trkpt>
      <trkpt lat="42.36596" lon="2.83397">
        <ele>198.8</ele>
        <time>2019-12-25T18:49:59Z</time>
      </trkpt>
      <trkpt lat="42.36596" lon="2.83424">
        <ele>197.8</ele>
        <time>2019-12-25T18:50:00Z</time>
      </trkpt>
      <trkpt lat="42.36602" lon="2.83468">
        <ele>196.2</ele>
        <time>2019-12-25T18:50:02Z</time>
      </trkpt>
      <trkpt lat="42.36624" lon="2.83589">
        <ele>191.5</ele>
        <time>2019-12-25T18:50:05Z</time>
      </trkpt>
      <trkpt lat="42.36623" lon="2.83598">
        <ele>191.4</ele>
        <time>2019-12-25T18:50:07Z</time>
      </trkpt>
      <trkpt lat="42.36621" lon="2.83608">
        <ele>191.2</ele>
        <time>2019-12-25T18:50:10Z</time>
      </trkpt>
      <trkpt lat="42.3661" lon="2.83638">
        <ele>190.3</ele>
        <time>2019-12-25T18:50:11Z</time>
      </trkpt>
      <trkpt lat="42.3652" lon="2.8386">
        <ele>182.8</ele>
        <time>2019-12-25T18:50:13Z</time>
      </trkpt>
      <trkpt lat="42.36507" lon="2.83895">
        <ele>182.5</ele>
        <time>2019-12-25T18:50:33Z</time>
      </trkpt>
      <trkpt lat="42.36503" lon="2.83921">
        <ele>181.9</ele>
        <time>2019-12-25T18:50:37Z</time>
      </trkpt>
      <trkpt lat="42.36504" lon="2.8397">
        <ele>177.5</ele>
        <time>2019-12-25T18:50:41Z</time>
      </trkpt>
      <trkpt lat="42.36498" lon="2.83986">
        <ele>179.8</ele>
        <time>2019-12-25T18:50:45Z</time>
      </trkpt>
      <trkpt lat="42.36485" lon="2.84005">
        <ele>176.4</ele>
        <time>2019-12-25T18:50:48Z</time>
      </trkpt>
      <trkpt lat="42.36483" lon="2.84015">
        <ele>176.1</ele>
        <time>2019-12-25T18:50:49Z</time>
      </trkpt>
      <trkpt lat="42.36482" lon="2.8403">
        <ele>175.4</ele>
        <time>2019-12-25T18:50:52Z</time>
      </trkpt>
      <trkpt lat="42.36485" lon="2.8405">
        <ele>174</ele>
        <time>2019-12-25T18:50:54Z</time>
      </trkpt>
      <trkpt lat="42.36485" lon="2.8407">
        <ele>172.4</ele>
        <time>2019-12-25T18:50:59Z</time>
      </trkpt>
      <trkpt lat="42.36479" lon="2.84089">
        <ele>167.1</ele>
        <time>2019-12-25T18:51:01Z</time>
      </trkpt>
      <trkpt lat="42.36474" lon="2.84095">
        <ele>166.8</ele>
        <time>2019-12-25T18:51:03Z</time>
      </trkpt>
      <trkpt lat="42.36463" lon="2.84102">
        <ele>166.5</ele>
        <time>2019-12-25T18:51:19Z</time>
      </trkpt>
      <trkpt lat="42.36353" lon="2.84109">
        <ele>167.2</ele>
        <time>2019-12-25T18:51:23Z</time>
      </trkpt>
      <trkpt lat="42.36331" lon="2.84114">
        <ele>167.9</ele>
        <time>2019-12-25T18:51:53Z</time>
      </trkpt>
      <trkpt lat="42.36315" lon="2.84131">
        <ele>166.7</ele>
        <time>2019-12-25T18:51:54Z</time>
      </trkpt>
      <trkpt lat="42.363" lon="2.84156">
        <ele>165.6</ele>
        <time>2019-12-25T18:51:58Z</time>
      </trkpt>
      <trkpt lat="42.36295" lon="2.84176">
        <ele>160.4</ele>
        <time>2019-12-25T18:52:03Z</time>
      </trkpt>
      <trkpt lat="42.36294" lon="2.84188">
        <ele>160.1</ele>
        <time>2019-12-25T18:52:39Z</time>
      </trkpt>
      <trkpt lat="42.36297" lon="2.84207">
        <ele>159.4</ele>
        <time>2019-12-25T18:52:43Z</time>
      </trkpt>
      <trkpt lat="42.36305" lon="2.84225">
        <ele>158.3</ele>
        <time>2019-12-25T18:52:51Z</time>
      </trkpt>
      <trkpt lat="42.36323" lon="2.84252">
        <ele>153.5</ele>
        <time>2019-12-25T18:52:55Z</time>
      </trkpt>
      <trkpt lat="42.36326" lon="2.84262">
        <ele>153.5</ele>
        <time>2019-12-25T18:53:26Z</time>
      </trkpt>
      <trkpt lat="42.36328" lon="2.84276">
        <ele>153.6</ele>
        <time>2019-12-25T18:53:30Z</time>
      </trkpt>
      <trkpt lat="42.36327" lon="2.844">
        <ele>147.3</ele>
        <time>2019-12-25T18:55:31Z</time>
      </trkpt>
      <trkpt lat="42.36318" lon="2.84432">
        <ele>145</ele>
        <time>2019-12-25T18:55:43Z</time>
      </trkpt>
      <trkpt lat="42.36225" lon="2.84617">
        <ele>141.9</ele>
        <time>2019-12-25T18:55:46Z</time>
      </trkpt>
      <trkpt lat="42.36222" lon="2.84628">
        <ele>142</ele>
        <time>2019-12-25T18:55:51Z</time>
      </trkpt>
      <trkpt lat="42.36217" lon="2.84659">
        <ele>141.7</ele>
        <time>2019-12-25T18:55:52Z</time>
      </trkpt>
      <trkpt lat="42.3622" lon="2.84696">
        <ele>140.6</ele>
        <time>2019-12-25T18:55:53Z</time>
      </trkpt>
      <trkpt lat="42.36262" lon="2.84964">
        <ele>129.6</ele>
        <time>2019-12-25T18:55:55Z</time>
      </trkpt>
      <trkpt lat="42.36263" lon="2.84992">
        <ele>129.1</ele>
        <time>2019-12-25T18:55:58Z</time>
      </trkpt>
      <trkpt lat="42.36256" lon="2.85049">
        <ele>126.3</ele>
        <time>2019-12-25T18:56:11Z</time>
      </trkpt>
      <trkpt lat="42.36256" lon="2.85083">
        <ele>126</ele>
        <time>2019-12-25T18:56:15Z</time>
      </trkpt>
      <trkpt lat="42.36291" lon="2.85316">
        <ele>122.8</ele>
        <time>2019-12-25T18:56:24Z</time>
      </trkpt>
      <trkpt lat="42.36301" lon="2.85341">
        <ele>126.5</ele>
        <time>2019-12-25T18:56:29Z</time>
      </trkpt>
      <trkpt lat="42.3631" lon="2.85358">
        <ele>127</ele>
        <time>2019-12-25T18:56:38Z</time>
      </trkpt>
      <trkpt lat="42.36347" lon="2.85395">
        <ele>127</ele>
        <time>2019-12-25T18:56:40Z</time>
      </trkpt>
      <trkpt lat="42.36379" lon="2.85425">
        <ele>128.5</ele>
        <time>2019-12-25T18:56:43Z</time>
      </trkpt>
      <trkpt lat="42.36396" lon="2.85444">
        <ele>127.6</ele>
        <time>2019-12-25T18:56:45Z</time>
      </trkpt>
      <trkpt lat="42.36402" lon="2.85457">
        <ele>127.9</ele>
        <time>2019-12-25T18:56:52Z</time>
      </trkpt>
      <trkpt lat="42.3641" lon="2.85481">
        <ele>127.5</ele>
        <time>2019-12-25T18:56:58Z</time>
      </trkpt>
      <trkpt lat="42.36416" lon="2.85508">
        <ele>126.5</ele>
        <time>2019-12-25T18:57:00Z</time>
      </trkpt>
      <trkpt lat="42.36418" lon="2.85532">
        <ele>122</ele>
        <time>2019-12-25T18:57:03Z</time>
      </trkpt>
      <trkpt lat="42.36417" lon="2.85559">
        <ele>121.4</ele>
        <time>2019-12-25T18:57:05Z</time>
      </trkpt>
      <trkpt lat="42.36409" lon="2.8558">
        <ele>124.4</ele>
        <time>2019-12-25T18:57:06Z</time>
      </trkpt>
      <trkpt lat="42.36399" lon="2.85606">
        <ele>123.2</ele>
        <time>2019-12-25T18:57:08Z</time>
      </trkpt>
      <trkpt lat="42.36388" lon="2.85623">
        <ele>123.1</ele>
        <time>2019-12-25T18:57:12Z</time>
      </trkpt>
      <trkpt lat="42.36375" lon="2.85645">
        <ele>122.8</ele>
        <time>2019-12-25T18:57:14Z</time>
      </trkpt>
      <trkpt lat="42.36365" lon="2.8566">
        <ele>122.8</ele>
        <time>2019-12-25T18:57:16Z</time>
      </trkpt>
      <trkpt lat="42.3636" lon="2.85686">
        <ele>117.8</ele>
        <time>2019-12-25T18:57:18Z</time>
      </trkpt>
      <trkpt lat="42.36356" lon="2.8571">
        <ele>116.5</ele>
        <time>2019-12-25T18:57:29Z</time>
      </trkpt>
      <trkpt lat="42.36356" lon="2.85729">
        <ele>115.5</ele>
        <time>2019-12-25T18:57:31Z</time>
      </trkpt>
      <trkpt lat="42.36366" lon="2.85819">
        <ele>115</ele>
        <time>2019-12-25T18:57:41Z</time>
      </trkpt>
      <trkpt lat="42.36371" lon="2.85841">
        <ele>118.3</ele>
        <time>2019-12-25T18:57:43Z</time>
      </trkpt>
      <trkpt lat="42.36374" lon="2.8588">
        <ele>119.7</ele>
        <time>2019-12-25T18:57:45Z</time>
      </trkpt>
      <trkpt lat="42.36377" lon="2.85887">
        <ele>120</ele>
        <time>2019-12-25T18:57:46Z</time>
      </trkpt>
      <trkpt lat="42.36382" lon="2.85891">
        <ele>120.1</ele>
        <time>2019-12-25T18:57:53Z</time>
      </trkpt>
      <trkpt lat="42.36389" lon="2.85894">
        <ele>120.2</ele>
        <time>2019-12-25T18:57:54Z</time>
      </trkpt>
      <trkpt lat="42.3641" lon="2.85892">
        <ele>120.2</ele>
        <time>2019-12-25T18:57:57Z</time>
      </trkpt>
      <trkpt lat="42.3648" lon="2.85905">
        <ele>120.1</ele>
        <time>2019-12-25T18:58:00Z</time>
      </trkpt>
      <trkpt lat="42.36505" lon="2.8591">
        <ele>121.1</ele>
        <time>2019-12-25T18:58:03Z</time>
      </trkpt>
      <trkpt lat="42.36552" lon="2.8593">
        <ele>128.5</ele>
        <time>2019-12-25T18:58:10Z</time>
      </trkpt>
      <trkpt lat="42.36576" lon="2.85933">
        <ele>128.2</ele>
        <time>2019-12-25T18:58:12Z</time>
      </trkpt>
      <trkpt lat="42.36628" lon="2.8593">
        <ele>133.6</ele>
        <time>2019-12-25T18:58:14Z</time>
      </trkpt>
      <trkpt lat="42.36639" lon="2.85932">
        <ele>133.7</ele>
        <time>2019-12-25T18:58:15Z</time>
      </trkpt>
      <trkpt lat="42.36657" lon="2.85941">
        <ele>134.2</ele>
        <time>2019-12-25T18:58:25Z</time>
      </trkpt>
      <trkpt lat="42.3667" lon="2.85942">
        <ele>137.5</ele>
        <time>2019-12-25T18:58:26Z</time>
      </trkpt>
      <trkpt lat="42.36704" lon="2.85931">
        <ele>138.7</ele>
        <time>2019-12-25T18:58:28Z</time>
      </trkpt>
      <trkpt lat="42.3674" lon="2.85925">
        <ele>137.3</ele>
        <time>2019-12-25T18:58:37Z</time>
      </trkpt>
      <trkpt lat="42.3675" lon="2.85926">
        <ele>136.7</ele>
        <time>2019-12-25T18:58:39Z</time>
      </trkpt>
      <trkpt lat="42.36766" lon="2.85937">
        <ele>143.6</ele>
        <time>2019-12-25T18:58:41Z</time>
      </trkpt>
      <trkpt lat="42.36774" lon="2.8594">
        <ele>145</ele>
        <time>2019-12-25T18:58:42Z</time>
      </trkpt>
      <trkpt lat="42.36784" lon="2.85938">
        <ele>145.8</ele>
        <time>2019-12-25T18:58:44Z</time>
      </trkpt>
      <trkpt lat="42.3679" lon="2.85929">
        <ele>145.6</ele>
        <time>2019-12-25T18:58:45Z</time>
      </trkpt>
      <trkpt lat="42.36796" lon="2.85896">
        <ele>137.7</ele>
        <time>2019-12-25T18:58:49Z</time>
      </trkpt>
      <trkpt lat="42.36801" lon="2.85884">
        <ele>137.4</ele>
        <time>2019-12-25T18:58:51Z</time>
      </trkpt>
      <trkpt lat="42.36807" lon="2.85877">
        <ele>137.3</ele>
        <time>2019-12-25T18:58:52Z</time>
      </trkpt>
      <trkpt lat="42.36817" lon="2.8587">
        <ele>137.2</ele>
        <time>2019-12-25T18:59:02Z</time>
      </trkpt>
      <trkpt lat="42.3688" lon="2.85855">
        <ele>143.5</ele>
        <time>2019-12-25T18:59:04Z</time>
      </trkpt>
      <trkpt lat="42.36892" lon="2.85856">
        <ele>143.9</ele>
        <time>2019-12-25T18:59:12Z</time>
      </trkpt>
      <trkpt lat="42.36946" lon="2.85867">
        <ele>151.7</ele>
        <time>2019-12-25T18:59:55Z</time>
      </trkpt>
      <trkpt lat="42.36958" lon="2.85867">
        <ele>152.4</ele>
        <time>2019-12-25T19:00:17Z</time>
      </trkpt>
      <trkpt lat="42.36966" lon="2.85861">
        <ele>152.5</ele>
        <time>2019-12-25T19:00:18Z</time>
      </trkpt>
      <trkpt lat="42.36973" lon="2.85852">
        <ele>152.4</ele>
        <time>2019-12-25T19:00:20Z</time>
      </trkpt>
      <trkpt lat="42.36996" lon="2.85816">
        <ele>148.5</ele>
        <time>2019-12-25T19:00:40Z</time>
      </trkpt>
      <trkpt lat="42.36999" lon="2.85805">
        <ele>147.2</ele>
        <time>2019-12-25T19:00:42Z</time>
      </trkpt>
      <trkpt lat="42.37002" lon="2.85785">
        <ele>153.7</ele>
        <time>2019-12-25T19:00:44Z</time>
      </trkpt>
      <trkpt lat="42.3701" lon="2.85763">
        <ele>151.2</ele>
        <time>2019-12-25T19:00:49Z</time>
      </trkpt>
      <trkpt lat="42.3702" lon="2.85748">
        <ele>146.9</ele>
        <time>2019-12-25T19:00:51Z</time>
      </trkpt>
      <trkpt lat="42.37052" lon="2.85714">
        <ele>147.5</ele>
        <time>2019-12-25T19:00:54Z</time>
      </trkpt>
      <trkpt lat="42.37062" lon="2.85709">
        <ele>147.6</ele>
        <time>2019-12-25T19:01:01Z</time>
      </trkpt>
      <trkpt lat="42.37071" lon="2.85711">
        <ele>148.2</ele>
        <time>2019-12-25T19:01:03Z</time>
      </trkpt>
      <trkpt lat="42.37079" lon="2.85719">
        <ele>149.7</ele>
        <time>2019-12-25T19:01:10Z</time>
      </trkpt>
      <trkpt lat="42.37114" lon="2.85772">
        <ele>164.2</ele>
        <time>2019-12-25T19:01:13Z</time>
      </trkpt>
      <trkpt lat="42.37121" lon="2.85781">
        <ele>165.1</ele>
        <time>2019-12-25T19:01:28Z</time>
      </trkpt>
      <trkpt lat="42.3713" lon="2.85789">
        <ele>165.9</ele>
        <time>2019-12-25T19:01:31Z</time>
      </trkpt>
      <trkpt lat="42.37175" lon="2.85806">
        <ele>170.1</ele>
        <time>2019-12-25T19:01:38Z</time>
      </trkpt>
      <trkpt lat="42.37186" lon="2.85806">
        <ele>169.8</ele>
        <time>2019-12-25T19:01:40Z</time>
      </trkpt>
      <trkpt lat="42.37197" lon="2.85801">
        <ele>169.1</ele>
        <time>2019-12-25T19:01:41Z</time>
      </trkpt>
      <trkpt lat="42.37205" lon="2.85799">
        <ele>168.9</ele>
        <time>2019-12-25T19:01:42Z</time>
      </trkpt>
      <trkpt lat="42.37213" lon="2.85803">
        <ele>169.3</ele>
        <time>2019-12-25T19:01:44Z</time>
      </trkpt>
      <trkpt lat="42.3722" lon="2.8581">
        <ele>170.1</ele>
        <time>2019-12-25T19:01:45Z</time>
      </trkpt>
      <trkpt lat="42.37235" lon="2.85833">
        <ele>172.8</ele>
        <time>2019-12-25T19:01:49Z</time>
      </trkpt>
      <trkpt lat="42.37243" lon="2.85839">
        <ele>177.3</ele>
        <time>2019-12-25T19:01:50Z</time>
      </trkpt>
      <trkpt lat="42.37252" lon="2.85842">
        <ele>177.3</ele>
        <time>2019-12-25T19:01:52Z</time>
      </trkpt>
      <trkpt lat="42.37308" lon="2.85847">
        <ele>179.1</ele>
        <time>2019-12-25T19:01:53Z</time>
      </trkpt>
      <trkpt lat="42.37317" lon="2.8585">
        <ele>179.1</ele>
        <time>2019-12-25T19:01:55Z</time>
      </trkpt>
      <trkpt lat="42.37357" lon="2.85882">
        <ele>182.1</ele>
        <time>2019-12-25T19:01:56Z</time>
      </trkpt>
      <trkpt lat="42.37583" lon="2.85983">
        <ele>182.8</ele>
        <time>2019-12-25T19:01:59Z</time>
      </trkpt>
      <trkpt lat="42.37695" lon="2.86051">
        <ele>179</ele>
        <time>2019-12-25T19:02:01Z</time>
      </trkpt>
      <trkpt lat="42.37705" lon="2.86054">
        <ele>179.2</ele>
        <time>2019-12-25T19:02:04Z</time>
      </trkpt>
      <trkpt lat="42.37717" lon="2.86053">
        <ele>179.5</ele>
        <time>2019-12-25T19:02:23Z</time>
      </trkpt>
      <trkpt lat="42.37823" lon="2.86016">
        <ele>179.2</ele>
        <time>2019-12-25T19:02:33Z</time>
      </trkpt>
      <trkpt lat="42.37835" lon="2.8601">
        <ele>177.5</ele>
        <time>2019-12-25T19:02:42Z</time>
      </trkpt>
      <trkpt lat="42.37845" lon="2.86001">
        <ele>177.3</ele>
        <time>2019-12-25T19:02:53Z</time>
      </trkpt>
      <trkpt lat="42.37858" lon="2.85972">
        <ele>180.6</ele>
        <time>2019-12-25T19:02:58Z</time>
      </trkpt>
      <trkpt lat="42.37865" lon="2.85961">
        <ele>180.9</ele>
        <time>2019-12-25T19:03:04Z</time>
      </trkpt>
      <trkpt lat="42.3788" lon="2.85948">
        <ele>181.1</ele>
        <time>2019-12-25T19:03:17Z</time>
      </trkpt>
      <trkpt lat="42.37917" lon="2.85941">
        <ele>181.3</ele>
        <time>2019-12-25T19:03:18Z</time>
      </trkpt>
      <trkpt lat="42.37931" lon="2.85943">
        <ele>181.3</ele>
        <time>2019-12-25T19:03:22Z</time>
      </trkpt>
      <trkpt lat="42.3797" lon="2.8596">
        <ele>181.2</ele>
        <time>2019-12-25T19:03:54Z</time>
      </trkpt>
      <trkpt lat="42.37984" lon="2.85969">
        <ele>180.9</ele>
        <time>2019-12-25T19:03:56Z</time>
      </trkpt>
      <trkpt lat="42.38049" lon="2.86037">
        <ele>173.8</ele>
        <time>2019-12-25T19:04:02Z</time>
      </trkpt>
      <trkpt lat="42.38067" lon="2.86052">
        <ele>173.1</ele>
        <time>2019-12-25T19:04:05Z</time>
      </trkpt>
      <trkpt lat="42.38099" lon="2.86074">
        <ele>174.8</ele>
        <time>2019-12-25T19:04:13Z</time>
      </trkpt>
      <trkpt lat="42.38107" lon="2.86082">
        <ele>175.5</ele>
        <time>2019-12-25T19:04:15Z</time>
      </trkpt>
      <trkpt lat="42.3811" lon="2.86091">
        <ele>174.5</ele>
        <time>2019-12-25T19:04:20Z</time>
      </trkpt>
      <trkpt lat="42.38112" lon="2.861">
        <ele>174.7</ele>
        <time>2019-12-25T19:04:22Z</time>
      </trkpt>
      <trkpt lat="42.3811" lon="2.86111">
        <ele>174.7</ele>
        <time>2019-12-25T19:04:25Z</time>
      </trkpt>
      <trkpt lat="42.38104" lon="2.86121">
        <ele>174.3</ele>
        <time>2019-12-25T19:04:30Z</time>
      </trkpt>
      <trkpt lat="42.38087" lon="2.86135">
        <ele>173.4</ele>
        <time>2019-12-25T19:04:34Z</time>
      </trkpt>
      <trkpt lat="42.38082" lon="2.86145">
        <ele>169</ele>
        <time>2019-12-25T19:04:40Z</time>
      </trkpt>
      <trkpt lat="42.38079" lon="2.86155">
        <ele>169.2</ele>
        <time>2019-12-25T19:04:50Z</time>
      </trkpt>
      <trkpt lat="42.38079" lon="2.86166">
        <ele>169.6</ele>
        <time>2019-12-25T19:04:55Z</time>
      </trkpt>
      <trkpt lat="42.38081" lon="2.86177">
        <ele>168.3</ele>
        <time>2019-12-25T19:05:00Z</time>
      </trkpt>
      <trkpt lat="42.38087" lon="2.86186">
        <ele>170.9</ele>
        <time>2019-12-25T19:05:04Z</time>
      </trkpt>
      <trkpt lat="42.381" lon="2.86201">
        <ele>171.2</ele>
        <time>2019-12-25T19:05:08Z</time>
      </trkpt>
      <trkpt lat="42.38109" lon="2.86208">
        <ele>171.4</ele>
        <time>2019-12-25T19:05:10Z</time>
      </trkpt>
      <trkpt lat="42.38122" lon="2.8621">
        <ele>171.8</ele>
        <time>2019-12-25T19:05:15Z</time>
      </trkpt>
      <trkpt lat="42.38229" lon="2.86215">
        <ele>176.9</ele>
        <time>2019-12-25T19:05:18Z</time>
      </trkpt>
      <trkpt lat="42.38286" lon="2.86202">
        <ele>176.7</ele>
        <time>2019-12-25T19:05:20Z</time>
      </trkpt>
      <trkpt lat="42.38333" lon="2.8617">
        <ele>180.3</ele>
        <time>2019-12-25T19:05:24Z</time>
      </trkpt>
      <trkpt lat="42.38376" lon="2.86117">
        <ele>183.4</ele>
        <time>2019-12-25T19:05:32Z</time>
      </trkpt>
      <trkpt lat="42.38399" lon="2.86095">
        <ele>182.8</ele>
        <time>2019-12-25T19:05:39Z</time>
      </trkpt>
      <trkpt lat="42.38429" lon="2.86073">
        <ele>182.6</ele>
        <time>2019-12-25T19:05:42Z</time>
      </trkpt>
      <trkpt lat="42.385" lon="2.86045">
        <ele>181.4</ele>
        <time>2019-12-25T19:05:50Z</time>
      </trkpt>
      <trkpt lat="42.38505" lon="2.86038">
        <ele>177</ele>
        <time>2019-12-25T19:06:01Z</time>
      </trkpt>
      <trkpt lat="42.38516" lon="2.8601">
        <ele>177.6</ele>
        <time>2019-12-25T19:06:04Z</time>
      </trkpt>
      <trkpt lat="42.38592" lon="2.85796">
        <ele>166.3</ele>
        <time>2019-12-25T19:10:01Z</time>
      </trkpt>
      <trkpt lat="42.38596" lon="2.85777">
        <ele>166.5</ele>
        <time>2019-12-25T19:10:07Z</time>
      </trkpt>
      <trkpt lat="42.386" lon="2.85733">
        <ele>168</ele>
        <time>2019-12-25T19:10:08Z</time>
      </trkpt>
      <trkpt lat="42.38608" lon="2.85712">
        <ele>167.7</ele>
        <time>2019-12-25T19:10:09Z</time>
      </trkpt>
      <trkpt lat="42.38642" lon="2.85675">
        <ele>166.1</ele>
        <time>2019-12-25T19:10:10Z</time>
      </trkpt>
      <trkpt lat="42.3865" lon="2.8566">
        <ele>167.5</ele>
        <time>2019-12-25T19:10:11Z</time>
      </trkpt>
      <trkpt lat="42.38658" lon="2.85624">
        <ele>169</ele>
        <time>2019-12-25T19:10:13Z</time>
      </trkpt>
      <trkpt lat="42.38663" lon="2.85611">
        <ele>169</ele>
        <time>2019-12-25T19:10:15Z</time>
      </trkpt>
      <trkpt lat="42.38674" lon="2.85595">
        <ele>164.3</ele>
        <time>2019-12-25T19:10:17Z</time>
      </trkpt>
      <trkpt lat="42.38698" lon="2.85572">
        <ele>166.4</ele>
        <time>2019-12-25T19:10:19Z</time>
      </trkpt>
      <trkpt lat="42.38718" lon="2.85558">
        <ele>166</ele>
        <time>2019-12-25T19:10:27Z</time>
      </trkpt>
      <trkpt lat="42.38747" lon="2.85546">
        <ele>165.8</ele>
        <time>2019-12-25T19:10:31Z</time>
      </trkpt>
      <trkpt lat="42.38805" lon="2.85526">
        <ele>162.7</ele>
        <time>2019-12-25T19:10:34Z</time>
      </trkpt>
      <trkpt lat="42.38828" lon="2.85509">
        <ele>163.9</ele>
        <time>2019-12-25T19:10:38Z</time>
      </trkpt>
      <trkpt lat="42.38848" lon="2.85487">
        <ele>162.4</ele>
        <time>2019-12-25T19:10:45Z</time>
      </trkpt>
      <trkpt lat="42.38861" lon="2.85462">
        <ele>161.3</ele>
        <time>2019-12-25T19:10:46Z</time>
      </trkpt>
      <trkpt lat="42.38872" lon="2.85434">
        <ele>161.2</ele>
        <time>2019-12-25T19:10:51Z</time>
      </trkpt>
      <trkpt lat="42.38876" lon="2.85418">
        <ele>161</ele>
        <time>2019-12-25T19:10:52Z</time>
      </trkpt>
      <trkpt lat="42.38872" lon="2.85378">
        <ele>163.2</ele>
        <time>2019-12-25T19:10:56Z</time>
      </trkpt>
      <trkpt lat="42.38872" lon="2.85361">
        <ele>163.3</ele>
        <time>2019-12-25T19:10:58Z</time>
      </trkpt>
      <trkpt lat="42.38876" lon="2.85343">
        <ele>163.1</ele>
        <time>2019-12-25T19:11:03Z</time>
      </trkpt>
      <trkpt lat="42.38891" lon="2.85322">
        <ele>163.6</ele>
        <time>2019-12-25T19:11:04Z</time>
      </trkpt>
      <trkpt lat="42.38936" lon="2.85301">
        <ele>156.2</ele>
        <time>2019-12-25T19:11:07Z</time>
      </trkpt>
      <trkpt lat="42.38974" lon="2.85289">
        <ele>154.8</ele>
        <time>2019-12-25T19:11:14Z</time>
      </trkpt>
      <trkpt lat="42.3899" lon="2.85278">
        <ele>154.4</ele>
        <time>2019-12-25T19:11:18Z</time>
      </trkpt>
      <trkpt lat="42.39026" lon="2.85245">
        <ele>151.6</ele>
        <time>2019-12-25T19:11:22Z</time>
      </trkpt>
      <trkpt lat="42.39071" lon="2.85195">
        <ele>151</ele>
        <time>2019-12-25T19:11:47Z</time>
      </trkpt>
      <trkpt lat="42.39088" lon="2.85186">
        <ele>148.6</ele>
        <time>2019-12-25T19:11:52Z</time>
      </trkpt>
      <trkpt lat="42.39185" lon="2.85163">
        <ele>149.3</ele>
        <time>2019-12-25T19:11:54Z</time>
      </trkpt>
      <trkpt lat="42.39252" lon="2.85084">
        <ele>147.5</ele>
        <time>2019-12-25T19:13:51Z</time>
      </trkpt>
      <trkpt lat="42.39277" lon="2.85007">
        <ele>147.5</ele>
        <time>2019-12-25T19:15:23Z</time>
      </trkpt>
      <trkpt lat="42.39292" lon="2.84946">
        <ele>150.1</ele>
        <time>2019-12-25T19:16:32Z</time>
      </trkpt>
      <trkpt lat="42.393" lon="2.84865">
        <ele>154.7</ele>
        <time>2019-12-25T19:16:41Z</time>
      </trkpt>
      <trkpt lat="42.39322" lon="2.8485">
        <ele>154.7</ele>
        <time>2019-12-25T19:16:49Z</time>
      </trkpt>
      <trkpt lat="42.3934" lon="2.84834">
        <ele>153.5</ele>
        <time>2019-12-25T19:17:02Z</time>
      </trkpt>
      <trkpt lat="42.39374" lon="2.84727">
        <ele>161.5</ele>
        <time>2019-12-25T19:17:06Z</time>
      </trkpt>
      <trkpt lat="42.39518" lon="2.84729">
        <ele>155.4</ele>
        <time>2019-12-25T19:17:09Z</time>
      </trkpt>
      <trkpt lat="42.39523" lon="2.84743">
        <ele>154.8</ele>
        <time>2019-12-25T19:17:19Z</time>
      </trkpt>
      <trkpt lat="42.39507" lon="2.84767">
        <ele>149.6</ele>
        <time>2019-12-25T19:17:33Z</time>
      </trkpt>
      <trkpt lat="42.39468" lon="2.84834">
        <ele>144.9</ele>
        <time>2019-12-25T19:17:36Z</time>
      </trkpt>
      <trkpt lat="42.39437" lon="2.84901">
        <ele>143.1</ele>
        <time>2019-12-25T19:17:37Z</time>
      </trkpt>
      <trkpt lat="42.39437" lon="2.84911">
        <ele>142.9</ele>
        <time>2019-12-25T19:17:41Z</time>
      </trkpt>
      <trkpt lat="42.3943" lon="2.84928">
        <ele>139.8</ele>
        <time>2019-12-25T19:17:44Z</time>
      </trkpt>
      <trkpt lat="42.39424" lon="2.84945">
        <ele>138.5</ele>
        <time>2019-12-25T19:17:57Z</time>
      </trkpt>
      <trkpt lat="42.3942" lon="2.84966">
        <ele>137</ele>
        <time>2019-12-25T19:18:02Z</time>
      </trkpt>
      <trkpt lat="42.39416" lon="2.84979">
        <ele>138.4</ele>
        <time>2019-12-25T19:18:09Z</time>
      </trkpt>
      <trkpt lat="42.39395" lon="2.85014">
        <ele>136.1</ele>
        <time>2019-12-25T19:18:16Z</time>
      </trkpt>
      <trkpt lat="42.39392" lon="2.85024">
        <ele>136.4</ele>
        <time>2019-12-25T19:18:19Z</time>
      </trkpt>
      <trkpt lat="42.39393" lon="2.8503">
        <ele>136.3</ele>
        <time>2019-12-25T19:18:24Z</time>
      </trkpt>
      <trkpt lat="42.39397" lon="2.85036">
        <ele>136.1</ele>
        <time>2019-12-25T19:18:35Z</time>
      </trkpt>
      <trkpt lat="42.39405" lon="2.85038">
        <ele>135.8</ele>
        <time>2019-12-25T19:18:39Z</time>
      </trkpt>
      <trkpt lat="42.39415" lon="2.85037">
        <ele>135.6</ele>
        <time>2019-12-25T19:18:46Z</time>
      </trkpt>
      <trkpt lat="42.39421" lon="2.85048">
        <ele>135.6</ele>
        <time>2019-12-25T19:18:49Z</time>
      </trkpt>
      <trkpt lat="42.39426" lon="2.85062">
        <ele>135.3</ele>
        <time>2019-12-25T19:18:55Z</time>
      </trkpt>
      <trkpt lat="42.39428" lon="2.8508">
        <ele>134.2</ele>
        <time>2019-12-25T19:19:02Z</time>
      </trkpt>
      <trkpt lat="42.39403" lon="2.85129">
        <ele>135</ele>
        <time>2019-12-25T19:19:14Z</time>
      </trkpt>
      <trkpt lat="42.39396" lon="2.85155">
        <ele>135.2</ele>
        <time>2019-12-25T19:19:15Z</time>
      </trkpt>
      <trkpt lat="42.39397" lon="2.85181">
        <ele>134.4</ele>
        <time>2019-12-25T19:19:27Z</time>
      </trkpt>
      <trkpt lat="42.39404" lon="2.85211">
        <ele>133.8</ele>
        <time>2019-12-25T19:19:28Z</time>
      </trkpt>
      <trkpt lat="42.39427" lon="2.8525">
        <ele>133.1</ele>
        <time>2019-12-25T19:19:29Z</time>
      </trkpt>
      <trkpt lat="42.39428" lon="2.8526">
        <ele>134.6</ele>
        <time>2019-12-25T19:19:30Z</time>
      </trkpt>
      <trkpt lat="42.3942" lon="2.85293">
        <ele>136</ele>
        <time>2019-12-25T19:19:46Z</time>
      </trkpt>
      <trkpt lat="42.3942" lon="2.85303">
        <ele>136.1</ele>
        <time>2019-12-25T19:19:51Z</time>
      </trkpt>
      <trkpt lat="42.39425" lon="2.8533">
        <ele>135.2</ele>
        <time>2019-12-25T19:19:53Z</time>
      </trkpt>
      <trkpt lat="42.39426" lon="2.8535">
        <ele>137.2</ele>
        <time>2019-12-25T19:19:57Z</time>
      </trkpt>
      <trkpt lat="42.39422" lon="2.85387">
        <ele>138.8</ele>
        <time>2019-12-25T19:19:58Z</time>
      </trkpt>
      <trkpt lat="42.39423" lon="2.85393">
        <ele>138.9</ele>
        <time>2019-12-25T19:20:00Z</time>
      </trkpt>
      <trkpt lat="42.3943" lon="2.85415">
        <ele>138.8</ele>
        <time>2019-12-25T19:20:02Z</time>
      </trkpt>
      <trkpt lat="42.39448" lon="2.85458">
        <ele>140.5</ele>
        <time>2019-12-25T19:20:03Z</time>
      </trkpt>
      <trkpt lat="42.3946" lon="2.85483">
        <ele>140.7</ele>
        <time>2019-12-25T19:20:05Z</time>
      </trkpt>
      <trkpt lat="42.39479" lon="2.85509">
        <ele>140.2</ele>
        <time>2019-12-25T19:20:06Z</time>
      </trkpt>
      <trkpt lat="42.39494" lon="2.85693">
        <ele>137.6</ele>
        <time>2019-12-25T19:20:07Z</time>
      </trkpt>
      <trkpt lat="42.395" lon="2.85728">
        <ele>138.7</ele>
        <time>2019-12-25T19:20:09Z</time>
      </trkpt>
      <trkpt lat="42.39509" lon="2.85746">
        <ele>137.9</ele>
        <time>2019-12-25T19:20:11Z</time>
      </trkpt>
      <trkpt lat="42.39921" lon="2.86432">
        <ele>124.7</ele>
        <time>2019-12-25T19:20:12Z</time>
      </trkpt>
      <trkpt lat="42.40247" lon="2.86982">
        <ele>109.7</ele>
        <time>2019-12-25T19:20:15Z</time>
      </trkpt>
      <trkpt lat="42.40293" lon="2.87105">
        <ele>107.4</ele>
        <time>2019-12-25T19:20:19Z</time>
      </trkpt>
      <trkpt lat="42.40307" lon="2.87146">
        <ele>106.4</ele>
        <time>2019-12-25T19:20:39Z</time>
      </trkpt>
      <trkpt lat="42.40313" lon="2.87174">
        <ele>104</ele>
        <time>2019-12-25T19:20:41Z</time>
      </trkpt>
      <trkpt lat="42.40347" lon="2.87125">
        <ele>104.1</ele>
        <time>2019-12-25T19:20:46Z</time>
      </trkpt>
      <trkpt lat="42.40404" lon="2.87048">
        <ele>107.4</ele>
        <time>2019-12-25T19:20:50Z</time>
      </trkpt>
      <trkpt lat="42.40494" lon="2.8703">
        <ele>105.3</ele>
        <time>2019-12-25T19:20:59Z</time>
      </trkpt>
      <trkpt lat="42.40508" lon="2.87031">
        <ele>103.5</ele>
        <time>2019-12-25T19:21:35Z</time>
      </trkpt>
      <trkpt lat="42.40532" lon="2.8706">
        <ele>102</ele>
        <time>2019-12-25T19:22:08Z</time>
      </trkpt>
      <trkpt lat="42.4055" lon="2.87053">
        <ele>102.1</ele>
        <time>2019-12-25T19:22:51Z</time>
      </trkpt>
      <trkpt lat="42.40565" lon="2.87047">
        <ele>102.1</ele>
        <time>2019-12-25T19:23:01Z</time>
      </trkpt>
      <trkpt lat="42.40611" lon="2.87017">
        <ele>103.4</ele>
        <time>2019-12-25T19:23:09Z</time>
      </trkpt>
      <trkpt lat="42.40659" lon="2.87021">
        <ele>104.6</ele>
        <time>2019-12-25T19:23:11Z</time>
      </trkpt>
      <trkpt lat="42.40729" lon="2.87034">
        <ele>108.7</ele>
        <time>2019-12-25T19:23:44Z</time>
      </trkpt>
      <trkpt lat="42.4075" lon="2.87041">
        <ele>108.7</ele>
        <time>2019-12-25T19:24:00Z</time>
      </trkpt>
      <trkpt lat="42.40765" lon="2.8705">
        <ele>110.5</ele>
        <time>2019-12-25T19:24:02Z</time>
      </trkpt>
      <trkpt lat="42.40804" lon="2.87106">
        <ele>107.2</ele>
        <time>2019-12-25T19:24:04Z</time>
      </trkpt>
      <trkpt lat="42.40851" lon="2.87195">
        <ele>105</ele>
        <time>2019-12-25T19:24:07Z</time>
      </trkpt>
      <trkpt lat="42.40862" lon="2.87205">
        <ele>104.8</ele>
        <time>2019-12-25T19:24:09Z</time>
      </trkpt>
      <trkpt lat="42.40871" lon="2.87205">
        <ele>104.8</ele>
        <time>2019-12-25T19:24:10Z</time>
      </trkpt>
      <trkpt lat="42.40891" lon="2.87201">
        <ele>104.8</ele>
        <time>2019-12-25T19:24:12Z</time>
      </trkpt>
      <trkpt lat="42.40907" lon="2.87193">
        <ele>105</ele>
        <time>2019-12-25T19:24:13Z</time>
      </trkpt>
      <trkpt lat="42.40977" lon="2.8715">
        <ele>111.1</ele>
        <time>2019-12-25T19:24:16Z</time>
      </trkpt>
      <trkpt lat="42.41" lon="2.8714">
        <ele>111.6</ele>
        <time>2019-12-25T19:24:17Z</time>
      </trkpt>
      <trkpt lat="42.41042" lon="2.87128">
        <ele>115.3</ele>
        <time>2019-12-25T19:24:33Z</time>
      </trkpt>
      <trkpt lat="42.41079" lon="2.87124">
        <ele>116.1</ele>
        <time>2019-12-25T19:24:39Z</time>
      </trkpt>
      <trkpt lat="42.41094" lon="2.87125">
        <ele>116.3</ele>
        <time>2019-12-25T19:24:45Z</time>
      </trkpt>
      <trkpt lat="42.41125" lon="2.87132">
        <ele>115.6</ele>
        <time>2019-12-25T19:25:07Z</time>
      </trkpt>
      <trkpt lat="42.41183" lon="2.87156">
        <ele>112.5</ele>
        <time>2019-12-25T19:25:15Z</time>
      </trkpt>
      <trkpt lat="42.41202" lon="2.87161">
        <ele>112.5</ele>
        <time>2019-12-25T19:25:17Z</time>
      </trkpt>
      <trkpt lat="42.41243" lon="2.87166">
        <ele>109.5</ele>
        <time>2019-12-25T19:25:31Z</time>
      </trkpt>
      <trkpt lat="42.4126" lon="2.87171">
        <ele>107.4</ele>
        <time>2019-12-25T19:25:34Z</time>
      </trkpt>
      <trkpt lat="42.41291" lon="2.87184">
        <ele>106.7</ele>
        <time>2019-12-25T19:25:40Z</time>
      </trkpt>
      <trkpt lat="42.4133" lon="2.8718">
        <ele>107.3</ele>
        <time>2019-12-25T19:25:45Z</time>
      </trkpt>
      <trkpt lat="42.41371" lon="2.87255">
        <ele>104.8</ele>
        <time>2019-12-25T19:26:15Z</time>
      </trkpt>
      <trkpt lat="42.41379" lon="2.87258">
        <ele>104.9</ele>
        <time>2019-12-25T19:26:23Z</time>
      </trkpt>
      <trkpt lat="42.41439" lon="2.87231">
        <ele>108.7</ele>
        <time>2019-12-25T19:26:28Z</time>
      </trkpt>
      <trkpt lat="42.41446" lon="2.87232">
        <ele>108.8</ele>
        <time>2019-12-25T19:26:28Z</time>
      </trkpt>
      <trkpt lat="42.4145" lon="2.87234">
        <ele>108.8</ele>
        <time>2019-12-25T19:26:31Z</time>
      </trkpt>
      <trkpt lat="42.41451" lon="2.87242">
        <ele>108.6</ele>
        <time>2019-12-25T19:26:32Z</time>
      </trkpt>
      <trkpt lat="42.41385" lon="2.87328">
        <ele>104</ele>
        <time>2019-12-25T19:26:34Z</time>
      </trkpt>
      <trkpt lat="42.41368" lon="2.87353">
        <ele>104.5</ele>
        <time>2019-12-25T19:26:36Z</time>
      </trkpt>
      <trkpt lat="42.41355" lon="2.87363">
        <ele>104.6</ele>
        <time>2019-12-25T19:26:45Z</time>
      </trkpt>
      <trkpt lat="42.41334" lon="2.87369">
        <ele>104.6</ele>
        <time>2019-12-25T19:26:50Z</time>
      </trkpt>
      <trkpt lat="42.41329" lon="2.87373">
        <ele>104.2</ele>
        <time>2019-12-25T19:26:54Z</time>
      </trkpt>
      <trkpt lat="42.41322" lon="2.87385">
        <ele>104.3</ele>
        <time>2019-12-25T19:27:01Z</time>
      </trkpt>
      <trkpt lat="42.41321" lon="2.874">
        <ele>104.4</ele>
        <time>2019-12-25T19:27:04Z</time>
      </trkpt>
      <trkpt lat="42.41323" lon="2.87409">
        <ele>104.6</ele>
        <time>2019-12-25T19:27:30Z</time>
      </trkpt>
      <trkpt lat="42.41328" lon="2.87416">
        <ele>104.8</ele>
        <time>2019-12-25T19:27:38Z</time>
      </trkpt>
      <trkpt lat="42.41334" lon="2.87421">
        <ele>105.4</ele>
        <time>2019-12-25T19:27:49Z</time>
      </trkpt>
      <trkpt lat="42.4134" lon="2.87423">
        <ele>105.8</ele>
        <time>2019-12-25T19:27:55Z</time>
      </trkpt>
      <trkpt lat="42.41351" lon="2.8742">
        <ele>106.3</ele>
        <time>2019-12-25T19:28:44Z</time>
      </trkpt>
      <trkpt lat="42.41359" lon="2.87409">
        <ele>105</ele>
        <time>2019-12-25T19:28:49Z</time>
      </trkpt>
      <trkpt lat="42.41361" lon="2.87402">
        <ele>105</ele>
        <time>2019-12-25T19:29:17Z</time>
      </trkpt>
      <trkpt lat="42.41364" lon="2.87378">
        <ele>104.8</ele>
        <time>2019-12-25T19:29:28Z</time>
      </trkpt>
      <trkpt lat="42.41375" lon="2.87354">
        <ele>104.5</ele>
        <time>2019-12-25T19:29:57Z</time>
      </trkpt>
      <trkpt lat="42.41456" lon="2.87248">
        <ele>108.5</ele>
        <time>2019-12-25T19:30:01Z</time>
      </trkpt>
      <trkpt lat="42.41467" lon="2.87238">
        <ele>108.7</ele>
        <time>2019-12-25T19:30:08Z</time>
      </trkpt>
      <trkpt lat="42.41492" lon="2.87221">
        <ele>109.3</ele>
        <time>2019-12-25T19:30:16Z</time>
      </trkpt>
      <trkpt lat="42.41511" lon="2.87213">
        <ele>110.6</ele>
        <time>2019-12-25T19:30:21Z</time>
      </trkpt>
      <trkpt lat="42.4156" lon="2.872">
        <ele>111.5</ele>
        <time>2019-12-25T19:30:45Z</time>
      </trkpt>
      <trkpt lat="42.41761" lon="2.87156">
        <ele>114.1</ele>
        <time>2019-12-25T19:30:51Z</time>
      </trkpt>
      <trkpt lat="42.41946" lon="2.87107">
        <ele>114.7</ele>
        <time>2019-12-25T19:30:56Z</time>
      </trkpt>
      <trkpt lat="42.42183" lon="2.87056">
        <ele>117</ele>
        <time>2019-12-25T19:31:02Z</time>
      </trkpt>
      <trkpt lat="42.42238" lon="2.87039">
        <ele>117.2</ele>
        <time>2019-12-25T19:31:08Z</time>
      </trkpt>
      <trkpt lat="42.42278" lon="2.8702">
        <ele>117</ele>
        <time>2019-12-25T19:31:15Z</time>
      </trkpt>
      <trkpt lat="42.42289" lon="2.87011">
        <ele>117</ele>
        <time>2019-12-25T19:31:26Z</time>
      </trkpt>
      <trkpt lat="42.42457" lon="2.86908">
        <ele>120.1</ele>
        <time>2019-12-25T19:31:35Z</time>
      </trkpt>
      <trkpt lat="42.42539" lon="2.8686">
        <ele>121.7</ele>
        <time>2019-12-25T19:31:48Z</time>
      </trkpt>
      <trkpt lat="42.42551" lon="2.86856">
        <ele>121.8</ele>
        <time>2019-12-25T19:31:51Z</time>
      </trkpt>
      <trkpt lat="42.42561" lon="2.86859">
        <ele>121.9</ele>
        <time>2019-12-25T19:31:57Z</time>
      </trkpt>
      <trkpt lat="42.4258" lon="2.86872">
        <ele>122</ele>
        <time>2019-12-25T19:32:04Z</time>
      </trkpt>
      <trkpt lat="42.42591" lon="2.86873">
        <ele>123.3</ele>
        <time>2019-12-25T19:32:09Z</time>
      </trkpt>
      <trkpt lat="42.42596" lon="2.86871">
        <ele>123.3</ele>
        <time>2019-12-25T19:32:14Z</time>
      </trkpt>
      <trkpt lat="42.42604" lon="2.86862">
        <ele>123.3</ele>
        <time>2019-12-25T19:32:18Z</time>
      </trkpt>
      <trkpt lat="42.42607" lon="2.86856">
        <ele>123.2</ele>
        <time>2019-12-25T19:32:27Z</time>
      </trkpt>
      <trkpt lat="42.4262" lon="2.86847">
        <ele>123.3</ele>
        <time>2019-12-25T19:32:30Z</time>
      </trkpt>
      <trkpt lat="42.42627" lon="2.86845">
        <ele>123.4</ele>
        <time>2019-12-25T19:32:35Z</time>
      </trkpt>
      <trkpt lat="42.42719" lon="2.86848">
        <ele>128.1</ele>
        <time>2019-12-25T19:32:38Z</time>
      </trkpt>
      <trkpt lat="42.42751" lon="2.86846">
        <ele>131.3</ele>
        <time>2019-12-25T19:32:42Z</time>
      </trkpt>
      <trkpt lat="42.42782" lon="2.86838">
        <ele>131.6</ele>
        <time>2019-12-25T19:32:46Z</time>
      </trkpt>
      <trkpt lat="42.42901" lon="2.86786">
        <ele>131.7</ele>
        <time>2019-12-25T19:32:49Z</time>
      </trkpt>
      <trkpt lat="42.42944" lon="2.8679">
        <ele>134.8</ele>
        <time>2019-12-25T19:33:36Z</time>
      </trkpt>
      <trkpt lat="42.42957" lon="2.86788">
        <ele>135.1</ele>
        <time>2019-12-25T19:33:40Z</time>
      </trkpt>
      <trkpt lat="42.43034" lon="2.86754">
        <ele>138.2</ele>
        <time>2019-12-25T19:34:07Z</time>
      </trkpt>
      <trkpt lat="42.43047" lon="2.86744">
        <ele>135.6</ele>
        <time>2019-12-25T19:34:13Z</time>
      </trkpt>
      <trkpt lat="42.43074" lon="2.86712">
        <ele>135.7</ele>
        <time>2019-12-25T19:34:16Z</time>
      </trkpt>
      <trkpt lat="42.43096" lon="2.86694">
        <ele>138.3</ele>
        <time>2019-12-25T19:34:22Z</time>
      </trkpt>
      <trkpt lat="42.43258" lon="2.86623">
        <ele>147.5</ele>
        <time>2019-12-25T19:34:24Z</time>
      </trkpt>
      <trkpt lat="42.43304" lon="2.86617">
        <ele>148.8</ele>
        <time>2019-12-25T19:34:28Z</time>
      </trkpt>
      <trkpt lat="42.43327" lon="2.86623">
        <ele>149.5</ele>
        <time>2019-12-25T19:34:36Z</time>
      </trkpt>
      <trkpt lat="42.4333" lon="2.86628">
        <ele>149.7</ele>
        <time>2019-12-25T19:35:00Z</time>
      </trkpt>
      <trkpt lat="42.4334" lon="2.86637">
        <ele>154.4</ele>
        <time>2019-12-25T19:36:00Z</time>
      </trkpt>
      <trkpt lat="42.43346" lon="2.86639">
        <ele>154.5</ele>
        <time>2019-12-25T19:36:03Z</time>
      </trkpt>
      <trkpt lat="42.43357" lon="2.86637">
        <ele>154.8</ele>
        <time>2019-12-25T19:36:05Z</time>
      </trkpt>
      <trkpt lat="42.43367" lon="2.86628">
        <ele>155</ele>
        <time>2019-12-25T19:36:13Z</time>
      </trkpt>
      <trkpt lat="42.43394" lon="2.86573">
        <ele>154.1</ele>
        <time>2019-12-25T19:36:22Z</time>
      </trkpt>
      <trkpt lat="42.43416" lon="2.86548">
        <ele>154.5</ele>
        <time>2019-12-25T19:36:26Z</time>
      </trkpt>
      <trkpt lat="42.43439" lon="2.86537">
        <ele>159.2</ele>
        <time>2019-12-25T19:36:29Z</time>
      </trkpt>
      <trkpt lat="42.43477" lon="2.86524">
        <ele>160.8</ele>
        <time>2019-12-25T19:36:34Z</time>
      </trkpt>
      <trkpt lat="42.43495" lon="2.8652">
        <ele>161.5</ele>
        <time>2019-12-25T19:36:41Z</time>
      </trkpt>
      <trkpt lat="42.43642" lon="2.8651">
        <ele>165.4</ele>
        <time>2019-12-25T19:36:52Z</time>
      </trkpt>
      <trkpt lat="42.43685" lon="2.8651">
        <ele>164.7</ele>
        <time>2019-12-25T19:36:56Z</time>
      </trkpt>
      <trkpt lat="42.43744" lon="2.86517">
        <ele>164.3</ele>
        <time>2019-12-25T19:37:08Z</time>
      </trkpt>
      <trkpt lat="42.43778" lon="2.86527">
        <ele>163.9</ele>
        <time>2019-12-25T19:37:16Z</time>
      </trkpt>
      <trkpt lat="42.44052" lon="2.86593">
        <ele>167.9</ele>
        <time>2019-12-25T19:37:20Z</time>
      </trkpt>
      <trkpt lat="42.44077" lon="2.86601">
        <ele>167</ele>
        <time>2019-12-25T19:37:25Z</time>
      </trkpt>
      <trkpt lat="42.44232" lon="2.86637">
        <ele>174.2</ele>
        <time>2019-12-25T19:37:29Z</time>
      </trkpt>
      <trkpt lat="42.44292" lon="2.86653">
        <ele>178.3</ele>
        <time>2019-12-25T19:37:34Z</time>
      </trkpt>
      <trkpt lat="42.44453" lon="2.8669">
        <ele>186.4</ele>
        <time>2019-12-25T19:37:45Z</time>
      </trkpt>
      <trkpt lat="42.44479" lon="2.86692">
        <ele>186.1</ele>
        <time>2019-12-25T19:37:48Z</time>
      </trkpt>
      <trkpt lat="42.44518" lon="2.86693">
        <ele>186.7</ele>
        <time>2019-12-25T19:37:52Z</time>
      </trkpt>
      <trkpt lat="42.44562" lon="2.86684">
        <ele>186.9</ele>
        <time>2019-12-25T19:37:56Z</time>
      </trkpt>
      <trkpt lat="42.44586" lon="2.86674">
        <ele>187.6</ele>
        <time>2019-12-25T19:38:01Z</time>
      </trkpt>
      <trkpt lat="42.44715" lon="2.8661">
        <ele>191.6</ele>
        <time>2019-12-25T19:38:06Z</time>
      </trkpt>
      <trkpt lat="42.44744" lon="2.86599">
        <ele>191.7</ele>
        <time>2019-12-25T19:38:12Z</time>
      </trkpt>
      <trkpt lat="42.44776" lon="2.8659">
        <ele>196.6</ele>
        <time>2019-12-25T19:38:18Z</time>
      </trkpt>
      <trkpt lat="42.44806" lon="2.86584">
        <ele>197.7</ele>
        <time>2019-12-25T19:38:40Z</time>
      </trkpt>
      <trkpt lat="42.44841" lon="2.86581">
        <ele>194</ele>
        <time>2019-12-25T19:38:42Z</time>
      </trkpt>
      <trkpt lat="42.44883" lon="2.86582">
        <ele>193.2</ele>
        <time>2019-12-25T19:38:46Z</time>
      </trkpt>
      <trkpt lat="42.44941" lon="2.86593">
        <ele>199.5</ele>
        <time>2019-12-25T19:38:49Z</time>
      </trkpt>
      <trkpt lat="42.4499" lon="2.86609">
        <ele>200.9</ele>
        <time>2019-12-25T19:38:56Z</time>
      </trkpt>
      <trkpt lat="42.45059" lon="2.86644">
        <ele>207.4</ele>
        <time>2019-12-25T19:38:59Z</time>
      </trkpt>
      <trkpt lat="42.45078" lon="2.86651">
        <ele>206.7</ele>
        <time>2019-12-25T19:39:06Z</time>
      </trkpt>
      <trkpt lat="42.4511" lon="2.86654">
        <ele>213.2</ele>
        <time>2019-12-25T19:39:07Z</time>
      </trkpt>
      <trkpt lat="42.4515" lon="2.86649">
        <ele>213.8</ele>
        <time>2019-12-25T19:39:09Z</time>
      </trkpt>
      <trkpt lat="42.45174" lon="2.86641">
        <ele>213.6</ele>
        <time>2019-12-25T19:39:14Z</time>
      </trkpt>
      <trkpt lat="42.45199" lon="2.86626">
        <ele>215.9</ele>
        <time>2019-12-25T19:39:16Z</time>
      </trkpt>
      <trkpt lat="42.45221" lon="2.86607">
        <ele>216.3</ele>
        <time>2019-12-25T19:39:16Z</time>
      </trkpt>
      <trkpt lat="42.45257" lon="2.86561">
        <ele>222.8</ele>
        <time>2019-12-25T19:39:19Z</time>
      </trkpt>
      <trkpt lat="42.45272" lon="2.86545">
        <ele>226.6</ele>
        <time>2019-12-25T19:39:24Z</time>
      </trkpt>
      <trkpt lat="42.45295" lon="2.86527">
        <ele>227.8</ele>
        <time>2019-12-25T19:39:25Z</time>
      </trkpt>
      <trkpt lat="42.4531" lon="2.86519">
        <ele>227.4</ele>
        <time>2019-12-25T19:39:26Z</time>
      </trkpt>
      <trkpt lat="42.45334" lon="2.86509">
        <ele>225.4</ele>
        <time>2019-12-25T19:39:28Z</time>
      </trkpt>
      <trkpt lat="42.45353" lon="2.86505">
        <ele>222.9</ele>
        <time>2019-12-25T19:39:30Z</time>
      </trkpt>
      <trkpt lat="42.45373" lon="2.86504">
        <ele>221</ele>
        <time>2019-12-25T19:39:42Z</time>
      </trkpt>
      <trkpt lat="42.45637" lon="2.86499">
        <ele>239.4</ele>
        <time>2019-12-25T19:39:46Z</time>
      </trkpt>
      <trkpt lat="42.45656" lon="2.86498">
        <ele>238.2</ele>
        <time>2019-12-25T19:39:48Z</time>
      </trkpt>
      <trkpt lat="42.45806" lon="2.86461">
        <ele>250.6</ele>
        <time>2019-12-25T19:39:50Z</time>
      </trkpt>
      <trkpt lat="42.45837" lon="2.86451">
        <ele>253.4</ele>
        <time>2019-12-25T19:39:51Z</time>
      </trkpt>
      <trkpt lat="42.45852" lon="2.86442">
        <ele>252.8</ele>
        <time>2019-12-25T19:39:56Z</time>
      </trkpt>
      <trkpt lat="42.45886" lon="2.86416">
        <ele>255.4</ele>
        <time>2019-12-25T19:39:57Z</time>
      </trkpt>
      <trkpt lat="42.45894" lon="2.86414">
        <ele>255</ele>
        <time>2019-12-25T19:39:59Z</time>
      </trkpt>
      <trkpt lat="42.45915" lon="2.8641">
        <ele>252.3</ele>
        <time>2019-12-25T19:40:01Z</time>
      </trkpt>
      <trkpt lat="42.45962" lon="2.86418">
        <ele>254.2</ele>
        <time>2019-12-25T19:40:05Z</time>
      </trkpt>
      <trkpt lat="42.46094" lon="2.86407">
        <ele>265.2</ele>
        <time>2019-12-25T19:40:11Z</time>
      </trkpt>
      <trkpt lat="42.46427" lon="2.86309">
        <ele>285.3</ele>
        <time>2019-12-25T19:40:13Z</time>
      </trkpt>
      <trkpt lat="42.4644" lon="2.86307">
        <ele>285.9</ele>
        <time>2019-12-25T19:40:14Z</time>
      </trkpt>
      <trkpt lat="42.46455" lon="2.86313">
        <ele>286.2</ele>
        <time>2019-12-25T19:40:17Z</time>
      </trkpt>
      <trkpt lat="42.465" lon="2.86318">
        <ele>287.1</ele>
        <time>2019-12-25T19:40:22Z</time>
      </trkpt>
      <trkpt lat="42.46549" lon="2.86319">
        <ele>287.5</ele>
        <time>2019-12-25T19:40:25Z</time>
      </trkpt>
      <trkpt lat="42.4657" lon="2.86317">
        <ele>287.2</ele>
        <time>2019-12-25T19:40:26Z</time>
      </trkpt>
      <trkpt lat="42.46585" lon="2.8631">
        <ele>285</ele>
        <time>2019-12-25T19:40:29Z</time>
      </trkpt>
      <trkpt lat="42.46611" lon="2.86295">
        <ele>284.3</ele>
        <time>2019-12-25T19:40:31Z</time>
      </trkpt>
      <trkpt lat="42.46646" lon="2.86264">
        <ele>282.9</ele>
        <time>2019-12-25T19:40:35Z</time>
      </trkpt>
      <trkpt lat="42.46704" lon="2.86235">
        <ele>279.5</ele>
        <time>2019-12-25T19:40:38Z</time>
      </trkpt>
      <trkpt lat="42.46724" lon="2.86221">
        <ele>278.4</ele>
        <time>2019-12-25T19:40:41Z</time>
      </trkpt>
      <trkpt lat="42.46773" lon="2.86156">
        <ele>274.9</ele>
        <time>2019-12-25T19:40:45Z</time>
      </trkpt>
      <trkpt lat="42.46807" lon="2.86126">
        <ele>270.5</ele>
        <time>2019-12-25T19:40:51Z</time>
      </trkpt>
      <trkpt lat="42.46825" lon="2.86104">
        <ele>269.6</ele>
        <time>2019-12-25T19:40:54Z</time>
      </trkpt>
      <trkpt lat="42.46841" lon="2.86074">
        <ele>262</ele>
        <time>2019-12-25T19:40:57Z</time>
      </trkpt>
      <trkpt lat="42.4685" lon="2.86042">
        <ele>259.1</ele>
        <time>2019-12-25T19:41:01Z</time>
      </trkpt>
      <trkpt lat="42.46855" lon="2.8601">
        <ele>261.6</ele>
        <time>2019-12-25T19:41:06Z</time>
      </trkpt>
      <trkpt lat="42.46859" lon="2.85924">
        <ele>262</ele>
        <time>2019-12-25T19:41:10Z</time>
      </trkpt>
      <trkpt lat="42.46864" lon="2.85898">
        <ele>263.4</ele>
        <time>2019-12-25T19:41:16Z</time>
      </trkpt>
      <trkpt lat="42.46872" lon="2.85873">
        <ele>262.5</ele>
        <time>2019-12-25T19:41:20Z</time>
      </trkpt>
      <trkpt lat="42.46885" lon="2.85844">
        <ele>260.6</ele>
        <time>2019-12-25T19:41:25Z</time>
      </trkpt>
      <trkpt lat="42.46903" lon="2.85818">
        <ele>266.7</ele>
        <time>2019-12-25T19:41:29Z</time>
      </trkpt>
      <trkpt lat="42.46927" lon="2.85793">
        <ele>256.7</ele>
        <time>2019-12-25T19:41:34Z</time>
      </trkpt>
      <trkpt lat="42.46957" lon="2.85776">
        <ele>255.7</ele>
        <time>2019-12-25T19:41:38Z</time>
      </trkpt>
      <trkpt lat="42.46986" lon="2.85766">
        <ele>252.4</ele>
        <time>2019-12-25T19:41:48Z</time>
      </trkpt>
      <trkpt lat="42.47112" lon="2.85761">
        <ele>237.6</ele>
        <time>2019-12-25T19:41:50Z</time>
      </trkpt>
      <trkpt lat="42.47125" lon="2.85765">
        <ele>238.1</ele>
        <time>2019-12-25T19:42:01Z</time>
      </trkpt>
      <trkpt lat="42.47144" lon="2.85775">
        <ele>238.7</ele>
        <time>2019-12-25T19:42:03Z</time>
      </trkpt>
      <trkpt lat="42.47138" lon="2.85795">
        <ele>239.2</ele>
        <time>2019-12-25T19:42:07Z</time>
      </trkpt>
      <trkpt lat="42.47144" lon="2.8585">
        <ele>247.5</ele>
        <time>2019-12-25T19:42:09Z</time>
      </trkpt>
      <trkpt lat="42.47138" lon="2.85874">
        <ele>249.1</ele>
        <time>2019-12-25T19:42:11Z</time>
      </trkpt>
      <trkpt lat="42.4712" lon="2.85913">
        <ele>250.8</ele>
        <time>2019-12-25T19:42:13Z</time>
      </trkpt>
      <trkpt lat="42.47128" lon="2.85909">
        <ele>251.4</ele>
        <time>2019-12-25T19:42:16Z</time>
      </trkpt>
      <trkpt lat="42.47137" lon="2.85897">
        <ele>251.5</ele>
        <time>2019-12-25T19:42:27Z</time>
      </trkpt>
      <trkpt lat="42.47151" lon="2.85865">
        <ele>248.9</ele>
        <time>2019-12-25T19:42:30Z</time>
      </trkpt>
      <trkpt lat="42.47158" lon="2.85861">
        <ele>248.8</ele>
        <time>2019-12-25T19:42:33Z</time>
      </trkpt>
      <trkpt lat="42.47163" lon="2.85864">
        <ele>249.2</ele>
        <time>2019-12-25T19:42:42Z</time>
      </trkpt>
      <trkpt lat="42.47172" lon="2.85879">
        <ele>259.8</ele>
        <time>2019-12-25T19:42:45Z</time>
      </trkpt>
      <trkpt lat="42.47183" lon="2.85913">
        <ele>262.3</ele>
        <time>2019-12-25T19:42:49Z</time>
      </trkpt>
      <trkpt lat="42.47189" lon="2.85919">
        <ele>270.6</ele>
        <time>2019-12-25T19:43:11Z</time>
      </trkpt>
      <trkpt lat="42.47195" lon="2.85918">
        <ele>271.8</ele>
        <time>2019-12-25T19:43:16Z</time>
      </trkpt>
      <trkpt lat="42.47202" lon="2.85912">
        <ele>263.6</ele>
        <time>2019-12-25T19:43:20Z</time>
      </trkpt>
      <trkpt lat="42.47207" lon="2.85898">
        <ele>263.5</ele>
        <time>2019-12-25T19:43:24Z</time>
      </trkpt>
      <trkpt lat="42.47231" lon="2.85815">
        <ele>254.5</ele>
        <time>2019-12-25T19:43:27Z</time>
      </trkpt>
      <trkpt lat="42.47246" lon="2.85787">
        <ele>251.9</ele>
        <time>2019-12-25T19:43:30Z</time>
      </trkpt>
      <trkpt lat="42.47255" lon="2.85776">
        <ele>258.4</ele>
        <time>2019-12-25T19:43:33Z</time>
      </trkpt>
      <trkpt lat="42.47263" lon="2.85776">
        <ele>259</ele>
        <time>2019-12-25T19:43:42Z</time>
      </trkpt>
      <trkpt lat="42.4727" lon="2.85782">
        <ele>260.4</ele>
        <time>2019-12-25T19:43:44Z</time>
      </trkpt>
      <trkpt lat="42.47287" lon="2.8581">
        <ele>264.2</ele>
        <time>2019-12-25T19:43:49Z</time>
      </trkpt>
      <trkpt lat="42.47294" lon="2.85817">
        <ele>265.3</ele>
        <time>2019-12-25T19:43:50Z</time>
      </trkpt>
      <trkpt lat="42.47302" lon="2.85818">
        <ele>266.3</ele>
        <time>2019-12-25T19:43:53Z</time>
      </trkpt>
      <trkpt lat="42.47315" lon="2.85812">
        <ele>267.4</ele>
        <time>2019-12-25T19:43:55Z</time>
      </trkpt>
      <trkpt lat="42.47327" lon="2.85792">
        <ele>265.1</ele>
        <time>2019-12-25T19:43:57Z</time>
      </trkpt>
      <trkpt lat="42.47341" lon="2.85749">
        <ele>259.7</ele>
        <time>2019-12-25T19:44:01Z</time>
      </trkpt>
      <trkpt lat="42.47349" lon="2.85739">
        <ele>258.3</ele>
        <time>2019-12-25T19:44:03Z</time>
      </trkpt>
      <trkpt lat="42.47358" lon="2.85737">
        <ele>258</ele>
        <time>2019-12-25T19:44:04Z</time>
      </trkpt>
      <trkpt lat="42.47372" lon="2.85745">
        <ele>259</ele>
        <time>2019-12-25T19:44:19Z</time>
      </trkpt>
      <trkpt lat="42.47396" lon="2.85769">
        <ele>273.1</ele>
        <time>2019-12-25T19:44:22Z</time>
      </trkpt>
      <trkpt lat="42.47409" lon="2.85775">
        <ele>273.8</ele>
        <time>2019-12-25T19:44:25Z</time>
      </trkpt>
      <trkpt lat="42.47417" lon="2.85773">
        <ele>280.2</ele>
        <time>2019-12-25T19:44:29Z</time>
      </trkpt>
      <trkpt lat="42.47429" lon="2.85764">
        <ele>279.1</ele>
        <time>2019-12-25T19:44:36Z</time>
      </trkpt>
      <trkpt lat="42.47435" lon="2.8575">
        <ele>272</ele>
        <time>2019-12-25T19:44:44Z</time>
      </trkpt>
      <trkpt lat="42.47444" lon="2.8572">
        <ele>271.9</ele>
        <time>2019-12-25T19:44:56Z</time>
      </trkpt>
      <trkpt lat="42.47452" lon="2.85705">
        <ele>271.6</ele>
        <time>2019-12-25T19:45:04Z</time>
      </trkpt>
      <trkpt lat="42.47466" lon="2.8569">
        <ele>272.5</ele>
        <time>2019-12-25T19:45:07Z</time>
      </trkpt>
      <trkpt lat="42.4749" lon="2.85677">
        <ele>275.6</ele>
        <time>2019-12-25T19:45:09Z</time>
      </trkpt>
      <trkpt lat="42.47512" lon="2.85649">
        <ele>281.7</ele>
        <time>2019-12-25T19:45:11Z</time>
      </trkpt>
      <trkpt lat="42.47524" lon="2.85627">
        <ele>283.1</ele>
        <time>2019-12-25T19:45:14Z</time>
      </trkpt>
      <trkpt lat="42.47528" lon="2.85603">
        <ele>282.9</ele>
        <time>2019-12-25T19:45:21Z</time>
      </trkpt>
      <trkpt lat="42.47529" lon="2.85575">
        <ele>282.9</ele>
        <time>2019-12-25T19:45:24Z</time>
      </trkpt>
      <trkpt lat="42.47525" lon="2.85541">
        <ele>283.9</ele>
        <time>2019-12-25T19:45:26Z</time>
      </trkpt>
      <trkpt lat="42.47519" lon="2.85513">
        <ele>284</ele>
        <time>2019-12-25T19:45:30Z</time>
      </trkpt>
      <trkpt lat="42.47523" lon="2.85466">
        <ele>284.2</ele>
        <time>2019-12-25T19:45:32Z</time>
      </trkpt>
      <trkpt lat="42.47522" lon="2.8543">
        <ele>282.8</ele>
        <time>2019-12-25T19:45:32Z</time>
      </trkpt>
      <trkpt lat="42.47524" lon="2.85392">
        <ele>279.3</ele>
        <time>2019-12-25T19:45:33Z</time>
      </trkpt>
      <trkpt lat="42.47532" lon="2.85364">
        <ele>278.4</ele>
        <time>2019-12-25T19:45:34Z</time>
      </trkpt>
      <trkpt lat="42.47546" lon="2.85339">
        <ele>278.7</ele>
        <time>2019-12-25T19:45:38Z</time>
      </trkpt>
      <trkpt lat="42.47565" lon="2.85317">
        <ele>274.8</ele>
        <time>2019-12-25T19:45:39Z</time>
      </trkpt>
      <trkpt lat="42.47614" lon="2.85279">
        <ele>280.3</ele>
        <time>2019-12-25T19:45:42Z</time>
      </trkpt>
      <trkpt lat="42.47622" lon="2.85266">
        <ele>280.3</ele>
        <time>2019-12-25T19:45:44Z</time>
      </trkpt>
      <trkpt lat="42.47648" lon="2.85189">
        <ele>275.4</ele>
        <time>2019-12-25T19:45:48Z</time>
      </trkpt>
      <trkpt lat="42.4765" lon="2.85173">
        <ele>276</ele>
        <time>2019-12-25T19:45:51Z</time>
      </trkpt>
      <trkpt lat="42.47643" lon="2.8515">
        <ele>272</ele>
        <time>2019-12-25T19:45:53Z</time>
      </trkpt>
      <trkpt lat="42.47632" lon="2.85137">
        <ele>270.2</ele>
        <time>2019-12-25T19:45:55Z</time>
      </trkpt>
      <trkpt lat="42.47629" lon="2.85123">
        <ele>269.6</ele>
        <time>2019-12-25T19:45:59Z</time>
      </trkpt>
      <trkpt lat="42.4763" lon="2.85107">
        <ele>269.5</ele>
        <time>2019-12-25T19:46:02Z</time>
      </trkpt>
      <trkpt lat="42.47636" lon="2.85085">
        <ele>270.2</ele>
        <time>2019-12-25T19:46:07Z</time>
      </trkpt>
      <trkpt lat="42.47668" lon="2.85013">
        <ele>273.4</ele>
        <time>2019-12-25T19:46:16Z</time>
      </trkpt>
      <trkpt lat="42.47676" lon="2.84998">
        <ele>271</ele>
        <time>2019-12-25T19:46:20Z</time>
      </trkpt>
      <trkpt lat="42.47689" lon="2.84987">
        <ele>270</ele>
        <time>2019-12-25T19:46:24Z</time>
      </trkpt>
      <trkpt lat="42.47739" lon="2.84958">
        <ele>268.3</ele>
        <time>2019-12-25T19:46:26Z</time>
      </trkpt>
      <trkpt lat="42.47755" lon="2.84947">
        <ele>268.6</ele>
        <time>2019-12-25T19:46:27Z</time>
      </trkpt>
      <trkpt lat="42.47769" lon="2.84931">
        <ele>267.7</ele>
        <time>2019-12-25T19:46:28Z</time>
      </trkpt>
      <trkpt lat="42.47844" lon="2.84798">
        <ele>248.2</ele>
        <time>2019-12-25T19:46:33Z</time>
      </trkpt>
      <trkpt lat="42.47858" lon="2.84762">
        <ele>243.6</ele>
        <time>2019-12-25T19:46:37Z</time>
      </trkpt>
      <trkpt lat="42.47873" lon="2.84739">
        <ele>232.4</ele>
        <time>2019-12-25T19:46:43Z</time>
      </trkpt>
      <trkpt lat="42.4789" lon="2.84722">
        <ele>233.3</ele>
        <time>2019-12-25T19:46:48Z</time>
      </trkpt>
      <trkpt lat="42.47908" lon="2.84714">
        <ele>234.1</ele>
        <time>2019-12-25T19:46:53Z</time>
      </trkpt>
      <trkpt lat="42.47919" lon="2.84703">
        <ele>245.3</ele>
        <time>2019-12-25T19:46:54Z</time>
      </trkpt>
      <trkpt lat="42.4793" lon="2.84678">
        <ele>239.3</ele>
        <time>2019-12-25T19:46:55Z</time>
      </trkpt>
      <trkpt lat="42.4796" lon="2.84625">
        <ele>234.3</ele>
        <time>2019-12-25T19:46:56Z</time>
      </trkpt>
      <trkpt lat="42.47962" lon="2.8461">
        <ele>233.6</ele>
        <time>2019-12-25T19:47:08Z</time>
      </trkpt>
      <trkpt lat="42.4796" lon="2.84576">
        <ele>225.8</ele>
        <time>2019-12-25T19:47:17Z</time>
      </trkpt>
      <trkpt lat="42.47961" lon="2.84563">
        <ele>225.7</ele>
        <time>2019-12-25T19:47:18Z</time>
      </trkpt>
      <trkpt lat="42.47966" lon="2.84544">
        <ele>226.1</ele>
        <time>2019-12-25T19:47:19Z</time>
      </trkpt>
      <trkpt lat="42.47966" lon="2.84528">
        <ele>225.7</ele>
        <time>2019-12-25T19:47:20Z</time>
      </trkpt>
      <trkpt lat="42.47962" lon="2.84515">
        <ele>224.6</ele>
        <time>2019-12-25T19:47:22Z</time>
      </trkpt>
      <trkpt lat="42.47949" lon="2.84494">
        <ele>212.5</ele>
        <time>2019-12-25T19:47:23Z</time>
      </trkpt>
      <trkpt lat="42.47944" lon="2.8448">
        <ele>210.8</ele>
        <time>2019-12-25T19:47:24Z</time>
      </trkpt>
      <trkpt lat="42.47947" lon="2.84469">
        <ele>210.9</ele>
        <time>2019-12-25T19:47:32Z</time>
      </trkpt>
      <trkpt lat="42.48017" lon="2.84408">
        <ele>214.6</ele>
        <time>2019-12-25T19:47:38Z</time>
      </trkpt>
      <trkpt lat="42.48031" lon="2.84405">
        <ele>213.7</ele>
        <time>2019-12-25T19:47:39Z</time>
      </trkpt>
      <trkpt lat="42.48048" lon="2.84409">
        <ele>215.1</ele>
        <time>2019-12-25T19:47:41Z</time>
      </trkpt>
      <trkpt lat="42.48075" lon="2.84412">
        <ele>222.2</ele>
        <time>2019-12-25T19:47:45Z</time>
      </trkpt>
      <trkpt lat="42.48113" lon="2.84408">
        <ele>220.4</ele>
        <time>2019-12-25T19:47:49Z</time>
      </trkpt>
      <trkpt lat="42.48153" lon="2.84395">
        <ele>220.2</ele>
        <time>2019-12-25T19:47:53Z</time>
      </trkpt>
      <trkpt lat="42.48212" lon="2.84349">
        <ele>217.3</ele>
        <time>2019-12-25T19:47:55Z</time>
      </trkpt>
      <trkpt lat="42.48254" lon="2.84322">
        <ele>211.6</ele>
        <time>2019-12-25T19:47:58Z</time>
      </trkpt>
      <trkpt lat="42.48272" lon="2.84316">
        <ele>206.8</ele>
        <time>2019-12-25T19:48:01Z</time>
      </trkpt>
      <trkpt lat="42.4828" lon="2.84307">
        <ele>204.7</ele>
        <time>2019-12-25T19:48:05Z</time>
      </trkpt>
      <trkpt lat="42.48284" lon="2.84295">
        <ele>203.9</ele>
        <time>2019-12-25T19:48:08Z</time>
      </trkpt>
      <trkpt lat="42.48287" lon="2.84274">
        <ele>203.7</ele>
        <time>2019-12-25T19:48:13Z</time>
      </trkpt>
      <trkpt lat="42.483" lon="2.84224">
        <ele>198</ele>
        <time>2019-12-25T19:48:16Z</time>
      </trkpt>
      <trkpt lat="42.48304" lon="2.84195">
        <ele>196.3</ele>
        <time>2019-12-25T19:48:20Z</time>
      </trkpt>
      <trkpt lat="42.48302" lon="2.84182">
        <ele>195.7</ele>
        <time>2019-12-25T19:48:31Z</time>
      </trkpt>
      <trkpt lat="42.48291" lon="2.84158">
        <ele>184</ele>
        <time>2019-12-25T19:48:35Z</time>
      </trkpt>
      <trkpt lat="42.4829" lon="2.84145">
        <ele>182.8</ele>
        <time>2019-12-25T19:48:55Z</time>
      </trkpt>
      <trkpt lat="42.48292" lon="2.8414">
        <ele>182.3</ele>
        <time>2019-12-25T19:49:01Z</time>
      </trkpt>
      <trkpt lat="42.48297" lon="2.84138">
        <ele>182.4</ele>
        <time>2019-12-25T19:49:02Z</time>
      </trkpt>
      <trkpt lat="42.48303" lon="2.8414">
        <ele>183</ele>
        <time>2019-12-25T19:49:02Z</time>
      </trkpt>
      <trkpt lat="42.4832" lon="2.84154">
        <ele>187.1</ele>
        <time>2019-12-25T19:49:03Z</time>
      </trkpt>
      <trkpt lat="42.48328" lon="2.84154">
        <ele>188.4</ele>
        <time>2019-12-25T19:49:04Z</time>
      </trkpt>
      <trkpt lat="42.48339" lon="2.84145">
        <ele>187.3</ele>
        <time>2019-12-25T19:49:10Z</time>
      </trkpt>
      <trkpt lat="42.48354" lon="2.84138">
        <ele>185.4</ele>
        <time>2019-12-25T19:49:17Z</time>
      </trkpt>
      <trkpt lat="42.48375" lon="2.84136">
        <ele>184.1</ele>
        <time>2019-12-25T19:49:18Z</time>
      </trkpt>
      <trkpt lat="42.48391" lon="2.84143">
        <ele>183.3</ele>
        <time>2019-12-25T19:49:21Z</time>
      </trkpt>
      <trkpt lat="42.48404" lon="2.84145">
        <ele>182.5</ele>
        <time>2019-12-25T19:49:25Z</time>
      </trkpt>
      <trkpt lat="42.48413" lon="2.84139">
        <ele>182.6</ele>
        <time>2019-12-25T19:49:26Z</time>
      </trkpt>
      <trkpt lat="42.48424" lon="2.84115">
        <ele>174.8</ele>
        <time>2019-12-25T19:49:27Z</time>
      </trkpt>
      <trkpt lat="42.48429" lon="2.84092">
        <ele>178.3</ele>
        <time>2019-12-25T19:49:29Z</time>
      </trkpt>
      <trkpt lat="42.48433" lon="2.84052">
        <ele>173</ele>
        <time>2019-12-25T19:49:31Z</time>
      </trkpt>
      <trkpt lat="42.48434" lon="2.83986">
        <ele>168.8</ele>
        <time>2019-12-25T19:50:02Z</time>
      </trkpt>
      <trkpt lat="42.48431" lon="2.83955">
        <ele>166.8</ele>
        <time>2019-12-25T19:50:29Z</time>
      </trkpt>
      <trkpt lat="42.48424" lon="2.8393">
        <ele>164.6</ele>
        <time>2019-12-25T19:50:32Z</time>
      </trkpt>
      <trkpt lat="42.48422" lon="2.83911">
        <ele>162</ele>
        <time>2019-12-25T19:50:45Z</time>
      </trkpt>
      <trkpt lat="42.48424" lon="2.83906">
        <ele>161.9</ele>
        <time>2019-12-25T19:50:49Z</time>
      </trkpt>
      <trkpt lat="42.48431" lon="2.839">
        <ele>161.9</ele>
        <time>2019-12-25T19:50:53Z</time>
      </trkpt>
      <trkpt lat="42.48455" lon="2.83897">
        <ele>162.9</ele>
        <time>2019-12-25T19:51:06Z</time>
      </trkpt>
      <trkpt lat="42.48481" lon="2.83889">
        <ele>164.3</ele>
        <time>2019-12-25T19:51:11Z</time>
      </trkpt>
      <trkpt lat="42.48507" lon="2.83862">
        <ele>161.1</ele>
        <time>2019-12-25T19:51:12Z</time>
      </trkpt>
      <trkpt lat="42.48523" lon="2.83836">
        <ele>160.1</ele>
        <time>2019-12-25T19:51:14Z</time>
      </trkpt>
      <trkpt lat="42.48539" lon="2.83805">
        <ele>154.2</ele>
        <time>2019-12-25T19:51:16Z</time>
      </trkpt>
      <trkpt lat="42.48542" lon="2.83797">
        <ele>153.7</ele>
        <time>2019-12-25T19:51:21Z</time>
      </trkpt>
      <trkpt lat="42.48542" lon="2.83788">
        <ele>153.3</ele>
        <time>2019-12-25T19:51:25Z</time>
      </trkpt>
      <trkpt lat="42.4854" lon="2.83779">
        <ele>153.2</ele>
        <time>2019-12-25T19:51:38Z</time>
      </trkpt>
      <trkpt lat="42.485" lon="2.83712">
        <ele>150.1</ele>
        <time>2019-12-25T19:51:41Z</time>
      </trkpt>
      <trkpt lat="42.4846" lon="2.83663">
        <ele>143.6</ele>
        <time>2019-12-25T19:51:47Z</time>
      </trkpt>
      <trkpt lat="42.48459" lon="2.83655">
        <ele>143.3</ele>
        <time>2019-12-25T19:52:03Z</time>
      </trkpt>
      <trkpt lat="42.4846" lon="2.83646">
        <ele>143.1</ele>
        <time>2019-12-25T19:52:11Z</time>
      </trkpt>
      <trkpt lat="42.48465" lon="2.83642">
        <ele>143.2</ele>
        <time>2019-12-25T19:52:13Z</time>
      </trkpt>
      <trkpt lat="42.48471" lon="2.83639">
        <ele>143.3</ele>
        <time>2019-12-25T19:52:15Z</time>
      </trkpt>
      <trkpt lat="42.48478" lon="2.83638">
        <ele>143.6</ele>
        <time>2019-12-25T19:52:23Z</time>
      </trkpt>
      <trkpt lat="42.48487" lon="2.8364">
        <ele>144.2</ele>
        <time>2019-12-25T19:52:32Z</time>
      </trkpt>
      <trkpt lat="42.48525" lon="2.83655">
        <ele>142.1</ele>
        <time>2019-12-25T19:52:34Z</time>
      </trkpt>
      <trkpt lat="42.48559" lon="2.83671">
        <ele>142.9</ele>
        <time>2019-12-25T19:52:36Z</time>
      </trkpt>
      <trkpt lat="42.48563" lon="2.83676">
        <ele>142.5</ele>
        <time>2019-12-25T19:52:44Z</time>
      </trkpt>
      <trkpt lat="42.48568" lon="2.8369">
        <ele>143.3</ele>
        <time>2019-12-25T19:53:00Z</time>
      </trkpt>
      <trkpt lat="42.4857" lon="2.8372">
        <ele>145.5</ele>
        <time>2019-12-25T19:53:05Z</time>
      </trkpt>
      <trkpt lat="42.48577" lon="2.83748">
        <ele>145.4</ele>
        <time>2019-12-25T19:53:09Z</time>
      </trkpt>
      <trkpt lat="42.48589" lon="2.83773">
        <ele>144.7</ele>
        <time>2019-12-25T19:53:22Z</time>
      </trkpt>
      <trkpt lat="42.486" lon="2.83785">
        <ele>144.7</ele>
        <time>2019-12-25T19:53:25Z</time>
      </trkpt>
      <trkpt lat="42.48612" lon="2.83793">
        <ele>144.6</ele>
        <time>2019-12-25T19:53:31Z</time>
      </trkpt>
      <trkpt lat="42.48629" lon="2.83798">
        <ele>144</ele>
        <time>2019-12-25T19:53:42Z</time>
      </trkpt>
      <trkpt lat="42.48613" lon="2.83776">
        <ele>144.1</ele>
        <time>2019-12-25T19:53:53Z</time>
      </trkpt>
      <trkpt lat="42.48604" lon="2.83754">
        <ele>144.2</ele>
        <time>2019-12-25T19:53:58Z</time>
      </trkpt>
      <trkpt lat="42.48594" lon="2.83721">
        <ele>139.7</ele>
        <time>2019-12-25T19:54:03Z</time>
      </trkpt>
      <trkpt lat="42.48592" lon="2.83696">
        <ele>137.8</ele>
        <time>2019-12-25T19:54:09Z</time>
      </trkpt>
      <trkpt lat="42.48595" lon="2.83665">
        <ele>134.2</ele>
        <time>2019-12-25T19:54:15Z</time>
      </trkpt>
      <trkpt lat="42.48593" lon="2.83585">
        <ele>130.4</ele>
        <time>2019-12-25T19:54:20Z</time>
      </trkpt>
      <trkpt lat="42.48608" lon="2.83561">
        <ele>131.2</ele>
        <time>2019-12-25T19:54:23Z</time>
      </trkpt>
      <trkpt lat="42.48685" lon="2.83449">
        <ele>127.3</ele>
        <time>2019-12-25T19:54:25Z</time>
      </trkpt>
      <trkpt lat="42.48692" lon="2.83406">
        <ele>128.8</ele>
        <time>2019-12-25T19:54:28Z</time>
      </trkpt>
      <trkpt lat="42.48697" lon="2.83404">
        <ele>128.5</ele>
        <time>2019-12-25T19:54:32Z</time>
      </trkpt>
      <trkpt lat="42.48699" lon="2.83399">
        <ele>128.4</ele>
        <time>2019-12-25T19:54:38Z</time>
      </trkpt>
      <trkpt lat="42.48698" lon="2.83393">
        <ele>128.5</ele>
        <time>2019-12-25T19:54:41Z</time>
      </trkpt>
      <trkpt lat="42.48694" lon="2.8339">
        <ele>128.7</ele>
        <time>2019-12-25T19:54:45Z</time>
      </trkpt>
      <trkpt lat="42.48701" lon="2.83348">
        <ele>129.2</ele>
        <time>2019-12-25T19:54:48Z</time>
      </trkpt>
      <trkpt lat="42.48722" lon="2.83301">
        <ele>130</ele>
        <time>2019-12-25T19:54:51Z</time>
      </trkpt>
      <trkpt lat="42.48729" lon="2.83296">
        <ele>130</ele>
        <time>2019-12-25T19:55:02Z</time>
      </trkpt>
      <trkpt lat="42.48744" lon="2.83292">
        <ele>129.8</ele>
        <time>2019-12-25T19:55:07Z</time>
      </trkpt>
      <trkpt lat="42.48759" lon="2.83272">
        <ele>126.6</ele>
        <time>2019-12-25T19:55:18Z</time>
      </trkpt>
      <trkpt lat="42.48767" lon="2.83268">
        <ele>126.4</ele>
        <time>2019-12-25T19:55:26Z</time>
      </trkpt>
      <trkpt lat="42.48774" lon="2.83267">
        <ele>125.9</ele>
        <time>2019-12-25T19:55:35Z</time>
      </trkpt>
      <trkpt lat="42.48778" lon="2.8326">
        <ele>125.9</ele>
        <time>2019-12-25T19:55:49Z</time>
      </trkpt>
      <trkpt lat="42.48782" lon="2.83246">
        <ele>125.8</ele>
        <time>2019-12-25T19:55:54Z</time>
      </trkpt>
      <trkpt lat="42.48878" lon="2.83041">
        <ele>115</ele>
        <time>2019-12-25T19:55:58Z</time>
      </trkpt>
      <trkpt lat="42.48954" lon="2.82867">
        <ele>112.3</ele>
        <time>2019-12-25T19:56:01Z</time>
      </trkpt>
      <trkpt lat="42.48967" lon="2.82856">
        <ele>112</ele>
        <time>2019-12-25T19:56:10Z</time>
      </trkpt>
      <trkpt lat="42.49034" lon="2.82812">
        <ele>112.8</ele>
        <time>2019-12-25T19:56:13Z</time>
      </trkpt>
      <trkpt lat="42.4905" lon="2.82791">
        <ele>113.3</ele>
        <time>2019-12-25T19:56:14Z</time>
      </trkpt>
      <trkpt lat="42.49056" lon="2.82761">
        <ele>113.5</ele>
        <time>2019-12-25T19:56:17Z</time>
      </trkpt>
      <trkpt lat="42.49063" lon="2.82659">
        <ele>111.3</ele>
        <time>2019-12-25T19:56:34Z</time>
      </trkpt>
      <trkpt lat="42.49073" lon="2.82625">
        <ele>111</ele>
        <time>2019-12-25T19:59:58Z</time>
      </trkpt>
      <trkpt lat="42.49101" lon="2.82624">
        <ele>111.7</ele>
        <time>2019-12-25T20:00:05Z</time>
      </trkpt>
      <trkpt lat="42.49114" lon="2.82583">
        <ele>108.8</ele>
        <time>2019-12-25T20:00:13Z</time>
      </trkpt>
      <trkpt lat="42.49121" lon="2.82554">
        <ele>108.3</ele>
        <time>2019-12-25T20:00:25Z</time>
      </trkpt>
      <trkpt lat="42.49158" lon="2.82483">
        <ele>105.3</ele>
        <time>2019-12-25T20:00:26Z</time>
      </trkpt>
      <trkpt lat="42.49179" lon="2.82462">
        <ele>104</ele>
        <time>2019-12-25T20:00:34Z</time>
      </trkpt>
      <trkpt lat="42.49205" lon="2.82449">
        <ele>103.7</ele>
        <time>2019-12-25T20:00:45Z</time>
      </trkpt>
      <trkpt lat="42.4924" lon="2.82435">
        <ele>103</ele>
        <time>2019-12-25T20:00:55Z</time>
      </trkpt>
      <trkpt lat="42.49273" lon="2.82428">
        <ele>102.7</ele>
        <time>2019-12-25T20:01:18Z</time>
      </trkpt>
      <trkpt lat="42.49298" lon="2.82418">
        <ele>102.9</ele>
        <time>2019-12-25T20:01:25Z</time>
      </trkpt>
      <trkpt lat="42.49312" lon="2.82407">
        <ele>104.8</ele>
        <time>2019-12-25T20:01:30Z</time>
      </trkpt>
      <trkpt lat="42.49322" lon="2.82395">
        <ele>105.1</ele>
        <time>2019-12-25T20:01:32Z</time>
      </trkpt>
      <trkpt lat="42.49332" lon="2.82381">
        <ele>105.8</ele>
        <time>2019-12-25T20:01:34Z</time>
      </trkpt>
      <trkpt lat="42.4934" lon="2.82354">
        <ele>106</ele>
        <time>2019-12-25T20:01:41Z</time>
      </trkpt>
      <trkpt lat="42.49344" lon="2.82309">
        <ele>110.5</ele>
        <time>2019-12-25T20:01:45Z</time>
      </trkpt>
      <trkpt lat="42.49348" lon="2.82285">
        <ele>112.7</ele>
        <time>2019-12-25T20:01:48Z</time>
      </trkpt>
      <trkpt lat="42.4936" lon="2.82255">
        <ele>114.3</ele>
        <time>2019-12-25T20:01:51Z</time>
      </trkpt>
      <trkpt lat="42.4937" lon="2.82239">
        <ele>123</ele>
        <time>2019-12-25T20:01:57Z</time>
      </trkpt>
      <trkpt lat="42.49388" lon="2.82232">
        <ele>120.9</ele>
        <time>2019-12-25T20:02:04Z</time>
      </trkpt>
      <trkpt lat="42.49445" lon="2.82218">
        <ele>110.7</ele>
        <time>2019-12-25T20:02:06Z</time>
      </trkpt>
      <trkpt lat="42.49474" lon="2.82199">
        <ele>110.4</ele>
        <time>2019-12-25T20:02:10Z</time>
      </trkpt>
      <trkpt lat="42.49515" lon="2.82145">
        <ele>109.9</ele>
        <time>2019-12-25T20:02:11Z</time>
      </trkpt>
      <trkpt lat="42.49546" lon="2.82095">
        <ele>110.6</ele>
        <time>2019-12-25T20:02:12Z</time>
      </trkpt>
      <trkpt lat="42.49575" lon="2.82041">
        <ele>115.5</ele>
        <time>2019-12-25T20:02:13Z</time>
      </trkpt>
      <trkpt lat="42.49616" lon="2.81947">
        <ele>115.8</ele>
        <time>2019-12-25T20:02:16Z</time>
      </trkpt>
      <trkpt lat="42.49623" lon="2.81911">
        <ele>120.6</ele>
        <time>2019-12-25T20:02:21Z</time>
      </trkpt>
      <trkpt lat="42.49636" lon="2.81884">
        <ele>120.3</ele>
        <time>2019-12-25T20:02:48Z</time>
      </trkpt>
      <trkpt lat="42.49639" lon="2.81864">
        <ele>120.8</ele>
        <time>2019-12-25T20:02:50Z</time>
      </trkpt>
      <trkpt lat="42.49664" lon="2.81804">
        <ele>123.3</ele>
        <time>2019-12-25T20:02:51Z</time>
      </trkpt>
      <trkpt lat="42.49671" lon="2.81784">
        <ele>115.5</ele>
        <time>2019-12-25T20:02:52Z</time>
      </trkpt>
      <trkpt lat="42.49672" lon="2.81773">
        <ele>116.4</ele>
        <time>2019-12-25T20:02:54Z</time>
      </trkpt>
      <trkpt lat="42.49668" lon="2.8175">
        <ele>120.6</ele>
        <time>2019-12-25T20:02:55Z</time>
      </trkpt>
      <trkpt lat="42.49625" lon="2.81642">
        <ele>121.9</ele>
        <time>2019-12-25T20:03:03Z</time>
      </trkpt>
      <trkpt lat="42.49592" lon="2.81594">
        <ele>121.9</ele>
        <time>2019-12-25T20:03:08Z</time>
      </trkpt>
      <trkpt lat="42.49577" lon="2.81581">
        <ele>122.5</ele>
        <time>2019-12-25T20:03:18Z</time>
      </trkpt>
      <trkpt lat="42.49556" lon="2.81571">
        <ele>123.7</ele>
        <time>2019-12-25T20:03:29Z</time>
      </trkpt>
      <trkpt lat="42.49541" lon="2.81562">
        <ele>124.4</ele>
        <time>2019-12-25T20:03:40Z</time>
      </trkpt>
      <trkpt lat="42.49529" lon="2.81547">
        <ele>124.6</ele>
        <time>2019-12-25T20:03:41Z</time>
      </trkpt>
      <trkpt lat="42.49465" lon="2.81438">
        <ele>126</ele>
        <time>2019-12-25T20:03:47Z</time>
      </trkpt>
      <trkpt lat="42.4944" lon="2.81406">
        <ele>125.7</ele>
        <time>2019-12-25T20:03:48Z</time>
      </trkpt>
      <trkpt lat="42.49408" lon="2.81386">
        <ele>127.1</ele>
        <time>2019-12-25T20:04:02Z</time>
      </trkpt>
      <trkpt lat="42.49386" lon="2.81375">
        <ele>127.2</ele>
        <time>2019-12-25T20:04:10Z</time>
      </trkpt>
      <trkpt lat="42.49359" lon="2.81366">
        <ele>127.3</ele>
        <time>2019-12-25T20:04:22Z</time>
      </trkpt>
      <trkpt lat="42.49316" lon="2.81345">
        <ele>129.3</ele>
        <time>2019-12-25T20:04:26Z</time>
      </trkpt>
      <trkpt lat="42.49201" lon="2.81314">
        <ele>136.7</ele>
        <time>2019-12-25T20:04:34Z</time>
      </trkpt>
      <trkpt lat="42.4918" lon="2.8129">
        <ele>136.7</ele>
        <time>2019-12-25T20:04:56Z</time>
      </trkpt>
      <trkpt lat="42.49168" lon="2.81268">
        <ele>136.2</ele>
        <time>2019-12-25T20:08:05Z</time>
      </trkpt>
      <trkpt lat="42.49162" lon="2.81242">
        <ele>135.9</ele>
        <time>2019-12-25T20:08:15Z</time>
      </trkpt>
      <trkpt lat="42.49163" lon="2.81122">
        <ele>130.7</ele>
        <time>2019-12-25T20:08:18Z</time>
      </trkpt>
      <trkpt lat="42.49147" lon="2.81014">
        <ele>128.8</ele>
        <time>2019-12-25T20:08:21Z</time>
      </trkpt>
      <trkpt lat="42.49116" lon="2.80845">
        <ele>128.4</ele>
        <time>2019-12-25T20:09:19Z</time>
      </trkpt>
      <trkpt lat="42.49108" lon="2.80789">
        <ele>128.5</ele>
        <time>2019-12-25T20:09:24Z</time>
      </trkpt>
      <trkpt lat="42.49097" lon="2.80754">
        <ele>129.2</ele>
        <time>2019-12-25T20:09:47Z</time>
      </trkpt>
      <trkpt lat="42.49091" lon="2.80743">
        <ele>129.2</ele>
        <time>2019-12-25T20:10:10Z</time>
      </trkpt>
      <trkpt lat="42.49087" lon="2.8073">
        <ele>128.8</ele>
        <time>2019-12-25T20:10:14Z</time>
      </trkpt>
      <trkpt lat="42.49078" lon="2.80672">
        <ele>130.1</ele>
        <time>2019-12-25T20:10:19Z</time>
      </trkpt>
      <trkpt lat="42.49071" lon="2.80644">
        <ele>126.8</ele>
        <time>2019-12-25T20:10:26Z</time>
      </trkpt>
      <trkpt lat="42.49066" lon="2.80628">
        <ele>125.5</ele>
        <time>2019-12-25T20:10:34Z</time>
      </trkpt>
      <trkpt lat="42.49056" lon="2.80608">
        <ele>124.1</ele>
        <time>2019-12-25T20:11:06Z</time>
      </trkpt>
      <trkpt lat="42.49026" lon="2.80585">
        <ele>123.7</ele>
        <time>2019-12-25T20:11:10Z</time>
      </trkpt>
      <trkpt lat="42.48989" lon="2.80561">
        <ele>118.9</ele>
        <time>2019-12-25T20:11:16Z</time>
      </trkpt>
      <trkpt lat="42.48977" lon="2.80561">
        <ele>118.4</ele>
        <time>2019-12-25T20:11:20Z</time>
      </trkpt>
      <trkpt lat="42.48959" lon="2.80569">
        <ele>118.1</ele>
        <time>2019-12-25T20:11:28Z</time>
      </trkpt>
      <trkpt lat="42.48957" lon="2.80561">
        <ele>117.8</ele>
        <time>2019-12-25T20:11:57Z</time>
      </trkpt>
      <trkpt lat="42.48952" lon="2.80556">
        <ele>117.6</ele>
        <time>2019-12-25T20:12:09Z</time>
      </trkpt>
      <trkpt lat="42.48949" lon="2.8055">
        <ele>117.4</ele>
        <time>2019-12-25T20:12:42Z</time>
      </trkpt>
      <trkpt lat="42.48948" lon="2.80527">
        <ele>116.6</ele>
        <time>2019-12-25T20:12:51Z</time>
      </trkpt>
      <trkpt lat="42.48959" lon="2.80487">
        <ele>115</ele>
        <time>2019-12-25T20:13:04Z</time>
      </trkpt>
      <trkpt lat="42.49016" lon="2.80299">
        <ele>123.6</ele>
        <time>2019-12-25T20:13:12Z</time>
      </trkpt>
      <trkpt lat="42.49025" lon="2.80301">
        <ele>123.6</ele>
        <time>2019-12-25T20:13:13Z</time>
      </trkpt>
      <trkpt lat="42.49032" lon="2.80295">
        <ele>123.9</ele>
        <time>2019-12-25T20:13:14Z</time>
      </trkpt>
      <trkpt lat="42.49034" lon="2.80289">
        <ele>124.2</ele>
        <time>2019-12-25T20:13:15Z</time>
      </trkpt>
      <trkpt lat="42.49032" lon="2.80275">
        <ele>124.9</ele>
        <time>2019-12-25T20:13:16Z</time>
      </trkpt>
      <trkpt lat="42.49029" lon="2.80272">
        <ele>125.1</ele>
        <time>2019-12-25T20:13:17Z</time>
      </trkpt>
      <trkpt lat="42.4905" lon="2.80219">
        <ele>130.9</ele>
        <time>2019-12-25T20:13:18Z</time>
      </trkpt>
      <trkpt lat="42.49063" lon="2.80179">
        <ele>132.6</ele>
        <time>2019-12-25T20:13:27Z</time>
      </trkpt>
      <trkpt lat="42.49082" lon="2.80107">
        <ele>134.9</ele>
        <time>2019-12-25T20:14:21Z</time>
      </trkpt>
      <trkpt lat="42.49098" lon="2.80032">
        <ele>134.1</ele>
        <time>2019-12-25T20:14:30Z</time>
      </trkpt>
      <trkpt lat="42.49119" lon="2.79949">
        <ele>133</ele>
        <time>2019-12-25T20:14:33Z</time>
      </trkpt>
      <trkpt lat="42.49124" lon="2.7995">
        <ele>133</ele>
        <time>2019-12-25T20:14:35Z</time>
      </trkpt>
      <trkpt lat="42.49129" lon="2.79948">
        <ele>132.9</ele>
        <time>2019-12-25T20:14:35Z</time>
      </trkpt>
      <trkpt lat="42.49133" lon="2.79944">
        <ele>132.9</ele>
        <time>2019-12-25T20:14:36Z</time>
      </trkpt>
      <trkpt lat="42.49136" lon="2.79938">
        <ele>132.8</ele>
        <time>2019-12-25T20:14:37Z</time>
      </trkpt>
      <trkpt lat="42.49136" lon="2.79927">
        <ele>132.7</ele>
        <time>2019-12-25T20:14:38Z</time>
      </trkpt>
      <trkpt lat="42.49131" lon="2.79917">
        <ele>132.8</ele>
        <time>2019-12-25T20:14:39Z</time>
      </trkpt>
      <trkpt lat="42.49127" lon="2.79914">
        <ele>133</ele>
        <time>2019-12-25T20:14:45Z</time>
      </trkpt>
      <trkpt lat="42.4915" lon="2.79811">
        <ele>134.4</ele>
        <time>2019-12-25T20:15:16Z</time>
      </trkpt>
      <trkpt lat="42.49158" lon="2.79746">
        <ele>134.2</ele>
        <time>2019-12-25T20:15:23Z</time>
      </trkpt>
      <trkpt lat="42.49173" lon="2.79659">
        <ele>132.5</ele>
        <time>2019-12-25T20:15:27Z</time>
      </trkpt>
      <trkpt lat="42.49183" lon="2.79635">
        <ele>133.3</ele>
        <time>2019-12-25T20:15:29Z</time>
      </trkpt>
      <trkpt lat="42.49214" lon="2.79589">
        <ele>133.8</ele>
        <time>2019-12-25T20:15:32Z</time>
      </trkpt>
      <trkpt lat="42.49282" lon="2.79449">
        <ele>134.6</ele>
        <time>2019-12-25T20:15:34Z</time>
      </trkpt>
      <trkpt lat="42.49302" lon="2.79397">
        <ele>135.7</ele>
        <time>2019-12-25T20:15:41Z</time>
      </trkpt>
      <trkpt lat="42.49315" lon="2.79283">
        <ele>134.9</ele>
        <time>2019-12-25T20:15:43Z</time>
      </trkpt>
      <trkpt lat="42.49341" lon="2.78822">
        <ele>132.3</ele>
        <time>2019-12-25T20:15:46Z</time>
      </trkpt>
      <trkpt lat="42.49344" lon="2.7873">
        <ele>131.4</ele>
        <time>2019-12-25T20:16:03Z</time>
      </trkpt>
      <trkpt lat="42.49305" lon="2.78418">
        <ele>133.3</ele>
        <time>2019-12-25T20:16:05Z</time>
      </trkpt>
      <trkpt lat="42.49286" lon="2.783">
        <ele>133.3</ele>
        <time>2019-12-25T20:16:12Z</time>
      </trkpt>
      <trkpt lat="42.49277" lon="2.78276">
        <ele>133.7</ele>
        <time>2019-12-25T20:16:23Z</time>
      </trkpt>
      <trkpt lat="42.49264" lon="2.78247">
        <ele>134.8</ele>
        <time>2019-12-25T20:16:32Z</time>
      </trkpt>
      <trkpt lat="42.49244" lon="2.78217">
        <ele>136.7</ele>
        <time>2019-12-25T20:16:34Z</time>
      </trkpt>
      <trkpt lat="42.49232" lon="2.78195">
        <ele>136.6</ele>
        <time>2019-12-25T20:16:49Z</time>
      </trkpt>
      <trkpt lat="42.49209" lon="2.7814">
        <ele>137.3</ele>
        <time>2019-12-25T20:16:56Z</time>
      </trkpt>
      <trkpt lat="42.49189" lon="2.78057">
        <ele>138.6</ele>
        <time>2019-12-25T20:17:03Z</time>
      </trkpt>
      <trkpt lat="42.49175" lon="2.77986">
        <ele>139.1</ele>
        <time>2019-12-25T20:17:13Z</time>
      </trkpt>
      <trkpt lat="42.49169" lon="2.77969">
        <ele>139.2</ele>
        <time>2019-12-25T20:17:35Z</time>
      </trkpt>
      <trkpt lat="42.49158" lon="2.77945">
        <ele>140.1</ele>
        <time>2019-12-25T20:17:43Z</time>
      </trkpt>
      <trkpt lat="42.48957" lon="2.77598">
        <ele>146.4</ele>
        <time>2019-12-25T20:17:44Z</time>
      </trkpt>
      <trkpt lat="42.48938" lon="2.77569">
        <ele>146.6</ele>
        <time>2019-12-25T20:17:45Z</time>
      </trkpt>
      <trkpt lat="42.48843" lon="2.77458">
        <ele>151</ele>
        <time>2019-12-25T20:17:46Z</time>
      </trkpt>
      <trkpt lat="42.48724" lon="2.77381">
        <ele>156.6</ele>
        <time>2019-12-25T20:17:47Z</time>
      </trkpt>
      <trkpt lat="42.48707" lon="2.77363">
        <ele>157</ele>
        <time>2019-12-25T20:17:48Z</time>
      </trkpt>
      <trkpt lat="42.48686" lon="2.77338">
        <ele>157.4</ele>
        <time>2019-12-25T20:17:49Z</time>
      </trkpt>
      <trkpt lat="42.4866" lon="2.77292">
        <ele>156.7</ele>
        <time>2019-12-25T20:17:51Z</time>
      </trkpt>
      <trkpt lat="42.48635" lon="2.77246">
        <ele>153.4</ele>
        <time>2019-12-25T20:17:51Z</time>
      </trkpt>
      <trkpt lat="42.48521" lon="2.77056">
        <ele>154.6</ele>
        <time>2019-12-25T20:17:53Z</time>
      </trkpt>
      <trkpt lat="42.48509" lon="2.77033">
        <ele>154.9</ele>
        <time>2019-12-25T20:17:54Z</time>
      </trkpt>
      <trkpt lat="42.48494" lon="2.76991">
        <ele>157.2</ele>
        <time>2019-12-25T20:17:56Z</time>
      </trkpt>
      <trkpt lat="42.4849" lon="2.76958">
        <ele>160.2</ele>
        <time>2019-12-25T20:17:57Z</time>
      </trkpt>
      <trkpt lat="42.48485" lon="2.76901">
        <ele>163</ele>
        <time>2019-12-25T20:17:58Z</time>
      </trkpt>
      <trkpt lat="42.48474" lon="2.76676">
        <ele>166.5</ele>
        <time>2019-12-25T20:18:01Z</time>
      </trkpt>
      <trkpt lat="42.48468" lon="2.76587">
        <ele>165.8</ele>
        <time>2019-12-25T20:18:19Z</time>
      </trkpt>
      <trkpt lat="42.48456" lon="2.76338">
        <ele>166.6</ele>
        <time>2019-12-25T20:18:26Z</time>
      </trkpt>
      <trkpt lat="42.48452" lon="2.76267">
        <ele>166.9</ele>
        <time>2019-12-25T20:18:37Z</time>
      </trkpt>
      <trkpt lat="42.48444" lon="2.76169">
        <ele>167.5</ele>
        <time>2019-12-25T20:18:40Z</time>
      </trkpt>
      <trkpt lat="42.48443" lon="2.76112">
        <ele>168.5</ele>
        <time>2019-12-25T20:18:52Z</time>
      </trkpt>
      <trkpt lat="42.48449" lon="2.76109">
        <ele>168.5</ele>
        <time>2019-12-25T20:19:01Z</time>
      </trkpt>
      <trkpt lat="42.48454" lon="2.76098">
        <ele>168.5</ele>
        <time>2019-12-25T20:19:09Z</time>
      </trkpt>
      <trkpt lat="42.48454" lon="2.7609">
        <ele>168.6</ele>
        <time>2019-12-25T20:19:22Z</time>
      </trkpt>
      <trkpt lat="42.48452" lon="2.76086">
        <ele>168.6</ele>
        <time>2019-12-25T20:19:23Z</time>
      </trkpt>
      <trkpt lat="42.48449" lon="2.76082">
        <ele>169.8</ele>
        <time>2019-12-25T20:19:23Z</time>
      </trkpt>
      <trkpt lat="42.48441" lon="2.76079">
        <ele>169.9</ele>
        <time>2019-12-25T20:19:24Z</time>
      </trkpt>
      <trkpt lat="42.4844" lon="2.7601">
        <ele>171</ele>
        <time>2019-12-25T20:19:25Z</time>
      </trkpt>
      <trkpt lat="42.48418" lon="2.75605">
        <ele>167.1</ele>
        <time>2019-12-25T20:19:26Z</time>
      </trkpt>
      <trkpt lat="42.48428" lon="2.75537">
        <ele>169</ele>
        <time>2019-12-25T20:19:27Z</time>
      </trkpt>
      <trkpt lat="42.48435" lon="2.75513">
        <ele>169.2</ele>
        <time>2019-12-25T20:23:32Z</time>
      </trkpt>
      <trkpt lat="42.48443" lon="2.7551">
        <ele>169.1</ele>
        <time>2019-12-25T20:23:33Z</time>
      </trkpt>
      <trkpt lat="42.48446" lon="2.75506">
        <ele>169</ele>
        <time>2019-12-25T20:23:33Z</time>
      </trkpt>
      <trkpt lat="42.48511" lon="2.7546">
        <ele>166.8</ele>
        <time>2019-12-25T20:23:34Z</time>
      </trkpt>
      <trkpt lat="42.48624" lon="2.75397">
        <ele>162.6</ele>
        <time>2019-12-25T20:23:35Z</time>
      </trkpt>
      <trkpt lat="42.48758" lon="2.75334">
        <ele>158.9</ele>
        <time>2019-12-25T20:23:37Z</time>
      </trkpt>
      <trkpt lat="42.48862" lon="2.753">
        <ele>157.3</ele>
        <time>2019-12-25T20:23:39Z</time>
      </trkpt>
      <trkpt lat="42.48911" lon="2.7528">
        <ele>156.9</ele>
        <time>2019-12-25T20:23:43Z</time>
      </trkpt>
      <trkpt lat="42.48916" lon="2.75261">
        <ele>156.5</ele>
        <time>2019-12-25T20:23:48Z</time>
      </trkpt>
      <trkpt lat="42.48949" lon="2.75254">
        <ele>155.5</ele>
        <time>2019-12-25T20:23:51Z</time>
      </trkpt>
      <trkpt lat="42.48962" lon="2.75245">
        <ele>154.8</ele>
        <time>2019-12-25T20:24:00Z</time>
      </trkpt>
      <trkpt lat="42.48998" lon="2.75199">
        <ele>154.2</ele>
        <time>2019-12-25T20:24:04Z</time>
      </trkpt>
      <trkpt lat="42.49003" lon="2.7518">
        <ele>152.6</ele>
        <time>2019-12-25T20:24:08Z</time>
      </trkpt>
      <trkpt lat="42.49006" lon="2.75102">
        <ele>153.9</ele>
        <time>2019-12-25T20:24:14Z</time>
      </trkpt>
      <trkpt lat="42.49008" lon="2.7507">
        <ele>154.8</ele>
        <time>2019-12-25T20:24:18Z</time>
      </trkpt>
      <trkpt lat="42.49015" lon="2.75022">
        <ele>155</ele>
        <time>2019-12-25T20:24:27Z</time>
      </trkpt>
      <trkpt lat="42.49017" lon="2.74985">
        <ele>154.9</ele>
        <time>2019-12-25T20:24:32Z</time>
      </trkpt>
      <trkpt lat="42.49033" lon="2.74897">
        <ele>151</ele>
        <time>2019-12-25T20:24:37Z</time>
      </trkpt>
      <trkpt lat="42.49035" lon="2.74884">
        <ele>150.4</ele>
        <time>2019-12-25T20:24:44Z</time>
      </trkpt>
      <trkpt lat="42.49032" lon="2.74865">
        <ele>149.9</ele>
        <time>2019-12-25T20:24:50Z</time>
      </trkpt>
      <trkpt lat="42.49011" lon="2.7483">
        <ele>150.8</ele>
        <time>2019-12-25T20:24:50Z</time>
      </trkpt>
      <trkpt lat="42.48998" lon="2.74793">
        <ele>154.5</ele>
        <time>2019-12-25T20:24:52Z</time>
      </trkpt>
      <trkpt lat="42.48983" lon="2.74719">
        <ele>155.4</ele>
        <time>2019-12-25T20:24:53Z</time>
      </trkpt>
      <trkpt lat="42.48985" lon="2.74701">
        <ele>155.7</ele>
        <time>2019-12-25T20:25:07Z</time>
      </trkpt>
      <trkpt lat="42.48989" lon="2.74688">
        <ele>155.8</ele>
        <time>2019-12-25T20:25:14Z</time>
      </trkpt>
      <trkpt lat="42.48982" lon="2.74675">
        <ele>155.9</ele>
        <time>2019-12-25T20:25:16Z</time>
      </trkpt>
      <trkpt lat="42.4897" lon="2.74671">
        <ele>155.9</ele>
        <time>2019-12-25T20:25:23Z</time>
      </trkpt>
      <trkpt lat="42.48963" lon="2.74646">
        <ele>157.1</ele>
        <time>2019-12-25T20:25:24Z</time>
      </trkpt>
      <trkpt lat="42.48967" lon="2.74626">
        <ele>157.5</ele>
        <time>2019-12-25T20:25:25Z</time>
      </trkpt>
      <trkpt lat="42.49019" lon="2.74512">
        <ele>157.8</ele>
        <time>2019-12-25T20:25:29Z</time>
      </trkpt>
      <trkpt lat="42.49044" lon="2.74468">
        <ele>156</ele>
        <time>2019-12-25T20:25:30Z</time>
      </trkpt>
      <trkpt lat="42.4908" lon="2.74399">
        <ele>156.3</ele>
        <time>2019-12-25T20:25:34Z</time>
      </trkpt>
      <trkpt lat="42.49094" lon="2.74384">
        <ele>155.7</ele>
        <time>2019-12-25T20:25:37Z</time>
      </trkpt>
      <trkpt lat="42.49154" lon="2.74352">
        <ele>156</ele>
        <time>2019-12-25T20:25:37Z</time>
      </trkpt>
      <trkpt lat="42.49204" lon="2.74335">
        <ele>153.1</ele>
        <time>2019-12-25T20:25:41Z</time>
      </trkpt>
      <trkpt lat="42.49247" lon="2.74324">
        <ele>153.8</ele>
        <time>2019-12-25T20:25:42Z</time>
      </trkpt>
      <trkpt lat="42.49297" lon="2.74252">
        <ele>152.7</ele>
        <time>2019-12-25T20:25:44Z</time>
      </trkpt>
      <trkpt lat="42.49302" lon="2.74255">
        <ele>152.6</ele>
        <time>2019-12-25T20:25:48Z</time>
      </trkpt>
      <trkpt lat="42.49307" lon="2.74254">
        <ele>152.5</ele>
        <time>2019-12-25T20:25:54Z</time>
      </trkpt>
      <trkpt lat="42.49311" lon="2.7425">
        <ele>152.4</ele>
        <time>2019-12-25T20:27:44Z</time>
      </trkpt>
      <trkpt lat="42.49312" lon="2.74244">
        <ele>153.1</ele>
        <time>2019-12-25T20:27:45Z</time>
      </trkpt>
      <trkpt lat="42.49312" lon="2.74237">
        <ele>153.2</ele>
        <time>2019-12-25T20:27:55Z</time>
      </trkpt>
      <trkpt lat="42.49308" lon="2.7423">
        <ele>153.3</ele>
        <time>2019-12-25T20:28:01Z</time>
      </trkpt>
      <trkpt lat="42.49306" lon="2.74229">
        <ele>153.4</ele>
        <time>2019-12-25T20:28:06Z</time>
      </trkpt>
      <trkpt lat="42.49307" lon="2.74211">
        <ele>153.5</ele>
        <time>2019-12-25T20:28:11Z</time>
      </trkpt>
      <trkpt lat="42.49362" lon="2.73969">
        <ele>152.8</ele>
        <time>2019-12-25T20:28:20Z</time>
      </trkpt>
      <trkpt lat="42.49377" lon="2.73941">
        <ele>152.5</ele>
        <time>2019-12-25T20:28:27Z</time>
      </trkpt>
      <trkpt lat="42.49385" lon="2.73889">
        <ele>153.6</ele>
        <time>2019-12-25T20:28:35Z</time>
      </trkpt>
      <trkpt lat="42.49385" lon="2.73864">
        <ele>154</ele>
        <time>2019-12-25T20:28:43Z</time>
      </trkpt>
      <trkpt lat="42.49375" lon="2.73817">
        <ele>155</ele>
        <time>2019-12-25T20:28:51Z</time>
      </trkpt>
      <trkpt lat="42.49373" lon="2.73756">
        <ele>155.1</ele>
        <time>2019-12-25T20:28:56Z</time>
      </trkpt>
      <trkpt lat="42.49373" lon="2.73724">
        <ele>155.9</ele>
        <time>2019-12-25T20:29:03Z</time>
      </trkpt>
      <trkpt lat="42.49397" lon="2.73427">
        <ele>161.3</ele>
        <time>2019-12-25T20:29:41Z</time>
      </trkpt>
      <trkpt lat="42.49404" lon="2.73382">
        <ele>161.5</ele>
        <time>2019-12-25T20:29:50Z</time>
      </trkpt>
      <trkpt lat="42.4941" lon="2.73361">
        <ele>161</ele>
        <time>2019-12-25T20:29:59Z</time>
      </trkpt>
      <trkpt lat="42.49433" lon="2.73301">
        <ele>157</ele>
        <time>2019-12-25T20:30:21Z</time>
      </trkpt>
      <trkpt lat="42.4944" lon="2.73276">
        <ele>156.7</ele>
        <time>2019-12-25T20:31:07Z</time>
      </trkpt>
      <trkpt lat="42.49445" lon="2.73249">
        <ele>156.5</ele>
        <time>2019-12-25T20:31:14Z</time>
      </trkpt>
      <trkpt lat="42.49455" lon="2.73176">
        <ele>156.2</ele>
        <time>2019-12-25T20:31:56Z</time>
      </trkpt>
      <trkpt lat="42.49463" lon="2.73155">
        <ele>155.9</ele>
        <time>2019-12-25T20:32:40Z</time>
      </trkpt>
      <trkpt lat="42.49471" lon="2.73147">
        <ele>155.6</ele>
        <time>2019-12-25T20:32:47Z</time>
      </trkpt>
      <trkpt lat="42.49466" lon="2.7313">
        <ele>155.9</ele>
        <time>2019-12-25T20:33:01Z</time>
      </trkpt>
      <trkpt lat="42.49461" lon="2.73125">
        <ele>156.1</ele>
        <time>2019-12-25T20:33:24Z</time>
      </trkpt>
      <trkpt lat="42.49444" lon="2.73121">
        <ele>156.8</ele>
        <time>2019-12-25T20:33:31Z</time>
      </trkpt>
      <trkpt lat="42.49451" lon="2.73075">
        <ele>157.8</ele>
        <time>2019-12-25T20:33:35Z</time>
      </trkpt>
      <trkpt lat="42.49466" lon="2.73001">
        <ele>157.7</ele>
        <time>2019-12-25T20:33:39Z</time>
      </trkpt>
      <trkpt lat="42.49476" lon="2.72975">
        <ele>158.6</ele>
        <time>2019-12-25T20:33:46Z</time>
      </trkpt>
      <trkpt lat="42.49469" lon="2.72959">
        <ele>159.2</ele>
        <time>2019-12-25T20:33:51Z</time>
      </trkpt>
      <trkpt lat="42.49487" lon="2.72856">
        <ele>159.4</ele>
        <time>2019-12-25T20:33:55Z</time>
      </trkpt>
      <trkpt lat="42.49494" lon="2.72842">
        <ele>158.4</ele>
        <time>2019-12-25T20:34:00Z</time>
      </trkpt>
      <trkpt lat="42.49476" lon="2.72727">
        <ele>163.3</ele>
        <time>2019-12-25T20:34:05Z</time>
      </trkpt>
      <trkpt lat="42.49463" lon="2.72678">
        <ele>164.9</ele>
        <time>2019-12-25T20:34:23Z</time>
      </trkpt>
      <trkpt lat="42.4944" lon="2.72611">
        <ele>164.6</ele>
        <time>2019-12-25T20:34:32Z</time>
      </trkpt>
      <trkpt lat="42.49419" lon="2.72566">
        <ele>162.9</ele>
        <time>2019-12-25T20:34:41Z</time>
      </trkpt>
      <trkpt lat="42.49421" lon="2.72552">
        <ele>161.2</ele>
        <time>2019-12-25T20:34:55Z</time>
      </trkpt>
      <trkpt lat="42.49427" lon="2.72551">
        <ele>160.9</ele>
        <time>2019-12-25T20:35:00Z</time>
      </trkpt>
      <trkpt lat="42.49432" lon="2.72547">
        <ele>160.4</ele>
        <time>2019-12-25T20:35:00Z</time>
      </trkpt>
      <trkpt lat="42.49434" lon="2.72535">
        <ele>159.8</ele>
        <time>2019-12-25T20:35:03Z</time>
      </trkpt>
      <trkpt lat="42.49437" lon="2.72539">
        <ele>159.8</ele>
        <time>2019-12-25T20:35:04Z</time>
      </trkpt>
      <trkpt lat="42.49445" lon="2.7254">
        <ele>159.4</ele>
        <time>2019-12-25T20:35:13Z</time>
      </trkpt>
      <trkpt lat="42.49448" lon="2.72538">
        <ele>159.2</ele>
        <time>2019-12-25T20:35:15Z</time>
      </trkpt>
      <trkpt lat="42.49451" lon="2.72531">
        <ele>158.9</ele>
        <time>2019-12-25T20:35:23Z</time>
      </trkpt>
      <trkpt lat="42.49451" lon="2.72527">
        <ele>158.8</ele>
        <time>2019-12-25T20:35:26Z</time>
      </trkpt>
      <trkpt lat="42.49448" lon="2.72518">
        <ele>158.8</ele>
        <time>2019-12-25T20:35:29Z</time>
      </trkpt>
      <trkpt lat="42.49443" lon="2.72516">
        <ele>159</ele>
        <time>2019-12-25T20:35:31Z</time>
      </trkpt>
      <trkpt lat="42.49437" lon="2.72507">
        <ele>159.2</ele>
        <time>2019-12-25T20:35:34Z</time>
      </trkpt>
      <trkpt lat="42.49433" lon="2.72494">
        <ele>157.9</ele>
        <time>2019-12-25T20:35:41Z</time>
      </trkpt>
      <trkpt lat="42.4943" lon="2.7246">
        <ele>156.8</ele>
        <time>2019-12-25T20:35:47Z</time>
      </trkpt>
      <trkpt lat="42.49429" lon="2.72428">
        <ele>156.5</ele>
        <time>2019-12-25T20:35:52Z</time>
      </trkpt>
      <trkpt lat="42.49425" lon="2.72399">
        <ele>156</ele>
        <time>2019-12-25T20:36:01Z</time>
      </trkpt>
      <trkpt lat="42.4941" lon="2.7234">
        <ele>158.5</ele>
        <time>2019-12-25T20:36:27Z</time>
      </trkpt>
      <trkpt lat="42.49399" lon="2.72311">
        <ele>159.7</ele>
        <time>2019-12-25T20:36:36Z</time>
      </trkpt>
      <trkpt lat="42.49394" lon="2.72277">
        <ele>159.6</ele>
        <time>2019-12-25T20:36:47Z</time>
      </trkpt>
      <trkpt lat="42.494" lon="2.72233">
        <ele>159.9</ele>
        <time>2019-12-25T20:36:56Z</time>
      </trkpt>
      <trkpt lat="42.49401" lon="2.72202">
        <ele>161.4</ele>
        <time>2019-12-25T20:37:09Z</time>
      </trkpt>
      <trkpt lat="42.49392" lon="2.72136">
        <ele>167.5</ele>
        <time>2019-12-25T20:37:14Z</time>
      </trkpt>
      <trkpt lat="42.49389" lon="2.72102">
        <ele>168.4</ele>
        <time>2019-12-25T20:37:15Z</time>
      </trkpt>
      <trkpt lat="42.49391" lon="2.72058">
        <ele>176</ele>
        <time>2019-12-25T20:37:23Z</time>
      </trkpt>
      <trkpt lat="42.49398" lon="2.72006">
        <ele>174.8</ele>
        <time>2019-12-25T20:37:24Z</time>
      </trkpt>
      <trkpt lat="42.49408" lon="2.71966">
        <ele>185.2</ele>
        <time>2019-12-25T20:37:27Z</time>
      </trkpt>
      <trkpt lat="42.49411" lon="2.71967">
        <ele>184.5</ele>
        <time>2019-12-25T20:37:29Z</time>
      </trkpt>
      <trkpt lat="42.49417" lon="2.71964">
        <ele>163.7</ele>
        <time>2019-12-25T20:37:31Z</time>
      </trkpt>
      <trkpt lat="42.49421" lon="2.71969">
        <ele>163.2</ele>
        <time>2019-12-25T20:37:31Z</time>
      </trkpt>
      <trkpt lat="42.49482" lon="2.71901">
        <ele>160.8</ele>
        <time>2019-12-25T20:37:32Z</time>
      </trkpt>
      <trkpt lat="42.49514" lon="2.7186">
        <ele>154.5</ele>
        <time>2019-12-25T20:37:33Z</time>
      </trkpt>
      <trkpt lat="42.4952" lon="2.71848">
        <ele>154.5</ele>
        <time>2019-12-25T20:37:35Z</time>
      </trkpt>
      <trkpt lat="42.49534" lon="2.71802">
        <ele>154.7</ele>
        <time>2019-12-25T20:37:42Z</time>
      </trkpt>
      <trkpt lat="42.4954" lon="2.71796">
        <ele>155</ele>
        <time>2019-12-25T20:37:45Z</time>
      </trkpt>
      <trkpt lat="42.49546" lon="2.71794">
        <ele>155.3</ele>
      </trkpt>
      <trkpt lat="42.49567" lon="2.71795">
        <ele>156.3</ele>
      </trkpt>
      <trkpt lat="42.49574" lon="2.71791">
        <ele>156.5</ele>
      </trkpt>
      <trkpt lat="42.49591" lon="2.71773">
        <ele>160.2</ele>
      </trkpt>
      <trkpt lat="42.496" lon="2.71759">
        <ele>160.1</ele>
      </trkpt>
      <trkpt lat="42.49604" lon="2.71758">
        <ele>160.3</ele>
      </trkpt>
      <trkpt lat="42.49617" lon="2.71739">
        <ele>160</ele>
      </trkpt>
      <trkpt lat="42.4962" lon="2.71731">
        <ele>160.1</ele>
      </trkpt>
      <trkpt lat="42.49621" lon="2.71718">
        <ele>160</ele>
      </trkpt>
      <trkpt lat="42.49637" lon="2.7169">
        <ele>160.4</ele>
      </trkpt>
      <trkpt lat="42.49653" lon="2.7165">
        <ele>159.6</ele>
      </trkpt>
      <trkpt lat="42.49804" lon="2.71249">
        <ele>171.1</ele>
      </trkpt>
      <trkpt lat="42.49834" lon="2.7115">
        <ele>175.7</ele>
      </trkpt>
      <trkpt lat="42.49846" lon="2.711">
        <ele>175.8</ele>
      </trkpt>
      <trkpt lat="42.49859" lon="2.71039">
        <ele>177.5</ele>
      </trkpt>
      <trkpt lat="42.49888" lon="2.70882">
        <ele>180.8</ele>
      </trkpt>
      <trkpt lat="42.49887" lon="2.70877">
        <ele>180.8</ele>
      </trkpt>
      <trkpt lat="42.49897" lon="2.70795">
        <ele>183.6</ele>
      </trkpt>
      <trkpt lat="42.49901" lon="2.70756">
        <ele>186.8</ele>
      </trkpt>
      <trkpt lat="42.499" lon="2.70714">
        <ele>185</ele>
      </trkpt>
      <trkpt lat="42.49895" lon="2.70674">
        <ele>185.7</ele>
      </trkpt>
      <trkpt lat="42.4988" lon="2.70614">
        <ele>183.2</ele>
      </trkpt>
      <trkpt lat="42.49862" lon="2.70565">
        <ele>185.6</ele>
      </trkpt>
      <trkpt lat="42.49835" lon="2.70512">
        <ele>187.4</ele>
      </trkpt>
      <trkpt lat="42.49806" lon="2.70474">
        <ele>184.3</ele>
      </trkpt>
      <trkpt lat="42.49769" lon="2.70439">
        <ele>183.9</ele>
      </trkpt>
      <trkpt lat="42.49741" lon="2.70417">
        <ele>180.7</ele>
      </trkpt>
      <trkpt lat="42.49706" lon="2.70399">
        <ele>191.2</ele>
      </trkpt>
      <trkpt lat="42.49495" lon="2.7034">
        <ele>186.4</ele>
      </trkpt>
      <trkpt lat="42.49446" lon="2.70324">
        <ele>186.1</ele>
      </trkpt>
      <trkpt lat="42.49401" lon="2.70303">
        <ele>178.5</ele>
      </trkpt>
      <trkpt lat="42.49283" lon="2.7025">
        <ele>184</ele>
      </trkpt>
      <trkpt lat="42.49043" lon="2.70116">
        <ele>187.8</ele>
      </trkpt>
      <trkpt lat="42.49006" lon="2.70092">
        <ele>189.5</ele>
      </trkpt>
      <trkpt lat="42.48808" lon="2.69926">
        <ele>184.5</ele>
      </trkpt>
      <trkpt lat="42.48588" lon="2.69766">
        <ele>185.3</ele>
      </trkpt>
      <trkpt lat="42.48558" lon="2.69738">
        <ele>185.6</ele>
      </trkpt>
      <trkpt lat="42.48496" lon="2.69675">
        <ele>181.3</ele>
      </trkpt>
      <trkpt lat="42.48393" lon="2.69562">
        <ele>185.9</ele>
      </trkpt>
      <trkpt lat="42.48366" lon="2.69523">
        <ele>188</ele>
      </trkpt>
      <trkpt lat="42.48352" lon="2.69496">
        <ele>189.8</ele>
      </trkpt>
      <trkpt lat="42.4834" lon="2.6947">
        <ele>189.2</ele>
      </trkpt>
      <trkpt lat="42.48324" lon="2.69427">
        <ele>193.4</ele>
      </trkpt>
      <trkpt lat="42.48315" lon="2.69391">
        <ele>195.4</ele>
      </trkpt>
      <trkpt lat="42.48309" lon="2.6936">
        <ele>195.9</ele>
      </trkpt>
      <trkpt lat="42.48306" lon="2.69319">
        <ele>198.1</ele>
      </trkpt>
      <trkpt lat="42.48305" lon="2.69283">
        <ele>199.9</ele>
      </trkpt>
      <trkpt lat="42.48314" lon="2.69149">
        <ele>211.5</ele>
      </trkpt>
      <trkpt lat="42.48316" lon="2.69079">
        <ele>209.8</ele>
      </trkpt>
      <trkpt lat="42.48312" lon="2.69009">
        <ele>210.5</ele>
      </trkpt>
      <trkpt lat="42.48301" lon="2.68905">
        <ele>204.2</ele>
      </trkpt>
      <trkpt lat="42.48294" lon="2.68867">
        <ele>204.1</ele>
      </trkpt>
      <trkpt lat="42.48292" lon="2.68866">
        <ele>204.3</ele>
      </trkpt>
      <trkpt lat="42.48287" lon="2.68848">
        <ele>204.2</ele>
      </trkpt>
      <trkpt lat="42.48289" lon="2.68844">
        <ele>203.8</ele>
      </trkpt>
      <trkpt lat="42.4826" lon="2.68789">
        <ele>199.6</ele>
      </trkpt>
      <trkpt lat="42.48255" lon="2.68771">
        <ele>198.9</ele>
      </trkpt>
      <trkpt lat="42.48227" lon="2.68722">
        <ele>201.5</ele>
      </trkpt>
      <trkpt lat="42.48214" lon="2.68725">
        <ele>202.6</ele>
      </trkpt>
      <trkpt lat="42.48209" lon="2.68697">
        <ele>202</ele>
      </trkpt>
      <trkpt lat="42.4821" lon="2.68686">
        <ele>201.6</ele>
      </trkpt>
      <trkpt lat="42.48203" lon="2.68666">
        <ele>200.9</ele>
      </trkpt>
      <trkpt lat="42.48201" lon="2.68613">
        <ele>201.6</ele>
      </trkpt>
      <trkpt lat="42.48184" lon="2.68569">
        <ele>204.8</ele>
      </trkpt>
      <trkpt lat="42.48174" lon="2.68538">
        <ele>204</ele>
      </trkpt>
      <trkpt lat="42.48167" lon="2.6847">
        <ele>204.6</ele>
      </trkpt>
      <trkpt lat="42.48166" lon="2.68268">
        <ele>215</ele>
      </trkpt>
      <trkpt lat="42.48163" lon="2.68197">
        <ele>216</ele>
      </trkpt>
      <trkpt lat="42.48156" lon="2.68119">
        <ele>215.1</ele>
      </trkpt>
      <trkpt lat="42.48147" lon="2.68052">
        <ele>213.5</ele>
      </trkpt>
      <trkpt lat="42.48128" lon="2.67957">
        <ele>213.3</ele>
      </trkpt>
      <trkpt lat="42.48116" lon="2.67921">
        <ele>214</ele>
      </trkpt>
      <trkpt lat="42.48114" lon="2.67911">
        <ele>213.5</ele>
      </trkpt>
      <trkpt lat="42.48097" lon="2.67847">
        <ele>214.1</ele>
      </trkpt>
      <trkpt lat="42.4809" lon="2.67801">
        <ele>212.9</ele>
      </trkpt>
      <trkpt lat="42.48083" lon="2.67754">
        <ele>215.6</ele>
      </trkpt>
      <trkpt lat="42.4804" lon="2.67668">
        <ele>219.1</ele>
      </trkpt>
      <trkpt lat="42.47988" lon="2.67614">
        <ele>223.1</ele>
      </trkpt>
      <trkpt lat="42.47964" lon="2.67593">
        <ele>223.8</ele>
      </trkpt>
      <trkpt lat="42.4791" lon="2.67564">
        <ele>224.6</ele>
      </trkpt>
      <trkpt lat="42.47844" lon="2.67541">
        <ele>224.4</ele>
      </trkpt>
      <trkpt lat="42.47806" lon="2.67529">
        <ele>228.6</ele>
      </trkpt>
      <trkpt lat="42.47756" lon="2.67502">
        <ele>227.1</ele>
      </trkpt>
      <trkpt lat="42.4773" lon="2.67477">
        <ele>221.9</ele>
      </trkpt>
      <trkpt lat="42.47684" lon="2.6742">
        <ele>216</ele>
      </trkpt>
      <trkpt lat="42.47645" lon="2.67358">
        <ele>212</ele>
      </trkpt>
      <trkpt lat="42.47628" lon="2.67333">
        <ele>214.9</ele>
      </trkpt>
      <trkpt lat="42.47608" lon="2.67293">
        <ele>217.2</ele>
      </trkpt>
      <trkpt lat="42.47586" lon="2.67239">
        <ele>224.4</ele>
      </trkpt>
      <trkpt lat="42.47533" lon="2.67276">
        <ele>223.6</ele>
      </trkpt>
      <trkpt lat="42.47511" lon="2.67282">
        <ele>223.8</ele>
      </trkpt>
      <trkpt lat="42.47498" lon="2.67278">
        <ele>222.4</ele>
      </trkpt>
      <trkpt lat="42.47491" lon="2.67265">
        <ele>223.1</ele>
      </trkpt>
      <trkpt lat="42.47475" lon="2.67204">
        <ele>224.4</ele>
      </trkpt>
      <trkpt lat="42.47458" lon="2.67123">
        <ele>227.5</ele>
      </trkpt>
      <trkpt lat="42.47444" lon="2.67038">
        <ele>227.2</ele>
      </trkpt>
      <trkpt lat="42.47483" lon="2.6695">
        <ele>226</ele>
      </trkpt>
      <trkpt lat="42.47521" lon="2.66882">
        <ele>231.7</ele>
      </trkpt>
      <trkpt lat="42.47539" lon="2.66846">
        <ele>231.7</ele>
      </trkpt>
      <trkpt lat="42.47563" lon="2.668">
        <ele>225.8</ele>
      </trkpt>
      <trkpt lat="42.47585" lon="2.66753">
        <ele>224.1</ele>
      </trkpt>
      <trkpt lat="42.47598" lon="2.667">
        <ele>226.8</ele>
      </trkpt>
      <trkpt lat="42.47604" lon="2.66656">
        <ele>226.4</ele>
      </trkpt>
      <trkpt lat="42.47605" lon="2.666">
        <ele>226.2</ele>
      </trkpt>
      <trkpt lat="42.47603" lon="2.6656">
        <ele>227</ele>
      </trkpt>
      <trkpt lat="42.47593" lon="2.66516">
        <ele>227.6</ele>
      </trkpt>
      <trkpt lat="42.47583" lon="2.66475">
        <ele>227</ele>
      </trkpt>
      <trkpt lat="42.47571" lon="2.66444">
        <ele>227.4</ele>
      </trkpt>
      <trkpt lat="42.47559" lon="2.66419">
        <ele>227.5</ele>
      </trkpt>
      <trkpt lat="42.47538" lon="2.66381">
        <ele>227.8</ele>
      </trkpt>
      <trkpt lat="42.47478" lon="2.66447">
        <ele>229.2</ele>
      </trkpt>
      <trkpt lat="42.47418" lon="2.66347">
        <ele>231.1</ele>
      </trkpt>
      <trkpt lat="42.47375" lon="2.66309">
        <ele>234.8</ele>
      </trkpt>
      <trkpt lat="42.47342" lon="2.66305">
        <ele>236.8</ele>
      </trkpt>
      <trkpt lat="42.47286" lon="2.66269">
        <ele>244.6</ele>
      </trkpt>
      <trkpt lat="42.4724" lon="2.66236">
        <ele>241.2</ele>
      </trkpt>
      <trkpt lat="42.47215" lon="2.66229">
        <ele>241.9</ele>
      </trkpt>
      <trkpt lat="42.47177" lon="2.66231">
        <ele>244.8</ele>
      </trkpt>
      <trkpt lat="42.47139" lon="2.66248">
        <ele>245.1</ele>
      </trkpt>
      <trkpt lat="42.47116" lon="2.66258">
        <ele>262.2</ele>
      </trkpt>
      <trkpt lat="42.47091" lon="2.66258">
        <ele>254</ele>
      </trkpt>
      <trkpt lat="42.47047" lon="2.66234">
        <ele>246.2</ele>
      </trkpt>
      <trkpt lat="42.47002" lon="2.66207">
        <ele>245.7</ele>
      </trkpt>
      <trkpt lat="42.46955" lon="2.66165">
        <ele>245.4</ele>
      </trkpt>
      <trkpt lat="42.46924" lon="2.66122">
        <ele>245.4</ele>
      </trkpt>
      <trkpt lat="42.46893" lon="2.66043">
        <ele>251</ele>
      </trkpt>
      <trkpt lat="42.46878" lon="2.65999">
        <ele>244.8</ele>
      </trkpt>
      <trkpt lat="42.4683" lon="2.65907">
        <ele>245.4</ele>
      </trkpt>
      <trkpt lat="42.46808" lon="2.6585">
        <ele>246.6</ele>
      </trkpt>
      <trkpt lat="42.46783" lon="2.65738">
        <ele>245.8</ele>
      </trkpt>
      <trkpt lat="42.46764" lon="2.65653">
        <ele>247.5</ele>
      </trkpt>
      <trkpt lat="42.46743" lon="2.65562">
        <ele>248.4</ele>
      </trkpt>
      <trkpt lat="42.46674" lon="2.65234">
        <ele>250.2</ele>
      </trkpt>
    </trkseg>
  </trk>
</gpx>